[[{"header":{"parameterUnit":"m.s-1","parameterCategory":1,"la1":31.0,"la2":29.5877,"lo1":-88.7671,"lo2":-86.6584,"dy":0.0162,"dx":0.0185,"nx":115,"ny":88,"refTime":"2026-03-17T12:00:00:Z","depth":0,"parameterNumber":2,"parameterNumberName":"U-component_of_WINDS"},"data":[0.0,0.0,0.0,0.0,0.0,0.0,0.0,0.0,0.0,0.0,0.0,0.0,0.0,0.0,0.0,0.0,0.0,0.0,0.0,0.0,0.0,0.0,0.0,0.0,0.0,0.0,0.0,0.0,0.0,0.0,0.0,0.0,0.0,0.0,0.0,0.0,0.0,0.0,0.0,0.0,0.0,0.0,0.0,0.0,0.0,0.0,0.0,0.0,0.0,0.0,0.0,0.0,0.0,0.0,0.0,0.0,0.0,0.0,0.0,0.0,0.0,0.0,0.0,0.0,0.0,0.0,0.0,0.0,0.0,0.0,0.0,0.0,0.0,0.0,0.0,0.0,0.0,0.0,0.0,0.0,0.0,0.0,0.0,0.0,0.0,0.0,0.0,0.0,0.0,0.0,0.0,0.0,0.0,0.0,0.0,0.0,0.0,0.0,0.0,0.0,0.0,0.0,0.0,0.0,0.0,0.0,0.0,0.0,0.0,0.0,0.0,0.0,0.0,0.0,0.0,0.0,0.0,0.0,0.0,0.0,0.0,0.0,0.0,0.0,0.0,0.0,0.0,0.0,0.0,0.0,0.0,0.0,0.0,0.0,0.0,0.0,0.0,0.0,0.0,0.0,0.0,0.0,0.0,0.0,0.0,0.0,0.0,0.0,0.0,0.0,0.0,0.0,0.0,0.0,0.0,0.0,0.0,0.0,0.0,0.0,0.0,0.0,0.0,0.0,0.0,0.0,0.0,0.0,0.0,0.0,0.0,0.0,0.0,0.0,0.0,0.0,0.0,0.0,0.0,0.0,0.0,0.0,0.0,0.0,0.0,0.0,0.0,0.0,0.0,0.0,0.0,0.0,0.0,0.0,0.0,0.0,0.0,0.0,0.0,0.0,0.0,0.0,0.0,0.0,0.0,0.0,0.0,0.0,0.0,0.0,0.0,0.0,0.0,0.0,0.0,0.0,0.0,0.0,0.0,0.0,0.0,0.0,0.0,0.0,0.0,0.0,0.0,0.0,0.0,0.0,0.0,0.0,0.0,0.0,0.0,0.0,0.0,0.0,0.0,0.0,0.0,0.0,0.0,0.0,0.0,0.0,0.0,0.0,0.0,0.0,0.0,0.0,0.0,0.0,0.0,0.0,0.0,0.0,0.0,0.0,0.0,0.0,0.0,0.0,0.0,0.0,0.0,0.0,0.0,0.0,0.0,0.0,0.0,0.0,0.0,0.0,0.0,0.0,0.0,0.0,0.0,0.0,0.0,0.0,0.0,0.0,0.0,0.0,0.0,0.0,0.0,0.0,0.0,0.0,0.0,0.0,0.0,0.0,0.0,0.0,0.0,0.0,0.0,0.0,0.0,0.0,0.0,0.0,0.0,0.0,0.0,0.0,0.0,0.0,0.0,0.0,0.0,0.0,0.0,0.0,0.0,0.0,0.0,0.0,0.0,0.0,0.0,0.0,0.0,0.0,0.0,0.0,0.0,0.0,0.0,0.0,0.0,0.0,0.0,0.0,0.0,0.0,0.0,0.0,0.0,0.0,0.0,0.0,0.0,0.0,0.0,0.0,0.0,0.0,0.0,0.0,0.0,0.0,0.0,0.0,0.0,0.0,0.0,0.0,0.0,0.0,0.0,0.0,0.0,0.0,0.0,0.0,0.0,0.0,0.0,0.0,0.0,0.0,0.0,0.0,0.0,0.0,0.0,0.0,0.0,0.0,0.0,0.0,0.0,0.0,0.0,0.0,0.0,0.0,0.0,0.0,0.0,0.0,0.0,0.0,0.0,0.0,0.0,0.0,0.0,0.0,0.0,0.0,0.0,0.0,0.0,0.0,0.0,0.0,0.0,0.0,0.0,0.0,0.0,0.0,0.0,0.0,0.0,0.0,0.0,0.0,0.0,0.0,0.0,0.0,0.0,0.0,0.0,0.0,0.0,0.0,0.0,0.0,0.0,0.0,0.0,0.0,0.0,0.0,0.0,0.0,0.0,0.0,0.0,0.0,0.0,0.0,0.0,0.0,0.0,0.0,0.0,0.0,0.0,0.0,0.0,0.0,0.0,0.0,0.0,0.0,0.0,0.0,0.0,0.0,0.0,0.0,0.0,0.0,0.0,0.0,0.0,0.0,0.0,0.0,0.0,0.0,0.0,0.0,0.0,0.0,0.0,0.0,0.0,0.0,0.0,0.0,0.0,0.0,0.0,0.0,0.0,0.0,0.0,0.0,0.0,0.0,0.0,0.0,0.0,0.0,0.0,0.0,0.0,0.0,0.0,0.0,0.0,0.0,0.0,0.0,0.0,0.0,0.0,0.0,0.0,0.0,0.0,0.0,0.0,0.0,0.0,0.0,0.0,0.0,0.0,0.0,0.0,0.0,0.0,0.0,0.0,0.0,0.0,0.0,0.0,0.0,0.0,0.0,0.0,0.0,0.0,0.0,0.0,0.0,0.0,0.0,0.0,0.0,0.0,0.0,0.0,0.0,0.0,0.0,0.0,0.0,0.0,0.0,0.0,0.0,0.0,0.0,0.0,0.0,0.0,0.0,0.0,0.0,0.0,0.0,0.0,0.0,0.0,0.0,0.0,0.0,0.0,0.0,0.0,0.0,0.0,0.0,0.0,0.0,0.0,0.0,0.0,0.0,0.0,0.0,0.0,0.0,0.0,0.0,0.0,0.0,0.0,0.0,0.0,0.0,0.0,0.0,0.0,0.0,0.0,0.0,0.0,0.0,0.0,0.0,0.0,0.0,0.0,0.0,0.0,0.0,0.0,0.0,0.0,0.0,0.0,0.0,0.0,0.0,0.0,0.0,0.0,0.0,0.0,0.0,0.0,0.0,0.0,0.0,0.0,0.0,0.0,0.0,0.0,0.0,0.0,0.0,0.0,0.0,0.0,0.0,0.0,0.0,0.0,0.0,0.0,0.0,0.0,0.0,0.0,0.0,0.0,0.0,0.0,0.0,0.0,0.0,0.0,0.0,0.0,0.0,0.0,0.0,0.0,0.0,0.0,0.0,0.0,0.0,0.0,0.0,0.0,0.0,0.0,0.0,0.0,0.0,0.0,0.0,0.0,0.0,0.0,0.0,0.0,0.0,0.0,0.0,0.0,0.0,0.0,0.0,0.0,0.0,0.0,0.0,0.0,0.0,0.0,0.0,0.0,0.0,0.0,0.0,0.0,0.0,0.0,0.0,0.0,0.0,0.0,0.0,0.0,0.0,0.0,0.0,0.0,0.0,0.0,0.0,0.0,0.0,0.0,0.0,0.0,0.0,0.0,0.0,0.0,0.0,0.0,0.0,0.0,0.0,0.0,0.0,0.0,0.0,0.0,0.0,0.0,0.0,0.0,0.0,0.0,0.0,0.0,0.0,0.0,0.0,0.0,0.0,0.0,0.0,0.0,0.0,0.0,0.0,0.0,0.0,0.0,0.0,0.0,0.0,0.0,0.0,0.0,0.0,0.0,0.0,0.0,0.0,0.0,0.0,0.0,0.0,0.0,0.0,0.0,0.0,0.0,0.0,0.0,0.0,0.0,0.0,0.0,0.0,0.0,0.0,0.0,0.0,0.0,0.0,0.0,0.0,0.0,0.0,0.0,0.0,0.0,0.0,0.0,0.0,0.0,0.0,0.0,0.0,0.0,0.0,0.0,0.0,0.0,0.0,0.0,0.0,0.0,0.0,0.0,0.0,0.0,0.0,0.0,0.0,0.0,0.0,0.0,0.0,0.0,0.0,0.0,0.0,0.0,0.0,0.0,0.0,0.0,0.0,0.0,0.0,0.0,0.0,0.0,0.0,0.0,0.0,0.0,0.0,0.0,0.0,0.0,0.0,0.0,0.0,0.0,0.0,0.0,0.0,0.0,0.0,0.0,0.0,0.0,0.0,0.0,0.0,0.0,0.0,0.0,0.0,0.0,0.0,0.0,0.0,0.0,0.0,0.0,0.0,0.0,0.0,0.0,0.0,0.0,0.0,0.0,0.0,0.0,0.0,0.0,0.0,0.0,0.0,0.0,0.0,0.0,0.0,0.0,0.0,0.0,0.0,0.0,0.0,0.0,0.0,0.0,0.0,0.0,0.0,0.0,0.0,0.0,0.0,0.0,0.0,0.0,0.0,0.0,0.0,0.0,0.0,0.0,0.0,0.0,0.0,0.0,0.0,0.0,0.0,0.0,0.0,0.0,0.0,0.0,0.0,0.0,0.0,0.0,0.0,0.0,0.0,0.0,0.0,0.0,0.0,0.0,0.0,0.0,0.0,0.0,0.0,0.0,0.0,0.0,0.0,0.0,0.0,-1.388,0.0,0.0,0.0,0.0,0.0,0.0,0.0,0.0,0.0,0.0,0.0,0.0,0.0,0.0,0.0,0.0,0.0,0.0,0.0,0.0,0.0,0.0,0.0,0.0,0.0,0.0,0.0,0.0,0.0,0.0,0.0,0.0,0.0,0.0,0.0,0.0,0.0,0.0,0.0,0.0,0.0,0.0,0.0,0.0,0.0,0.0,0.0,0.0,0.0,0.0,0.0,0.0,0.0,0.0,0.0,0.0,0.0,0.0,0.0,0.0,0.0,0.0,0.0,0.0,0.0,0.0,0.0,0.0,0.0,0.0,0.0,0.0,0.0,0.0,0.0,0.0,0.0,0.0,0.0,0.0,0.0,0.0,0.0,0.0,0.0,0.0,0.0,0.0,0.0,0.0,0.0,0.0,0.0,0.0,0.0,0.0,0.0,0.0,0.0,0.0,0.0,0.0,0.0,0.0,0.0,0.0,0.0,0.0,0.0,0.0,-1.7467,-1.6828,-1.6789,-1.5777,-1.3633,0.0,0.0,0.0,0.0,0.0,0.0,0.0,0.0,0.0,0.0,0.0,0.0,0.0,0.0,0.0,0.0,0.0,0.0,0.0,0.0,0.0,0.0,0.0,0.0,0.0,0.0,0.0,0.0,0.0,0.0,0.0,0.0,0.0,0.0,0.0,0.0,0.0,0.0,0.0,0.0,0.0,0.0,0.0,0.0,0.0,0.0,0.0,0.0,0.0,0.0,0.0,0.0,0.0,0.0,0.0,0.0,0.0,0.0,0.0,0.0,0.0,0.0,0.0,0.0,0.0,0.0,0.0,0.0,0.0,0.0,0.0,0.0,0.0,0.0,0.0,0.0,0.0,0.0,0.0,0.0,0.0,0.0,0.0,0.0,0.0,0.0,0.0,0.0,0.0,0.0,0.0,0.0,0.0,0.0,0.0,0.0,0.0,0.0,0.0,0.0,0.0,0.0,0.0,0.0,0.0,0.0,0.0,0.0,0.0,0.0,0.0,0.0,-1.6825,-1.5695,-1.3393,0.0,0.0,0.0,0.0,0.0,0.0,0.0,0.0,0.0,0.0,0.0,0.0,0.0,0.0,0.0,0.0,0.0,0.0,0.0,0.0,0.0,0.0,0.0,0.0,0.0,0.0,0.0,0.0,0.0,0.0,0.0,0.0,0.0,0.0,0.0,0.0,0.0,0.0,0.0,0.0,0.0,0.0,0.0,0.0,0.0,0.0,0.0,0.0,0.0,0.0,0.0,0.0,0.0,0.0,0.0,0.0,0.0,0.0,0.0,0.0,0.0,0.0,0.0,0.0,0.0,0.0,0.0,0.0,0.0,0.0,0.0,0.0,0.0,0.0,0.0,0.0,0.0,0.0,0.0,0.0,0.0,0.0,0.0,0.0,0.0,0.0,0.0,0.0,0.0,0.0,0.0,0.0,0.0,0.0,0.0,0.0,0.0,0.0,0.0,0.0,0.0,0.0,0.0,0.0,0.0,0.0,0.0,0.0,0.0,0.0,-1.7635,-1.726,-1.6952,0.0,-1.3435,0.0,0.0,0.0,0.0,0.0,0.0,0.0,0.0,0.0,0.0,0.0,0.0,0.0,0.0,0.0,0.0,0.0,0.0,0.0,0.0,0.0,0.0,0.0,0.0,0.0,0.0,0.0,0.0,0.0,0.0,0.0,0.0,0.0,0.0,0.0,0.0,0.0,0.0,0.0,0.0,0.0,0.0,0.0,0.0,0.0,0.0,0.0,0.0,0.0,0.0,0.0,0.0,0.0,0.0,0.0,0.0,0.0,0.0,0.0,0.0,0.0,0.0,0.0,0.0,0.0,0.0,0.0,0.0,0.0,0.0,0.0,0.0,0.0,0.0,0.0,0.0,0.0,0.0,0.0,0.0,0.0,0.0,0.0,0.0,0.0,0.0,0.0,0.0,0.0,0.0,0.0,0.0,0.0,0.0,0.0,0.0,0.0,0.0,0.0,0.0,0.0,0.0,0.0,0.0,0.0,0.0,0.0,0.0,0.0,0.0,0.0,-1.7304,-1.5812,-1.4503,0.0,0.0,0.0,0.0,0.0,0.0,0.0,0.0,0.0,0.0,0.0,0.0,0.0,0.0,0.0,0.0,0.0,0.0,0.0,0.0,0.0,0.0,0.0,0.0,0.0,0.0,0.0,0.0,0.0,0.0,0.0,0.0,0.0,0.0,0.0,0.0,0.0,0.0,0.0,0.0,0.0,0.0,0.0,0.0,0.0,0.0,0.0,0.0,0.0,0.0,0.0,0.0,0.0,0.0,0.0,0.0,0.0,0.0,0.0,0.0,0.0,0.0,0.0,0.0,0.0,0.0,0.0,0.0,0.0,0.0,0.0,0.0,0.0,0.0,0.0,0.0,0.0,0.0,0.0,0.0,0.0,0.0,0.0,0.0,0.0,0.0,0.0,0.0,0.0,0.0,0.0,0.0,0.0,0.0,0.0,0.0,0.0,0.0,0.0,0.0,0.0,0.0,0.0,0.0,0.0,0.0,0.0,0.0,0.0,0.0,-1.7491,0.0,-1.7247,-1.5561,-1.4306,-1.3594,0.0,0.0,0.0,0.0,0.0,0.0,0.0,0.0,0.0,0.0,0.0,0.0,0.0,0.0,0.0,0.0,0.0,0.0,0.0,0.0,0.0,0.0,0.0,0.0,0.0,0.0,0.0,0.0,0.0,0.0,0.0,0.0,0.0,0.0,0.0,0.0,0.0,0.0,0.0,0.0,0.0,0.0,0.0,0.0,0.0,0.0,0.0,0.0,0.0,0.0,0.0,0.0,0.0,0.0,0.0,0.0,0.0,0.0,0.0,0.0,0.0,0.0,0.0,0.0,0.0,0.0,0.0,0.0,0.0,0.0,0.0,0.0,0.0,0.0,0.0,0.0,0.0,0.0,0.0,0.0,0.0,0.0,0.0,0.0,0.0,0.0,0.0,0.0,0.0,0.0,0.0,0.0,0.0,0.0,0.0,0.0,0.0,0.0,0.0,0.0,0.0,0.0,0.0,0.0,0.0,0.0,0.0,0.0,0.0,-1.7146,-1.7304,-1.7308,-1.6887,-1.5902,0.0,0.0,0.0,0.0,0.0,0.0,0.0,0.0,0.0,0.0,0.0,0.0,0.0,0.0,0.0,0.0,0.0,0.0,0.0,0.0,0.0,0.0,0.0,0.0,0.0,0.0,0.0,0.0,0.0,0.0,0.0,0.0,0.0,0.0,0.0,0.0,0.0,0.0,0.0,0.0,0.0,0.0,0.0,0.0,0.0,0.0,0.0,0.0,0.0,0.0,0.0,0.0,0.0,0.0,0.0,0.0,0.0,0.0,0.0,0.0,0.0,0.0,0.0,0.0,0.0,0.0,0.0,0.0,0.0,0.0,0.0,0.0,0.0,0.0,0.0,0.0,0.0,0.0,0.0,0.0,0.0,0.0,0.0,0.0,0.0,0.0,0.0,0.0,0.0,0.0,0.0,0.0,0.0,0.0,0.0,0.0,0.0,0.0,0.0,0.0,0.0,0.0,0.0,0.0,0.0,0.0,0.0,0.0,0.0,-1.7061,-1.7591,-1.7777,-1.7535,-1.6236,-1.5031,0.0,0.0,0.0,0.0,0.0,0.0,0.0,0.0,0.0,0.0,0.0,0.0,0.0,0.0,0.0,0.0,0.0,0.0,0.0,0.0,0.0,0.0,0.0,0.0,0.0,0.0,0.0,0.0,0.0,0.0,0.0,0.0,0.0,0.0,0.0,0.0,0.0,0.0,0.0,0.0,0.0,0.0,0.0,0.0,0.0,0.0,0.0,0.0,0.0,0.0,0.0,0.0,0.0,0.0,0.0,0.0,0.0,0.0,0.0,0.0,0.0,0.0,0.0,0.0,0.0,0.0,0.0,0.0,0.0,0.0,0.0,0.0,0.0,0.0,0.0,0.0,0.0,0.0,0.0,0.0,0.0,0.0,0.0,0.0,0.0,0.0,0.0,0.0,0.0,0.0,0.0,0.0,0.0,0.0,0.0,0.0,0.0,0.0,0.0,0.0,0.0,0.0,0.0,0.0,0.0,0.0,0.0,0.0,0.0,-1.7363,0.0,-1.8253,0.0,-1.6262,-1.4928,0.0,0.0,0.0,0.0,0.0,0.0,0.0,0.0,0.0,0.0,0.0,0.0,0.0,0.0,0.0,0.0,0.0,0.0,0.0,0.0,0.0,0.0,0.0,0.0,0.0,0.0,0.0,0.0,0.0,0.0,0.0,0.0,0.0,0.0,0.0,0.0,0.0,0.0,0.0,0.0,0.0,0.0,0.0,0.0,0.0,0.0,0.0,0.0,0.0,0.0,0.0,0.0,0.0,0.0,0.0,0.0,0.0,0.0,0.0,0.0,0.0,0.0,0.0,0.0,0.0,0.0,0.0,0.0,0.0,0.0,0.0,0.0,0.0,0.0,0.0,0.0,0.0,0.0,0.0,0.0,0.0,0.0,0.0,0.0,0.0,0.0,0.0,0.0,0.0,0.0,0.0,0.0,0.0,0.0,0.0,0.0,0.0,0.0,0.0,0.0,0.0,0.0,0.0,0.0,0.0,0.0,0.0,0.0,-1.6793,-1.7687,-1.8418,-1.8735,-1.8586,-1.7129,-1.5828,0.0,0.0,0.0,0.0,0.0,0.0,0.0,0.0,0.0,0.0,0.0,0.0,0.0,0.0,0.0,0.0,0.0,0.0,0.0,0.0,0.0,0.0,0.0,0.0,0.0,0.0,0.0,0.0,0.0,0.0,0.0,0.0,0.0,0.0,0.0,0.0,0.0,0.0,0.0,0.0,0.0,0.0,0.0,0.0,0.0,0.0,0.0,0.0,0.0,0.0,0.0,0.0,0.0,0.0,0.0,0.0,0.0,0.0,0.0,0.0,0.0,0.0,0.0,0.0,0.0,0.0,0.0,0.0,0.0,0.0,0.0,0.0,0.0,0.0,0.0,0.0,0.0,0.0,0.0,0.0,0.0,0.0,0.0,0.0,0.0,0.0,0.0,0.0,0.0,0.0,0.0,0.0,0.0,0.0,0.0,0.0,0.0,0.0,0.0,0.0,0.0,0.0,0.0,0.0,0.0,0.0,0.0,0.0,0.0,-1.8436,-1.8893,-1.9151,-1.9103,-1.7131,-1.5599,0.0,0.0,0.0,0.0,0.0,0.0,0.0,0.0,0.0,0.0,0.0,0.0,0.0,0.0,0.0,0.0,0.0,0.0,0.0,0.0,0.0,0.0,0.0,0.0,0.0,0.0,0.0,0.0,0.0,0.0,0.0,0.0,0.0,0.0,0.0,0.0,0.0,0.0,0.0,0.0,0.0,0.0,0.0,0.0,0.0,0.0,0.0,0.0,0.0,0.0,0.0,0.0,0.0,0.0,0.0,0.0,0.0,0.0,0.0,0.0,0.0,0.0,0.0,0.0,0.0,0.0,0.0,0.0,0.0,0.0,0.0,0.0,0.0,0.0,0.0,0.0,0.0,0.0,0.0,0.0,0.0,0.0,0.0,0.0,0.0,0.0,0.0,0.0,0.0,0.0,0.0,0.0,0.0,0.0,0.0,0.0,0.0,0.0,0.0,0.0,0.0,0.0,0.0,0.0,0.0,0.0,0.0,0.0,0.0,-1.8669,-1.9244,-1.9543,-1.9587,-1.7461,-1.5857,-1.4828,0.0,0.0,0.0,0.0,0.0,0.0,0.0,0.0,0.0,0.0,0.0,0.0,0.0,0.0,0.0,0.0,0.0,0.0,0.0,0.0,0.0,0.0,0.0,0.0,0.0,0.0,0.0,0.0,0.0,0.0,0.0,0.0,0.0,0.0,0.0,0.0,0.0,0.0,0.0,0.0,0.0,0.0,0.0,0.0,0.0,0.0,0.0,0.0,0.0,0.0,0.0,0.0,0.0,0.0,0.0,0.0,0.0,0.0,0.0,0.0,0.0,0.0,0.0,0.0,0.0,0.0,0.0,0.0,0.0,0.0,0.0,0.0,0.0,0.0,0.0,0.0,0.0,0.0,0.0,0.0,0.0,0.0,0.0,0.0,0.0,0.0,0.0,0.0,0.0,0.0,0.0,0.0,0.0,0.0,0.0,0.0,0.0,0.0,0.0,0.0,0.0,0.0,0.0,0.0,0.0,0.0,0.0,0.0,-1.8535,-1.9426,-1.9888,-1.9888,-1.8097,-1.6581,0.0,0.0,0.0,0.0,0.0,0.0,0.0,0.0,0.0,0.0,0.0,0.0,0.0,0.0,0.0,0.0,0.0,0.0,0.0,0.0,0.0,0.0,0.0,0.0,0.0,0.0,0.0,0.0,0.0,0.0,0.0,0.0,0.0,0.0,0.0,0.0,0.0,0.0,0.0,0.0,0.0,0.0,0.0,0.0,0.0,0.0,0.0,0.0,0.0,0.0,0.0,0.0,0.0,0.0,0.0,0.0,0.0,0.0,0.0,0.0,0.0,0.0,0.0,0.0,0.0,0.0,0.0,0.0,0.0,0.0,0.0,0.0,0.0,0.0,0.0,0.0,0.0,0.0,0.0,0.0,0.0,0.0,0.0,0.0,0.0,0.0,0.0,0.0,0.0,0.0,0.0,0.0,0.0,0.0,0.0,0.0,0.0,0.0,0.0,0.0,0.0,0.0,0.0,0.0,0.0,0.0,0.0,0.0,0.0,-1.9045,-1.9434,-1.9807,-2.0159,-1.8923,-1.7639,0.0,0.0,0.0,0.0,0.0,0.0,0.0,0.0,0.0,0.0,0.0,0.0,0.0,0.0,0.0,0.0,0.0,0.0,0.0,0.0,0.0,0.0,0.0,0.0,0.0,0.0,0.0,0.0,0.0,0.0,0.0,0.0,0.0,0.0,0.0,0.0,0.0,0.0,0.0,0.0,0.0,0.0,0.0,0.0,0.0,0.0,0.0,0.0,0.0,0.0,0.0,0.0,0.0,0.0,0.0,0.0,0.0,0.0,0.0,0.0,0.0,0.0,0.0,0.0,0.0,0.0,0.0,0.0,0.0,0.0,0.0,0.0,0.0,0.0,0.0,0.0,0.0,0.0,0.0,0.0,0.0,0.0,0.0,0.0,0.0,0.0,0.0,0.0,0.0,0.0,0.0,0.0,0.0,0.0,0.0,0.0,0.0,0.0,0.0,0.0,0.0,0.0,0.0,0.0,0.0,0.0,0.0,0.0,-1.7687,-1.8665,-1.9147,-1.9689,-2.0199,-1.9348,-1.8229,0.0,0.0,0.0,0.0,0.0,0.0,0.0,0.0,0.0,0.0,0.0,0.0,0.0,0.0,0.0,0.0,0.0,0.0,0.0,0.0,0.0,0.0,0.0,0.0,0.0,0.0,0.0,0.0,0.0,0.0,0.0,0.0,0.0,0.0,0.0,0.0,0.0,0.0,0.0,0.0,0.0,0.0,0.0,0.0,0.0,0.0,0.0,0.0,0.0,0.0,0.0,0.0,0.0,0.0,0.0,0.0,0.0,0.0,0.0,0.0,0.0,0.0,0.0,0.0,0.0,0.0,0.0,0.0,0.0,0.0,0.0,0.0,0.0,0.0,0.0,0.0,0.0,0.0,0.0,0.0,0.0,0.0,0.0,0.0,0.0,0.0,0.0,0.0,0.0,0.0,0.0,0.0,0.0,0.0,0.0,0.0,0.0,0.0,0.0,0.0,0.0,0.0,0.0,0.0,0.0,0.0,0.0,0.0,-1.7337,-1.7876,-1.878,-1.9524,-2.0022,-1.95,-1.8578,0.0,0.0,0.0,0.0,0.0,0.0,0.0,0.0,0.0,0.0,0.0,0.0,0.0,0.0,0.0,0.0,0.0,0.0,0.0,0.0,0.0,0.0,0.0,0.0,0.0,0.0,0.0,0.0,0.0,0.0,0.0,0.0,0.0,0.0,0.0,0.0,0.0,0.0,0.0,0.0,0.0,0.0,0.0,0.0,0.0,0.0,0.0,0.0,0.0,0.0,0.0,0.0,0.0,0.0,0.0,0.0,0.0,0.0,0.0,0.0,0.0,0.0,0.0,0.0,0.0,0.0,0.0,0.0,0.0,0.0,0.0,0.0,0.0,0.0,0.0,0.0,0.0,0.0,0.0,0.0,0.0,0.0,0.0,0.0,0.0,0.0,0.0,0.0,0.0,0.0,0.0,0.0,0.0,0.0,0.0,0.0,0.0,0.0,0.0,0.0,0.0,0.0,0.0,0.0,0.0,0.0,0.0,0.0,-1.7048,-1.8312,-1.8732,-1.9217,-1.9861,-1.9882,-1.9248,0.0,0.0,0.0,0.0,0.0,0.0,0.0,0.0,0.0,0.0,0.0,0.0,0.0,0.0,0.0,0.0,0.0,0.0,0.0,0.0,0.0,0.0,0.0,0.0,0.0,0.0,0.0,0.0,0.0,0.0,0.0,0.0,0.0,0.0,0.0,0.0,0.0,0.0,0.0,0.0,0.0,0.0,0.0,0.0,0.0,0.0,0.0,0.0,0.6441,0.0,0.0,0.0,0.0,0.0,0.0,0.0,0.0,0.0,0.0,0.0,0.0,0.0,0.0,0.0,0.0,0.0,0.0,0.0,0.0,0.0,0.0,0.0,0.0,0.0,0.0,0.0,0.0,0.0,0.0,0.0,0.0,0.0,0.0,0.0,0.0,0.0,0.0,0.0,0.0,0.0,0.0,0.0,0.0,0.0,0.0,0.0,0.0,0.0,0.0,0.0,0.0,0.0,0.0,0.0,0.0,0.0,0.0,0.0,-1.657,-1.784,-1.8135,-1.8681,-1.9471,-1.9624,-1.9244,0.0,0.0,0.0,0.0,0.0,0.0,0.0,0.0,0.0,0.0,0.0,0.0,0.0,0.0,0.0,0.0,0.0,0.0,0.0,0.0,0.0,0.0,0.0,0.0,0.0,0.0,0.0,0.0,0.0,0.0,0.0,0.0,0.0,0.0,0.0,0.0,0.0,0.0,0.0,0.0,0.0,0.0,0.0,0.0,0.0,0.0,0.0,0.0,0.0,0.0,0.0,0.0,0.0,0.0,0.0,0.0,0.0,0.0,0.0,0.0,0.0,0.0,0.0,0.0,0.0,0.0,0.0,0.0,0.0,0.0,0.0,0.0,0.0,0.0,0.0,0.0,0.0,0.0,0.0,0.0,0.0,0.0,0.0,0.0,0.0,0.0,0.0,0.0,0.0,0.0,0.0,0.0,0.0,0.0,0.0,0.0,0.0,0.0,0.0,0.0,0.0,0.0,0.0,0.0,0.0,0.0,0.0,-1.5124,-1.6101,-1.7152,-1.7603,-1.826,-1.9167,-1.9216,-1.8971,-1.8455,0.0,0.0,0.0,0.0,0.0,0.0,0.0,0.0,0.0,0.0,0.0,0.0,0.0,0.0,0.0,0.0,0.0,0.0,0.0,0.0,0.0,0.0,0.0,0.0,0.0,0.0,0.0,0.0,0.0,0.0,0.0,0.0,0.0,0.0,0.0,0.0,0.0,0.0,-0.3155,-0.5897,0.0,0.0,0.0,0.0,0.0,0.0,0.0,0.0,0.4194,0.0,0.0,0.0,0.0,0.0,0.0,0.0,0.0,0.0,0.0,0.0,0.0,0.0,0.0,0.0,0.0,0.0,0.0,0.0,0.0,0.0,0.0,0.0,0.0,0.0,0.0,0.0,0.0,0.0,0.0,0.0,0.0,0.0,0.0,0.0,0.0,0.0,0.0,0.0,0.0,0.0,0.0,0.0,0.0,0.0,0.0,0.0,0.0,0.0,0.0,0.0,0.0,0.0,0.0,0.0,0.0,-1.325,-1.474,-1.6068,-1.7164,-1.8028,-1.8699,-1.9175,-1.926,-1.8988,-1.8288,0.0,0.0,0.0,0.0,0.0,0.0,0.0,0.0,0.0,0.0,0.0,0.0,0.0,0.0,0.0,0.0,0.0,0.0,0.0,0.0,0.0,0.0,0.0,0.0,0.0,0.0,0.0,0.0,0.0,0.0,0.0,0.0,0.0,0.0,0.0,0.0,0.0,0.0,0.0,-0.9584,-1.0704,0.0,0.0,0.0,0.0,0.0,0.0,0.0,0.0,0.1333,0.0,0.0,0.0,0.0,0.0,0.0,0.0,0.0,0.0,0.0,0.0,0.0,0.0,0.0,0.0,0.0,0.0,0.0,0.0,0.0,0.0,0.0,0.0,0.0,0.0,0.0,0.0,0.0,0.0,0.0,0.0,0.0,0.0,0.0,0.0,0.0,0.0,0.0,0.0,0.0,0.0,0.0,0.0,0.0,0.0,0.0,0.0,0.0,0.0,0.0,0.0,0.0,0.0,0.0,0.0,-1.3413,-1.4629,-1.5814,-1.6966,-1.7748,-1.837,-1.8868,-1.893,-1.8592,0.0,0.0,0.0,0.0,0.0,0.0,0.0,0.0,0.0,0.0,0.0,0.0,0.0,0.0,0.0,0.0,0.0,0.0,0.0,0.0,0.0,0.0,0.0,0.0,0.0,0.0,0.0,0.0,0.0,0.0,0.0,0.0,0.0,0.0,0.0,0.0,0.0,0.0,0.0,0.0,-1.1467,-1.3001,-1.3241,0.0,0.0,0.0,0.0,0.0,0.0,-0.2757,-0.1976,0.0,0.0,0.0,0.0,0.0,0.0,0.0,0.0,0.0,0.0,0.0,0.0,0.0,0.0,0.0,0.0,0.0,0.0,0.0,0.0,0.0,0.0,0.0,0.0,0.0,0.0,0.0,0.0,0.0,0.0,0.0,0.0,0.0,0.0,0.0,0.0,0.0,0.0,0.0,0.0,0.0,0.0,0.0,0.0,0.0,0.0,0.0,0.0,0.0,0.0,0.0,0.0,0.0,0.0,0.0,-1.3498,-1.45,-1.5548,-1.6641,-1.7349,-1.7885,-1.8279,-1.8422,-1.8034,0.0,0.0,0.0,0.0,0.0,0.0,0.0,0.0,0.0,0.0,0.0,0.0,0.0,0.0,0.0,0.0,0.0,0.0,0.0,0.0,0.0,0.0,0.0,0.0,0.0,0.0,0.0,0.0,0.0,0.0,0.0,0.0,0.0,0.0,0.0,0.0,0.0,0.0,0.0,0.0,0.0,-1.4582,-1.5538,-1.4787,0.0,0.0,0.0,0.0,-0.7489,-0.6456,0.0,0.0,0.0,0.0,0.0,0.0,0.0,0.0,0.0,0.0,0.0,0.0,0.0,0.0,0.0,0.0,0.0,0.0,0.0,0.0,0.0,0.0,0.0,0.0,0.0,0.0,0.0,0.0,0.0,0.0,0.0,0.0,0.0,0.0,0.0,0.0,0.0,0.0,0.0,0.0,0.0,0.0,0.0,0.0,0.0,0.0,0.0,0.0,0.0,0.0,0.0,0.0,0.0,0.0,0.0,0.0,-1.2606,-1.4158,-1.5403,-1.626,-1.7221,-1.755,-1.7288,-1.7845,-1.7367,0.0,0.0,0.0,0.0,0.0,0.0,0.0,0.0,0.0,0.0,0.0,0.0,0.0,0.0,0.0,0.0,0.0,0.0,0.0,0.0,0.0,0.0,0.0,0.0,0.0,0.0,0.0,0.0,0.0,0.0,0.0,0.0,0.0,0.0,0.0,0.0,0.0,0.0,0.0,0.0,0.0,-1.5387,-1.648,-1.6009,-1.5206,0.0,0.0,-1.193,-1.0282,-0.9664,0.0,0.0,0.0,0.0,0.0,0.0,0.0,0.0,0.0,0.0,0.0,0.0,0.0,0.0,0.0,0.0,0.0,0.0,0.0,0.0,0.0,0.0,0.0,0.0,0.0,0.0,0.0,0.0,0.0,0.0,0.0,0.0,0.0,0.0,0.0,0.0,0.0,0.0,0.0,0.0,0.0,0.0,0.0,0.0,0.0,0.0,0.0,0.0,0.0,0.0,0.0,0.0,0.0,0.0,0.0,-1.1395,-1.2413,-1.3843,-1.5006,-1.5859,-1.7056,-1.742,-1.6822,-1.7127,-1.6597,0.0,0.0,0.0,0.0,0.0,0.0,0.0,0.0,0.0,0.0,0.0,0.0,0.0,0.0,0.0,0.0,0.0,0.0,0.0,0.0,0.0,0.0,0.0,0.0,0.0,0.0,0.0,0.0,0.0,0.0,0.0,0.0,0.0,0.0,0.0,0.0,0.0,0.0,0.0,0.0,0.0,0.0,-1.6252,-1.6271,0.0,0.0,0.0,-1.4306,-1.3459,0.0,0.0,0.0,0.0,0.0,0.0,0.0,0.0,0.0,0.0,0.0,0.0,0.0,0.0,0.0,0.0,0.0,0.0,0.0,0.0,0.0,0.0,0.0,0.0,0.0,0.0,0.0,0.0,0.0,0.0,0.0,0.0,0.0,0.0,0.0,0.0,0.0,0.0,0.0,0.0,0.0,0.0,0.0,0.0,0.0,0.0,0.0,0.0,0.0,0.0,0.0,0.0,0.0,0.0,0.0,0.0,0.0,-1.223,-1.34,-1.4475,-1.5432,-1.6588,-1.6933,-1.6409,-1.652,0.0,0.0,0.0,0.0,0.0,0.0,0.0,0.0,0.0,0.0,0.0,0.0,0.0,0.0,0.0,0.0,0.0,0.0,0.0,0.0,0.0,0.0,0.0,0.0,0.0,0.0,0.0,0.0,0.0,0.0,0.0,0.0,0.0,0.0,0.0,0.0,0.0,0.0,0.0,0.0,0.0,0.0,-1.3729,-1.5859,-1.6071,-1.6174,0.0,0.0,-1.5459,-1.5403,-1.3959,-1.2306,0.0,0.0,0.0,0.0,0.0,0.0,0.0,0.0,0.0,0.0,0.0,0.0,0.0,0.0,0.0,0.0,0.0,0.0,0.0,0.0,0.0,0.0,0.0,0.0,0.0,0.0,0.0,0.0,0.0,0.0,0.0,0.0,0.0,0.0,0.0,0.0,0.0,0.0,0.0,0.0,0.0,0.0,0.0,0.0,0.0,0.0,0.0,0.0,0.0,0.0,0.0,0.0,0.0,0.0,0.0,-1.1836,-1.274,-1.3785,-1.4989,-1.549,-1.5745,-1.5763,-1.6129,-1.5582,0.0,0.0,0.0,0.0,0.0,0.0,0.0,0.0,0.0,0.0,0.0,0.0,0.0,0.0,0.0,0.0,0.0,0.0,0.0,0.0,0.0,0.0,0.0,0.0,0.0,0.0,0.0,0.0,0.0,0.0,0.0,0.0,0.0,0.0,0.0,0.0,0.0,0.0,0.0,0.0,0.0,-1.4076,-1.5632,-1.5409,-1.5242,0.0,0.0,-1.4718,-1.507,-1.3637,-1.2218,-1.159,0.0,0.0,0.0,0.0,0.0,0.0,0.0,0.0,0.0,0.0,0.0,0.0,0.0,0.0,0.0,0.0,0.0,0.0,0.0,0.0,0.0,0.0,0.0,0.0,0.0,0.0,0.0,0.0,0.0,0.0,0.0,0.0,0.0,0.0,0.0,0.0,0.0,0.0,0.0,0.0,0.0,0.0,0.0,0.0,0.0,0.0,0.0,0.0,0.0,0.0,0.0,0.0,0.0,-1.0157,-1.13,-1.2194,-1.3048,-1.3818,-1.4733,-1.5151,-1.4971,-1.519,-1.4988,0.0,0.0,0.0,0.0,0.0,0.0,0.0,0.0,0.0,0.0,0.0,0.0,0.0,0.0,0.0,0.0,0.0,0.0,0.0,0.0,0.0,0.0,0.0,0.0,0.0,0.0,0.0,0.0,-0.5482,-0.6004,-0.6462,0.0,0.0,0.0,0.0,0.0,0.0,0.0,0.0,0.0,0.0,-1.3313,-1.4757,-1.4536,0.0,0.0,-1.4961,-1.4607,-1.4883,-1.3757,-1.2565,-1.1796,-1.1234,0.0,0.0,0.0,0.0,0.0,0.0,0.0,0.0,0.0,0.0,0.0,0.0,0.0,0.0,0.0,0.0,0.0,0.0,0.0,0.0,0.0,0.0,0.0,0.0,0.0,0.0,0.0,0.0,0.0,0.0,0.0,0.0,0.0,0.0,0.0,0.0,0.0,0.0,0.0,0.0,0.0,0.0,0.0,0.0,0.0,0.0,0.0,0.0,0.0,0.0,0.0,0.0,-0.9652,-1.0899,-1.1619,-1.2271,-1.2901,-1.3899,-1.4383,-1.4299,-1.4643,-1.4657,0.0,0.0,0.0,0.0,0.0,0.0,0.0,0.0,0.0,0.0,0.0,0.0,0.0,0.0,0.0,0.0,0.0,0.0,0.0,0.0,0.0,0.0,0.0,0.0,0.0,0.0,0.0,0.0,-0.7293,-0.7718,-0.8135,0.0,0.0,0.0,0.0,0.0,0.0,0.0,0.0,0.0,0.0,-1.2641,-1.4024,-1.3743,-1.3826,-1.5038,-1.4746,-1.4501,-1.4941,-1.4101,-1.3168,-1.2519,0.0,0.0,0.0,0.0,0.0,0.0,0.0,0.0,0.0,0.0,0.0,0.0,0.0,0.0,0.0,0.0,0.0,0.0,0.0,0.0,0.0,0.0,0.0,0.0,0.0,0.0,0.0,0.0,0.0,0.0,-1.4675,0.0,0.0,0.0,0.0,0.0,0.0,0.0,0.0,0.0,0.0,0.0,0.0,0.0,0.0,0.0,0.0,0.0,0.0,0.0,0.0,0.0,0.0,0.0,-1.0696,-1.0929,-1.1472,-1.236,-1.2872,-1.3381,-1.3818,-1.4634,-1.4708,-1.3943,0.0,0.0,0.0,0.0,0.0,0.0,0.0,0.0,0.0,0.0,0.0,0.0,0.0,0.0,0.0,0.0,0.0,0.0,0.0,0.0,0.0,0.0,0.0,0.0,0.0,0.0,-0.8967,-0.9129,-0.887,0.0,0.0,0.0,0.0,0.0,0.0,0.0,0.0,0.0,0.0,-1.2278,-1.2232,-1.3661,-1.3055,-1.2965,-1.4396,-1.4247,-1.4354,-1.527,-1.4675,-1.4082,0.0,0.0,0.0,0.0,0.0,0.0,0.0,0.0,0.0,0.0,0.0,0.0,0.0,0.0,0.0,0.0,0.0,0.0,0.0,0.0,0.0,0.0,0.0,0.0,0.0,0.0,0.0,-1.736,-1.6896,0.0,0.0,0.0,0.0,0.0,0.0,0.0,0.0,0.0,0.0,0.0,-1.6068,-1.5899,0.0,0.0,0.0,0.0,0.0,0.0,0.0,0.0,0.0,0.0,0.0,0.0,-0.9096,-0.964,-1.0182,-1.0607,-1.0937,-1.178,-1.2595,-1.3314,-1.3614,-1.3818,-1.3888,0.0,0.0,0.0,0.0,0.0,0.0,0.0,0.0,0.0,0.0,0.0,0.0,0.0,0.0,0.0,0.0,0.0,0.0,0.0,0.0,0.0,0.0,0.0,0.0,0.0,-0.9427,0.0,0.0,0.0,0.0,0.0,0.0,0.0,0.0,0.0,0.0,0.0,-1.0593,-1.1083,-1.1292,-1.1647,-1.2466,-1.2434,-1.2532,0.0,0.0,0.0,0.0,0.0,0.0,0.0,0.0,0.0,0.0,0.0,0.0,0.0,0.0,-0.8476,-0.7906,-0.7104,-0.6371,-0.5979,0.0,0.0,0.0,0.0,0.0,0.0,0.0,0.0,0.0,0.0,0.0,0.0,0.0,0.0,-1.6583,0.0,-1.496,0.0,0.0,0.0,0.0,0.0,0.0,0.0,0.0,-1.3551,-1.3848,-1.4164,-1.4416,-1.4416,0.0,-1.3772,-1.2642,0.0,0.0,0.0,0.0,0.0,0.0,0.0,0.0,-0.8731,-0.8966,-0.9517,-0.9758,-0.9728,-1.0704,-1.1516,-1.2082,-1.2624,-1.3132,-1.3613,-1.332,-1.2549,0.0,0.0,0.0,0.0,0.0,0.0,0.0,0.0,0.0,0.0,0.0,0.0,0.0,0.0,0.0,0.0,0.0,0.0,0.0,0.0,0.0,0.0,0.0,-1.013,0.0,0.0,0.0,0.0,0.0,0.0,0.0,0.0,0.0,-1.0421,-1.0435,-1.0393,-1.0417,-1.0682,-1.1012,-1.1453,0.0,0.0,0.0,0.0,0.0,0.0,0.0,-1.4502,-1.4093,-1.4023,-1.3526,-1.2028,-1.1063,-1.0552,-1.0699,0.0,0.0,-0.8642,-0.8074,-0.7493,-0.6905,-0.6202,-0.5667,-0.5578,-0.4778,-0.4142,0.0,0.0,0.0,0.0,0.0,0.0,0.0,0.0,-1.5332,-1.5311,0.0,-1.4114,0.0,0.0,0.0,0.0,0.0,0.0,0.0,0.0,-1.1447,-1.1677,-1.1751,-1.2363,-1.2324,-1.1702,-1.1702,-1.1398,-1.0822,-1.0771,0.0,0.0,0.0,0.0,0.0,0.0,-0.9002,-0.8695,-0.8944,-0.8954,-0.8732,-0.964,-1.0166,-1.0273,-1.1674,-1.2637,-1.3034,-1.3198,-1.282,-1.183,-1.0805,0.0,0.0,0.0,0.0,0.0,0.0,0.0,0.0,0.0,0.0,0.0,0.0,0.0,0.0,0.0,0.0,0.0,0.0,0.0,0.0,-1.1589,0.0,0.0,0.0,0.0,0.0,0.0,0.0,0.0,0.0,0.0,-0.9971,-1.0408,-1.0737,-1.0704,0.0,0.0,0.0,0.0,-1.1544,-1.2517,-1.326,-1.3895,-1.4438,-1.425,-1.4023,-1.3991,0.0,0.0,-1.0943,-1.0249,-0.9826,-0.9837,-0.9251,-0.894,-0.9191,-0.8903,-0.8499,-0.7898,-0.6969,-0.6309,-0.5937,-0.487,-0.4004,-1.765,0.0,0.0,0.0,0.0,-1.5822,-1.5777,-1.5641,-1.5802,-1.5766,-1.5543,-1.4348,0.0,0.0,0.0,0.0,0.0,0.0,-1.099,-1.0813,-1.0981,-1.1048,-1.1074,-1.1257,-1.1232,-1.1048,-1.1074,-1.0948,-1.0788,-1.032,-1.0082,-1.009,0.0,0.0,0.0,0.0,-0.8462,-0.8183,-0.8386,-0.8393,-0.8139,-0.8768,-0.9471,-1.0176,-1.0966,-1.1615,-1.2157,-1.2468,-1.2377,-1.1739,-1.1345,0.0,0.0,0.0,0.0,0.0,0.0,0.0,0.0,0.0,0.0,0.0,0.0,0.0,0.0,0.0,0.0,0.0,0.0,0.0,-1.0938,-1.0604,-1.0197,0.0,0.0,0.0,0.0,0.0,0.0,0.0,0.0,0.0,-0.7494,-0.861,-0.9361,0.0,0.0,-0.9957,-1.0074,-1.0385,-1.0623,-1.0583,0.0,0.0,0.0,-1.2277,-1.2434,-1.2411,-1.1178,-1.0089,-0.9796,-0.9047,-0.8538,-0.8704,-0.7944,-0.7288,-0.7401,-0.7843,-0.7902,-0.7429,-0.6666,-0.5982,-0.5428,-0.4631,-0.3838,-1.5758,-1.5507,-1.5828,-1.581,-1.5484,-1.4971,-1.4758,-1.4758,-1.4449,-1.4297,-1.4245,-1.3356,-1.2878,-1.2678,-1.1826,0.0,0.0,0.0,-1.0394,-1.0012,-1.002,-1.0012,-1.0012,-1.0012,-0.9825,-0.9603,-0.9876,-0.9714,-0.9141,-0.9013,-0.8817,-0.8567,0.0,0.0,-0.8798,-0.8631,-0.8343,-0.7919,-0.8066,-0.7959,-0.7566,-0.809,-0.8768,-0.9581,-1.006,-1.0483,-1.0855,-1.1701,-1.1919,-1.1419,-1.1513,-1.1123,0.0,0.0,0.0,0.0,0.0,0.0,0.0,0.0,0.0,0.0,0.0,-0.8766,0.0,0.0,0.0,0.0,-1.0168,-1.0261,-1.0389,-1.0038,0.0,0.0,0.0,0.0,0.0,0.0,0.0,-0.6214,-0.6299,-0.6298,-0.596,-0.7008,-0.777,-0.7776,-0.8322,-0.8726,-0.8726,0.0,-0.9706,-0.9406,-1.0018,-1.0525,-1.0548,-1.0707,-1.074,-1.0533,-0.9554,-0.8781,-0.8723,-0.7898,-0.7306,-0.7306,-0.6711,-0.6069,-0.6091,-0.6514,-0.678,-0.6435,-0.5942,-0.5358,-0.4616,-0.3947,-0.3313,-1.3387,-1.3502,-1.5031,-1.5268,-1.4561,-1.3395,-1.291,-1.2846,-1.2134,-1.1817,-1.1789,-1.1724,-1.166,-1.1571,-1.1547,0.0,0.0,-1.0243,-0.9757,-0.8844,-0.8844,-0.8805,-0.8699,-0.8725,-0.8321,-0.7616,-0.8289,-0.7943,-0.6718,-0.7316,-0.7262,-0.6669,-0.7937,-0.8619,-0.8646,-0.8619,-0.8332,-0.7745,-0.7732,-0.7468,-0.6956,-0.751,-0.8098,-0.8635,-0.907,-0.9339,-0.9419,-1.0855,-1.144,-1.0986,-1.141,-1.1438,-1.0839,0.0,0.0,0.0,0.0,0.0,0.0,0.0,0.0,0.0,0.0,0.0,0.0,0.0,0.0,0.0,-1.0534,0.0,-0.9599,-0.9547,0.0,0.0,0.0,-0.7561,-0.7528,-0.6728,-0.5945,-0.5229,0.0,0.0,0.0,0.0,-0.5881,-0.5909,-0.6547,-0.702,-0.702,-0.7947,-0.8627,-0.8559,-0.9081,-0.9512,-0.9398,-0.9202,-0.8877,-0.8465,-0.8021,-0.767,-0.7607,-0.6886,-0.62,-0.6169,-0.5658,-0.5221,-0.5216,-0.5198,-0.5108,-0.5062,-0.4911,-0.4515,-0.3665,-0.3043,-0.2494,-1.3387,-1.3401,-1.3627,-1.3586,-1.3408,-1.3114,-1.2991,-1.2953,-1.2774,-1.2685,-1.2647,-1.2047,-1.1308,-1.0464,-1.0284,-1.0064,-0.983,-0.9823,-0.9581,-0.9118,-0.9104,-0.8714,-0.7969,-0.7969,-0.7563,-0.6912,-0.702,-0.6939,-0.6615,-0.6772,-0.6772,-0.661,-0.6966,-0.7128,-0.7128,-0.7128,-0.6921,-0.6447,-0.6466,-0.644,-0.6416,-0.6943,-0.7482,-0.8057,-0.84,-0.8752,-0.9165,-1.0057,-1.0747,-1.1109,-1.1555,-1.1614,-1.1273,-1.0394,0.0,0.0,0.0,0.0,0.0,0.0,0.0,0.0,0.0,-0.9332,-1.0622,0.0,-0.9066,0.0,-0.8238,-0.7534,-0.7385,-0.7358,0.0,0.0,-0.686,-0.6488,-0.5915,-0.5187,-0.445,-0.3708,-0.3352,-0.3046,-0.2771,-0.2899,-0.3125,-0.3517,-0.518,-0.643,-0.6425,-0.6403,-0.6447,-0.6499,-0.6533,-0.6538,-0.6987,-0.6916,-0.673,-0.6198,-0.6006,-0.5926,-0.592,-0.5712,-0.5524,-0.548,-0.5026,-0.4652,-0.4583,-0.3928,-0.3375,-0.3356,-0.3578,-0.3636,-0.3028,-0.2404,-0.1828,-1.2515,-1.247,-1.2107,-1.1942,-1.1965,-1.2297,-1.2451,-1.2451,-1.2089,-1.1942,-1.188,-1.1055,-1.0309,-0.9706,-0.9174,-0.886,-0.8723,-0.8717,-0.8516,-0.8195,-0.8189,-0.7854,-0.7214,-0.7208,-0.6826,-0.6145,-0.6448,-0.6263,-0.5714,-0.5955,-0.5959,-0.566,-0.566,-0.5664,-0.5687,-0.629,-0.6576,-0.658,-0.6645,-0.6623,-0.6566,-0.7004,-0.7372,-0.7702,-0.7993,-0.8263,-0.8543,-0.919,-0.9811,-1.0381,-1.0832,-1.1097,-1.1103,-1.0524,-0.9962,0.0,0.0,0.0,0.0,0.0,0.0,0.0,0.0,0.0,0.0,0.0,-0.7797,0.0,0.0,0.0,-0.6588,-0.6588,-0.6588,-0.6588,-0.5953,-0.5348,-0.4942,-0.3884,-0.3055,-0.2663,-0.2253,-0.2008,-0.1925,-0.1925,-0.2006,-0.229,-0.3405,-0.4521,-0.5251,-0.5442,-0.5529,-0.5524,-0.5406,-0.5384,-0.5711,-0.5754,-0.5647,-0.5367,-0.5308,-0.5308,-0.5308,-0.5065,-0.4826,-0.4535,-0.4033,-0.3551,-0.3284,-0.278,-0.2317,-0.2271,-0.2087,-0.193,-0.1893,-0.1425,-0.0825,-1.1463,-1.1376,-1.0874,-1.0626,-1.0649,-1.1351,-1.1648,-1.1586,-1.0895,-1.053,-1.0371,-0.953,-0.9139,-0.9069,-0.8355,-0.7819,-0.7549,-0.7575,-0.7355,-0.6966,-0.6959,-0.6778,-0.6492,-0.649,-0.6091,-0.5406,-0.6009,-0.5719,-0.4546,-0.5085,-0.5081,-0.4515,-0.4491,-0.4491,-0.4543,-0.5714,-0.6548,-0.6985,-0.7183,-0.7165,-0.6967,-0.7346,-0.7567,-0.7558,-0.7799,-0.7965,-0.7989,-0.8464,-0.8936,-0.9447,-0.9904,-1.0352,-1.0746,-1.0082,-0.9651,0.0,-0.8942,0.0,0.0,0.0,0.0,0.0,0.0,0.0,0.0,-0.7213,-0.6475,-0.6448,-0.6367,-0.6285,-0.6204,-0.6177,-0.6145,-0.6005,-0.4879,-0.4082,-0.4049,-0.2769,-0.1862,-0.1862,-0.1686,-0.1552,-0.1525,-0.1584,-0.1559,-0.1677,-0.1779,-0.2431,-0.3745,-0.4418,-0.4684,-0.4853,-0.486,-0.4596,-0.4661,-0.4752,-0.4752,-0.4795,-0.4687,-0.4865,-0.4735,-0.4339,-0.388,-0.3391,-0.2934,-0.245,-0.1895,-0.1786,-0.1652,-0.1539,-0.0712,-0.0223,-0.0624,-0.0245,0.0379,-1.165,-1.1355,-1.1056,-1.0807,-1.0624,-1.0769,-1.0839,-1.08,-1.0649,-1.0206,-0.9492,-0.8613,-0.8221,-0.8221,-0.8091,-0.7969,-0.7928,-0.7896,-0.7728,-0.7374,-0.7285,-0.6764,-0.5969,-0.5811,-0.5355,-0.4732,-0.4814,-0.4763,-0.4519,-0.4625,-0.4625,-0.4491,-0.4491,-0.4491,0.0,0.0,0.0,0.0,-0.5791,-0.6225,-0.6681,-0.7428,-0.7819,-0.7832,-0.813,0.0,-0.8328,-0.8612,-0.909,-0.9698,-0.9819,0.0,0.0,0.0,0.0,0.0,0.0,0.0,0.0,0.0,0.0,0.0,-0.6249,-0.6222,-0.6897,-0.6195,-0.5706,-0.5706,-0.5222,-0.4618,-0.4006,-0.392,-0.3671,-0.3083,-0.2692,-0.2456,-0.2412,-0.1647,-0.1109,-0.1083,-0.0677,0.0,0.0,-0.0327,-0.0554,-0.0987,-0.1058,-0.1402,-0.2166,-0.2453,-0.2516,-0.2467,-0.2645,-0.2534,-0.2446,-0.2556,-0.2686,-0.247,-0.247,-0.2534,-0.2578,-0.249,-0.2337,-0.216,-0.2049,-0.194,-0.1762,-0.1407,-0.0848,-0.0446,0.0245,0.0536,0.0,0.0713,0.1493,-1.1784,0.0,-1.1329,-1.0842,0.0,-1.0242,-0.9965,-0.9548,-0.9826,-0.9454,-0.8613,-0.7735,-0.734,-0.734,-0.692,-0.6728,-0.6732,-0.6728,-0.6561,-0.6312,-0.6189,-0.58,-0.5254,-0.5083,-0.4814,-0.4519,-0.4491,-0.4491,-0.4491,-0.4491,-0.4491,-0.4491,-0.4491,-0.4491,-0.4487,-0.4392,-0.4567,-0.4984,-0.5623,-0.603,-0.6244,-0.711,-0.7622,-0.7628,0.0,0.0,0.0,0.0,0.0,0.0,0.0,0.0,0.0,0.0,0.0,-0.7635,-0.7009,-0.6588,-0.6588,-0.6258,-0.5923,-0.5529,-0.4488,-0.4189,-0.4964,-0.4299,-0.3859,-0.3859,-0.3561,-0.3204,-0.2813,-0.2732,-0.2591,-0.2228,-0.1815,-0.1544,-0.1489,-0.0889,-0.0466,-0.0414,-0.0208,0.0,0.0,0.0,0.0,-0.0399,-0.0452,-0.0554,-0.0904,-0.1428,-0.1801,-0.1798,-0.1806,-0.1806,-0.1806,-0.1806,-0.1784,-0.1806,-0.1806,-0.1806,-0.1806,-0.1806,-0.1719,-0.1429,-0.1115,-0.0846,-0.0468,0.0022,0.0535,0.0869,0.1382,0.1695,0.14,0.1825,0.2251,-1.1696,-1.1588,-1.1144,-1.0443,-0.9626,-0.9626,-0.9069,-0.8203,0.0,0.0,0.0,-0.6885,-0.6482,-0.6473,-0.5734,-0.5395,-0.5395,-0.5395,-0.5291,-0.5165,-0.502,-0.4891,-0.4762,-0.4614,-0.4528,-0.4528,-0.4529,-0.4491,-0.4491,-0.4491,-0.4491,-0.4491,-0.4491,-0.4491,-0.4481,-0.4345,-0.4518,-0.4977,-0.5669,-0.598,-0.5888,-0.6735,-0.7181,-0.7175,-0.7986,-0.8395,-0.8407,-0.8427,-0.8129,-0.753,-0.7503,-0.7235,-0.6642,-0.6475,-0.6394,-0.6399,-0.6317,-0.6182,-0.6041,-0.546,-0.4792,-0.407,-0.2781,-0.2341,-0.3123,-0.2593,-0.2204,-0.2204,-0.2204,-0.2176,-0.2037,-0.2009,-0.187,-0.1646,-0.1088,-0.0663,-0.051,0.0,0.0429,0.0376,0.0456,0.0,0.0,0.0,0.0392,0.042,0.0473,0.0387,0.024,-0.0628,-0.1354,-0.1372,-0.1318,-0.1423,-0.1453,-0.1429,-0.1474,-0.1385,-0.1407,-0.1451,-0.1361,-0.1316,-0.1071,-0.0424,0.0,0.0446,0.0938,0.134,0.1828,0.194,0.2342,0.2741,0.2829,0.294,0.3025,-1.0827,-1.0551,-0.9563,-0.8964,-0.8614,-0.8609,-0.8087,-0.7305,-0.7267,-0.7228,-0.7154,-0.6071,-0.5631,-0.5751,-0.5487,-0.5395,-0.5395,-0.5395,-0.5382,0.0,-0.5172,-0.5059,-0.5022,-0.4789,-0.466,-0.465,-0.4556,-0.4491,-0.4491,-0.4491,-0.4491,-0.4491,-0.4491,-0.4491,-0.4487,-0.447,-0.4484,-0.459,-0.5145,-0.5672,-0.6146,-0.6497,-0.6704,-0.6699,-0.6838,-0.6912,-0.6912,-0.6912,-0.6858,-0.675,-0.675,-0.6696,-0.6588,-0.5955,-0.5651,-0.562,-0.5113,-0.4508,-0.3895,-0.3702,-0.3284,-0.2561,-0.1729,-0.1563,-0.2287,-0.2259,-0.2204,-0.2204,-0.2122,-0.1925,-0.134,-0.1231,-0.0729,0.0364,0.0699,0.1003,0.155,0.1713,0.1796,0.1768,0.1912,0.1828,0.1756,0.1786,0.1758,0.1842,0.1647,0.1792,0.1547,0.0667,-0.0148,-0.0239,-0.026,-0.0257,-0.025,-0.0247,-0.0247,-0.0269,-0.0247,-0.009,0.0291,0.0358,0.058,0.125,0.1382,0.1538,0.1695,0.1739,0.2095,0.2472,0.2741,0.294,0.3391,0.3803,0.4142,-0.9905,-0.9733,-0.9283,-0.8667,-0.8033,-0.752,-0.7047,-0.6663,-0.6498,-0.6416,-0.6354,-0.5867,-0.5596,-0.5583,-0.5549,-0.5474,-0.5395,-0.5395,-0.5395,-0.5382,-0.517,-0.51,-0.5079,-0.4884,-0.4816,-0.4809,-0.4745,-0.4667,-0.4592,-0.4585,-0.4569,-0.4467,-0.4098,-0.4098,-0.4432,-0.4098,-0.4098,-0.4491,-0.4745,-0.5,-0.529,-0.5743,-0.6009,-0.6009,-0.6362,-0.6588,-0.6588,-0.6588,-0.6426,-0.6009,-0.6009,-0.5651,-0.4851,-0.447,-0.4137,-0.3718,-0.3423,-0.3121,-0.276,-0.2356,-0.1977,-0.1607,-0.0935,-0.065,-0.0973,-0.0999,-0.1006,-0.1008,-0.1023,-0.0862,-0.0518,-0.0088,0.0471,0.112,0.1596,0.2008,0.2259,0.2254,0.2204,0.2204,0.2204,0.2204,0.2204,0.2204,0.2204,0.2204,0.2204,0.2215,0.2238,0.1695,0.1169,0.1116,0.1094,0.1087,0.1069,0.1088,0.1088,0.1087,0.1087,0.1167,0.1373,0.1386,0.1518,0.1763,0.203,0.2275,0.2295,0.2586,0.2879,0.3081,0.3473,0.3737,0.4045,0.4722,0.5329,-0.8955,-0.896,-0.8732,-0.8161,-0.7403,-0.6641,-0.63,-0.6286,-0.6166,-0.6017,-0.5905,-0.5837,-0.5759,-0.5691,-0.5654,-0.5555,-0.546,-0.5446,-0.5426,-0.5385,-0.524,-0.515,-0.5165,-0.5033,-0.4938,-0.4897,-0.4721,-0.455,-0.4454,-0.4236,-0.4068,-0.394,-0.3396,-0.3439,-0.3943,-0.3413,-0.3428,-0.3959,-0.3987,-0.4157,-0.4491,-0.5003,-0.5273,-0.5324,-0.5819,-0.6122,-0.6122,-0.5955,-0.5597,-0.5046,-0.4851,-0.422,-0.3146,-0.3065,-0.2785,-0.2259,-0.2204,-0.2128,-0.1919,-0.1273,-0.0855,-0.0832,-0.0334,0.0093,0.0276,0.0295,0.0201,0.0057,0.0147,0.0297,0.0418,0.109,0.1661,0.1874,0.2409,0.2875,0.3014,0.2896,0.2823,0.2797,0.2823,0.2851,0.277,0.2763,0.2811,0.2822,0.2732,0.273,0.2732,0.2732,0.2655,0.2469,0.2265,0.1992,0.2052,0.1999,0.1997,0.2021,0.1997,0.1986,0.2003,0.2061,0.2138,0.2266,0.2588,0.2854,0.2943,0.3236,0.3553,0.3726,0.4045,0.443,0.4822,0.548,0.6136,-0.7931,-0.7783,-0.7022,-0.6528,-0.6451,-0.6338,-0.63,-0.6296,-0.6282,-0.6272,-0.6214,-0.5928,-0.5878,-0.5959,-0.584,-0.5705,-0.5572,-0.5603,-0.5498,-0.5379,-0.5382,-0.5375,-0.5259,-0.5118,-0.5079,-0.4905,-0.4145,-0.3727,-0.3641,-0.2901,-0.247,-0.2427,-0.2338,-0.2363,-0.2443,-0.2352,-0.2345,-0.24,-0.2413,-0.3075,-0.4415,-0.457,-0.4598,-0.4601,-0.4653,-0.468,-0.466,-0.4009,-0.3591,-0.3453,-0.2899,-0.2482,-0.2313,-0.2315,-0.2259,-0.2148,-0.2178,-0.1921,-0.1252,-0.0499,-0.0119,-0.0092,-0.0031,0.0402,0.1081,0.1196,0.0825,0.0398,0.0766,0.1165,0.1226,0.2032,0.2784,0.3285,0.3567,0.3917,0.443,0.4672,0.4662,0.4662,0.4447,0.4584,0.4313,0.4259,0.4295,0.4076,0.4039,0.403,0.4015,0.4039,0.3999,0.3743,0.3042,0.235,0.2298,0.2201,0.2353,0.2303,0.2228,0.2434,0.2702,0.2825,0.29,0.3104,0.3366,0.344,0.3475,0.3604,0.3814,0.4248,0.4516,0.4792,0.568,0.6157,0.6264,-0.6911,-0.6872,-0.6451,-0.63,-0.63,-0.63,-0.63,-0.63,-0.63,-0.63,-0.6286,-0.6166,-0.6057,-0.599,-0.5925,-0.5857,-0.5715,-0.563,-0.5256,-0.4726,-0.4594,-0.4322,-0.3825,-0.3732,-0.3682,-0.365,-0.3249,-0.3045,-0.287,-0.2448,-0.2213,-0.2148,-0.179,-0.178,-0.2138,-0.1786,-0.1746,-0.2188,-0.2186,-0.2515,-0.3069,-0.316,-0.313,-0.3121,-0.3156,-0.3154,-0.3121,-0.2813,-0.2642,-0.2642,-0.2355,-0.1994,-0.1592,-0.1563,-0.1368,-0.0952,-0.0884,-0.076,-0.0483,-0.0154,0.0219,0.0728,0.0772,0.1166,0.2006,0.2135,0.1942,0.1713,0.1914,0.2112,0.2211,0.2945,0.3591,0.3907,0.4302,0.4697,0.4946,0.4938,0.4918,0.4918,0.4918,0.4904,0.4843,0.483,0.4762,0.4662,0.4624,0.46,0.4518,0.4491,0.4467,0.4338,0.3878,0.358,0.3404,0.3376,0.335,0.3376,0.3405,0.3513,0.3452,0.3559,0.3631,0.3815,0.3866,0.3866,0.3805,0.4258,0.4581,0.4916,0.5473,0.5936,0.6551,0.6668,0.6689,-0.63,-0.63,-0.63,-0.63,-0.63,-0.63,-0.63,-0.63,-0.63,-0.63,-0.63,-0.63,-0.6043,-0.5717,-0.594,-0.5854,-0.5455,-0.5325,-0.4769,-0.3862,-0.3666,-0.3285,-0.271,-0.268,-0.2678,-0.2644,-0.2441,-0.2154,-0.1854,-0.166,-0.1607,-0.1512,-0.1065,-0.106,-0.1461,-0.1021,-0.1046,-0.1537,-0.1611,-0.1619,-0.1582,-0.1614,-0.1799,-0.2136,-0.2206,-0.2204,-0.2194,-0.199,-0.1901,-0.1901,-0.1694,-0.1354,-0.0864,-0.0805,-0.0575,-0.0058,0.0235,0.0363,0.0343,0.0605,0.1001,0.1595,0.1735,0.2126,0.2855,0.3155,0.3305,0.3482,0.3542,0.3511,0.3156,0.3866,0.4348,0.4414,0.4889,0.5196,0.5154,0.5098,0.505,0.504,0.507,0.502,0.4979,0.4938,0.486,0.4775,0.4752,0.4754,0.4638,0.4593,0.4556,0.4549,0.4494,0.4392,0.4328,0.4197,0.4281,0.4281,0.4201,0.4121,0.4095,0.4062,0.4232,0.4308,0.4278,0.4496,0.4804,0.5193,0.5527,0.576,0.6274,0.6846,0.7069,0.7072,0.7076,-0.63,-0.63,-0.6303,-0.6317,-0.6303,-0.6313,-0.6306,-0.633,-0.6313,-0.631,-0.6232,-0.6229,-0.5705,-0.483,-0.5645,-0.5622,-0.467,-0.4529,-0.3886,-0.2876,-0.2755,-0.2717,-0.2681,-0.268,-0.2649,-0.2395,-0.1722,-0.0978,-0.0269,0.0,-0.0101,0.0,0.0,0.0,0.0,0.0,0.0,0.0,0.0,0.0,0.0,0.0,-0.0822,-0.1942,-0.214,-0.2074,-0.2054,-0.1504,-0.1136,-0.1136,-0.0554,0.0,0.0,-0.0061,0.0,0.0092,0.0799,0.1246,0.1343,0.1965,0.2505,0.2667,0.2742,0.3138,0.39,0.4201,0.4615,0.5344,0.531,0.5022,0.4255,0.4718,0.5232,0.5259,0.5339,0.5399,0.5392,0.5392,0.5378,0.5361,0.5341,0.5247,0.5103,0.4972,0.4921,0.4914,0.4877,0.486,0.4847,0.4755,0.4691,0.4685,0.461,0.4494,0.4512,0.4447,0.4457,0.4587,0.4606,0.4531,0.4337,0.4275,0.4601,0.4889,0.5044,0.5372,0.5898,0.6253,0.6479,0.6755,0.7084,0.7494,0.7459,0.7214,0.7298,-0.6354,-0.6446,-0.6542,-0.6542,-0.6542,-0.6542,-0.6542,-0.6542,-0.6542,-0.612,-0.5487,-0.5396,-0.4757,-0.3709,-0.41,-0.4003,-0.3619,-0.3493,-0.2951,-0.2047,-0.1864,-0.1518,-0.0989,-0.0966,-0.099,-0.0919,-0.0637,-0.0318,0.0,0.0,0.0,0.0,0.0,0.0,0.0,0.0,0.0,0.0,0.0,0.0,0.0,0.0,-0.0264,-0.0749,-0.0786,-0.0808,-0.0792,-0.0508,-0.0413,-0.0381,0.0,0.0,0.0,0.0524,0.084,0.0917,0.1676,0.2209,0.2238,0.2584,0.3059,0.3609,0.3804,0.4237,0.4994,0.527,0.5451,0.5674,0.5762,0.5516,0.5361,0.5462,0.5678,0.5675,0.564,0.563,0.5678,0.564,0.5613,0.5552,0.5463,0.5368,0.5294,0.5266,0.5165,0.5042,0.5053,0.4988,0.4908,0.4867,0.4866,0.4833,0.4822,0.4954,0.5586,0.4896,0.4598,0.4972,0.5175,0.5467,0.5453,0.5517,0.5808,0.5911,0.5998,0.6139,0.6642,0.703,0.7293,0.766,0.7999,0.7839,0.7802,0.7772,0.7952,-0.6497,-0.6552,-0.6658,-0.6702,-0.6702,-0.6702,-0.6702,-0.6657,-0.628,-0.5647,-0.492,-0.4503,-0.3689,-0.2758,-0.2619,-0.2372,-0.217,-0.2317,-0.1967,-0.1132,-0.0939,-0.0558,0.0,0.0,0.0,0.0,0.0,0.0,0.0,0.0,0.0,0.0,0.0,0.0,0.0,0.0,0.0,0.0,0.0,0.0,0.0,0.0,0.0,0.0,0.0,0.0,0.0,0.0,0.0,0.0,0.0,0.013,0.0,0.1267,0.1755,0.1854,0.2661,0.3189,0.3254,0.3585,0.4097,0.4669,0.4878,0.5274,0.5745,0.5891,0.5922,0.5898,0.5928,0.5949,0.5949,0.5949,0.5911,0.583,0.58,0.58,0.58,0.5796,0.5752,0.5667,0.5617,0.5535,0.5477,0.5467,0.5392,0.5226,0.5174,0.5155,0.5084,0.5261,0.5382,0.5406,0.5711,0.6053,0.6436,0.6116,0.5756,0.6039,0.5959,0.6269,0.6547,0.6673,0.6825,0.6896,0.6993,0.7101,0.7348,0.7756,0.8083,0.8428,0.8375,0.8156,0.828,0.8518,0.8699,-0.6698,-0.6705,-0.6705,-0.6732,-0.6742,-0.6617,-0.6677,-0.6399,-0.5427,-0.4799,-0.436,-0.3602,-0.259,-0.1748,-0.1596,-0.1056,-0.0567,-0.1192,-0.1061,0.0,0.0,0.0,0.0,0.0,0.0,0.0,0.0,0.0,0.0,0.0,0.0,0.0,0.0,0.0,0.0,0.0,0.0,0.0,0.0,0.0,0.0,0.0,0.0,0.0,0.0,0.0,0.0,0.0,0.0,0.0,0.0,0.0,0.1333,0.2199,0.2709,0.2854,0.3671,0.4144,0.4338,0.5074,0.5512,0.5679,0.5835,0.5868,0.5885,0.6074,0.6166,0.6078,0.6142,0.6269,0.6259,0.6252,0.6156,0.5874,0.5861,0.5861,0.584,0.5813,0.5803,0.5796,0.5769,0.5728,0.5668,0.5762,0.5802,0.5825,0.5815,0.5848,0.591,0.6254,0.639,0.6532,0.6781,0.7141,0.736,0.7497,0.7338,0.7214,0.6954,0.6967,0.7235,0.7433,0.758,0.7693,0.7714,0.7821,0.8023,0.8374,0.8427,0.8664,0.853,0.8563,0.8799,0.907,0.9416,-0.6858,-0.6871,-0.692,-0.696,-0.6874,-0.617,-0.5822,-0.5689,-0.4509,-0.3518,-0.2791,-0.2357,-0.1575,-0.0716,-0.0501,0.0,-0.0042,-0.033,0.0,0.0,0.0,0.0,0.0,0.0,0.0,0.0,0.0,0.0,0.0,0.0,0.0,0.0,0.0,0.0,0.0,0.0,0.0,0.0,0.0,0.0,0.0,0.0,0.0,0.0,0.0,0.0325,0.1032,0.1101,0.1101,0.1099,0.1673,0.2087,0.2397,0.3205,0.3719,0.3831,0.4696,0.5303,0.5354,0.5649,0.5959,0.5986,0.6101,0.6162,0.6166,0.6238,0.6282,0.619,0.6272,0.63,0.63,0.63,0.6259,0.6166,0.6156,0.6101,0.6115,0.6017,0.5969,0.5945,0.5867,0.6065,0.6588,0.6749,0.6997,0.7479,0.7594,0.7599,0.7683,0.7626,0.7796,0.7838,0.8024,0.8231,0.8542,0.8661,0.8555,0.8392,0.8126,0.7875,0.8093,0.8209,0.8349,0.8431,0.8467,0.8544,0.8765,0.8851,0.8925,0.8825,0.8731,0.8937,0.9314,0.9665,0.9995,-0.6743,-0.6359,-0.6439,-0.6201,-0.5753,-0.4999,-0.4732,-0.4552,-0.3438,-0.2484,-0.1845,-0.1317,-0.0742,0.0,0.0,0.0,0.0,0.0,0.0,0.0,0.0,0.0,0.0,0.0,0.0,0.0,0.0,0.0,0.0,0.0,0.0,0.0,0.0,0.0,0.0,0.0,0.0,0.0,0.0,0.0,0.0,0.0,0.0187,0.0,0.0,0.1122,0.2093,0.2502,0.2554,0.2402,0.2997,0.3404,0.3457,0.4244,0.4777,0.4944,0.5395,0.5851,0.5901,0.599,0.6115,0.6132,0.6207,0.6296,0.6306,0.6334,0.6378,0.6378,0.6439,0.6467,0.6427,0.6427,0.6463,0.6463,0.6351,0.631,0.6282,0.6214,0.6122,0.6173,0.6369,0.6789,0.7194,0.7852,0.8132,0.872,0.8789,0.8789,0.8833,0.8907,0.899,0.9113,0.9323,0.9533,0.9833,0.9837,0.9724,0.9559,0.9379,0.9147,0.9147,0.9089,0.9173,0.9132,0.9138,0.9103,0.9279,0.9245,0.9245,0.9098,0.9032,0.9196,0.9553,1.0197,1.0632,-0.6381,-0.545,-0.5314,-0.4732,-0.3792,-0.3571,-0.3525,-0.3304,-0.2236,-0.1656,-0.1386,-0.0582,0.0,0.0,0.0,0.0,0.0,0.0,0.0,0.0,0.0,0.0,0.0,0.0,0.0,0.0,0.0,0.0,0.0,0.0,0.0,0.0,0.0,0.0,0.0,0.0,0.0,0.0,0.0,0.0,0.0,0.0,0.0703,0.1638,0.1714,0.214,0.314,0.4067,0.4228,0.352,0.4181,0.4563,0.4704,0.5365,0.5705,0.5676,0.5922,0.6027,0.6074,0.6156,0.6289,0.6306,0.632,0.6323,0.6375,0.643,0.6525,0.6535,0.6593,0.6668,0.6668,0.6664,0.6664,0.6654,0.6487,0.6344,0.6303,0.6289,0.6272,0.643,0.7122,0.7791,0.7751,0.8607,0.9098,0.9305,0.9357,0.945,0.9539,0.9956,1.0136,1.0299,1.0429,1.0463,1.0599,1.0568,1.0451,1.0242,1.014,1.0029,0.985,0.978,0.9633,0.9619,0.9639,0.9653,0.9648,0.9554,0.9615,0.9653,0.9604,0.9566,1.0124,1.1014,1.1567,-0.5669,-0.5314,-0.4463,-0.3883,-0.3481,-0.268,-0.2281,-0.2102,-0.1031,0.0,0.0,-0.0135,0.0,0.0,0.0,0.0,0.0,0.0,0.0,0.0,0.0,0.0,0.0,0.0,0.0,0.0,0.0,0.0,0.0,0.0,0.0,0.0,0.0,0.0,0.0,0.0,0.0,0.0,0.0863,0.1176,0.1293,0.1878,0.2383,0.2618,0.2698,0.3246,0.4258,0.5315,0.5711,0.5321,0.5445,0.5542,0.5475,0.5765,0.5969,0.5993,0.6105,0.6196,0.6203,0.6276,0.6347,0.6446,0.6453,0.6508,0.658,0.6617,0.6641,0.6647,0.6688,0.6712,0.6709,0.6715,0.6712,0.6678,0.662,0.6548,0.6422,0.63,0.63,0.6412,0.7296,0.8134,0.8872,0.9691,1.052,1.101,1.116,1.1154,1.1014,1.0999,1.1172,1.1237,1.1322,1.1259,1.1235,1.1195,1.1096,1.0856,1.0723,1.0609,1.0374,1.014,0.992,0.974,0.9813,0.9876,0.9775,0.9704,0.9887,1.035,1.0503,1.0652,1.168,1.2592,1.2813,-0.4376,-0.384,-0.3126,-0.2549,-0.2057,-0.1344,-0.1031,-0.0897,0.0,0.0,0.0,0.0,0.0,0.0,0.0,0.0,0.0,0.0,0.0,0.0,0.0,0.0,0.0,0.0,0.0,0.0,0.0,0.0,0.0,0.0,0.0,0.0,0.0,0.0,0.0,0.0565,0.0722,0.0918,0.1749,0.2334,0.231,0.2773,0.3359,0.3641,0.3857,0.436,0.5396,0.6126,0.6349,0.6183,0.6122,0.6081,0.6013,0.6071,0.6125,0.6132,0.6255,0.6296,0.6313,0.6347,0.6422,0.6508,0.6519,0.6607,0.6688,0.6753,0.6797,0.6797,0.6844,0.6839,0.6885,0.6885,0.6854,0.6846,0.7165,0.7326,0.7208,0.724,0.7387,0.7809,0.8585,0.9344,0.996,1.0795,1.1589,1.2063,1.2061,1.2104,1.2128,1.2124,1.2024,1.1937,1.1824,1.1677,1.1557,1.1496,1.141,1.1223,1.1089,1.1002,1.0735,1.0492,1.0356,1.0161,1.0097,1.017,1.0354,1.0592,1.099,1.1363,1.1519,1.1914,1.2789,1.3424,1.3734,-0.2769,-0.179,-0.1657,-0.0986,0.0,0.0,0.0,0.0,0.0,0.0,0.0,0.0,0.0,0.0,0.0,0.0,0.0,0.0,0.0,0.0,0.0,0.0,0.0,0.0,0.0,0.0,0.0,0.0,0.0,0.0,0.0,0.0,0.0,0.0,0.0,0.1086,0.1658,0.1756,0.2885,0.3467,0.3463,0.3728,0.4288,0.4857,0.5034,0.5479,0.6199,0.6631,0.6566,0.6361,0.6344,0.6351,0.6344,0.6347,0.6354,0.6322,0.6381,0.6381,0.6375,0.6487,0.6515,0.6566,0.6671,0.6736,0.679,0.6888,0.6906,0.6949,0.7024,0.7048,0.7055,0.7075,0.7014,0.7052,0.7823,0.8337,0.8628,0.8591,0.89,0.9656,1.0567,1.1029,1.1224,1.1676,1.2365,1.2377,1.2398,1.2305,1.2305,1.2238,1.2204,1.2204,1.2078,1.1973,1.1824,1.173,1.1623,1.149,1.1363,1.1223,1.0955,1.0767,1.0782,1.0762,1.0853,1.1196,1.1677,1.1943,1.2199,1.2462,1.2714,1.298,1.3366,1.383,1.4203,-0.2058,-0.1701,-0.0762,-0.0225,0.0,0.0,0.0,0.0,0.0,0.0,0.0,0.0,0.0,0.0,0.0,0.0,0.0,0.0,0.0,0.0,0.0,0.0,0.0,0.0,0.0,0.0,0.0,0.0,0.0,0.0,0.0,0.0,0.0,0.0,0.0,0.1267,0.18,0.2082,0.3697,0.4678,0.4854,0.5377,0.5837,0.6141,0.6217,0.6356,0.6572,0.6685,0.6668,0.662,0.6603,0.66,0.6576,0.662,0.6576,0.6573,0.6586,0.6593,0.661,0.6627,0.6702,0.6797,0.6844,0.6886,0.6994,0.7011,0.7045,0.7051,0.7082,0.7095,0.7095,0.7095,0.7163,0.7257,0.7596,0.8403,0.9615,0.9912,0.9897,1.0356,1.1056,1.1589,1.1551,1.2197,1.2603,1.2632,1.2536,1.2345,1.2318,1.2331,1.2305,1.2305,1.2245,1.2141,1.2071,1.1977,1.1891,1.179,1.1677,1.159,1.1316,1.1327,1.1455,1.1546,1.1648,1.2142,1.2787,1.2962,1.3119,1.3502,1.3927,1.4245,1.4512,1.4706,1.4783,-0.0987,-0.0896,-0.0269,0.0,0.0,0.0,0.0,0.0,0.0,0.0,0.0,0.0,0.0,0.0,0.0,0.0,0.0,0.0,0.0,0.0,0.0,0.0,0.0,0.0,0.0,0.0,0.0,0.0,0.0,0.0,0.0,0.0,0.0,0.0,0.0,0.1727,0.2536,0.2983,0.4758,0.5927,0.5993,0.636,0.6753,0.6793,0.6807,0.6807,0.6807,0.6878,0.6822,0.6798,0.6861,0.6831,0.6722,0.6702,0.6702,0.6702,0.6702,0.6702,0.6702,0.677,0.6841,0.6926,0.6983,0.7014,0.7075,0.7095,0.7095,0.7095,0.7095,0.7095,0.7095,0.7095,0.7272,0.7969,0.8448,0.9527,1.0823,1.0816,1.088,1.1513,1.2332,1.25,1.2671,1.287,1.2882,1.2946,1.2744,1.2552,1.2472,1.2465,1.2331,1.2305,1.2305,1.2278,1.2278,1.2231,1.2178,1.2098,1.2017,1.1977,1.1864,1.202,1.2251,1.2398,1.2595,1.3272,1.3845,1.3958,1.4259,1.4818,1.526,1.5556,1.5714,1.5726,1.5785,0.0,0.0,0.0,0.0,0.0,0.0,0.0,0.0,0.0,0.0,0.0,0.0,0.0,0.0,0.0,0.0,0.0,0.0,0.0,0.0,0.0,0.0,0.0,0.0,0.0,0.0,0.0,0.0,0.0,0.0,0.0,0.0,0.0,0.0,0.0,0.2588,0.3795,0.4006,0.5651,0.6744,0.6694,0.6758,0.6865,0.6893,0.6916,0.6956,0.6933,0.6991,0.7028,0.6937,0.7034,0.695,0.6848,0.6766,0.6766,0.678,0.6803,0.6817,0.6837,0.6852,0.692,0.6927,0.7018,0.7082,0.7095,0.7095,0.7095,0.7095,0.7139,0.7228,0.7316,0.7533,0.8101,0.893,1.0048,1.1037,1.1815,1.1423,1.1843,1.3051,1.3324,1.3307,1.3244,1.3313,1.3267,1.3227,1.2979,1.2817,1.2737,1.267,1.2532,1.2398,1.2405,1.2345,1.2331,1.2472,1.2418,1.2422,1.2375,1.2551,1.2706,1.353,1.3866,1.3502,1.3728,1.4416,1.4957,1.5218,1.5639,1.6177,1.6258,1.6224,1.641,1.6668,1.6658,0.0,0.0,0.0,0.0,0.0,0.0,0.0,0.0,0.0,0.0,0.0,0.0,0.0,0.0,0.0,0.0,0.0,0.0,0.0,0.0,0.0,0.0,0.0,0.0,0.0,0.0,0.0,0.0,0.0,0.0,0.0,0.0,0.1031,0.1478,0.2148,0.3751,0.4903,0.496,0.6283,0.6964,0.7031,0.7024,0.6991,0.7038,0.7034,0.7041,0.7048,0.7075,0.7085,0.7068,0.7085,0.7061,0.7007,0.6991,0.6991,0.7027,0.7021,0.6967,0.6984,0.7021,0.7058,0.7068,0.7095,0.7112,0.7115,0.7115,0.7152,0.718,0.7262,0.7554,0.85,0.8637,0.92,1.0019,1.0656,1.1235,1.204,1.2345,1.2504,1.371,1.3926,1.3955,1.3788,1.3654,1.356,1.35,1.3293,1.3066,1.2919,1.2879,1.2839,1.2685,1.2576,1.2445,1.2358,1.2603,1.2721,1.2747,1.2864,1.3418,1.3944,1.5261,1.5592,1.5001,1.5,1.555,1.6019,1.6354,1.6485,1.6658,1.6719,1.6736,1.6902,1.7048,1.6921,0.0,0.0,0.0,0.0,0.0,0.0,0.0,0.0,0.0,0.0,0.0,0.0,0.0,0.0,0.0,0.0,0.0,0.0,0.0,0.0,0.0,0.0,0.0,0.0,0.0,0.0,0.0,0.0539,0.0,0.0,0.0897,0.1254,0.2147,0.2726,0.3081,0.4421,0.5314,0.5669,0.6473,0.7095,0.7095,0.7095,0.7095,0.7095,0.7098,0.7095,0.7095,0.7095,0.7095,0.7092,0.7095,0.7095,0.7102,0.7105,0.7102,0.7105,0.7105,0.7098,0.7098,0.7098,0.7125,0.7251,0.7261,0.7309,0.7353,0.7344,0.7363,0.7503,0.8129,0.8536,0.9141,0.9826,1.0677,1.1488,1.1839,1.2325,1.2985,1.3268,1.369,1.4083,1.4059,1.4075,1.4041,1.3941,1.3846,1.372,1.3587,1.3387,1.3173,1.316,1.316,1.3019,1.2872,1.2799,1.2712,1.2826,1.2945,1.2968,1.3536,1.4089,1.4851,1.6024,1.6439,1.6219,1.6444,1.6817,1.6848,1.7102,1.7132,1.7158,1.7285,1.735,1.7369,1.7369,1.7262,0.0,0.0,0.0,0.0,0.0,0.0,0.0,0.0,0.0,0.0,0.0,0.0,0.0,0.0,0.0,0.0,0.0,0.0,0.0,0.0,0.0,0.0,0.0,0.0269,0.0,0.0,0.1657,0.1522,0.0942,0.1612,0.2102,0.2503,0.3349,0.3972,0.4285,0.5265,0.5581,0.6027,0.6561,0.7095,0.7095,0.7095,0.7095,0.7109,0.7119,0.718,0.7102,0.7142,0.7156,0.7204,0.7204,0.721,0.7186,0.7189,0.7186,0.7183,0.7159,0.7152,0.7193,0.721,0.7326,0.7407,0.7417,0.7485,0.7536,0.7593,0.771,0.8056,0.8726,0.9804,1.0471,1.1253,1.222,1.2993,1.3442,1.3727,1.4049,1.4282,1.4241,1.4422,1.4282,1.4195,1.4162,1.4075,1.3988,1.3975,1.3808,1.362,1.3487,1.3507,1.348,1.332,1.3253,1.3206,1.3166,1.3173,1.3173,1.3111,1.4103,1.507,1.5777,1.6616,1.696,1.7468,1.7741,1.8031,1.7964,1.7715,1.7617,1.7646,1.7861,1.7891,1.7764,1.7744,1.7715,0.0,0.0,0.0,0.0,0.0,0.0,0.0,0.0,0.0,0.0,0.0,0.0,0.0,0.0,0.0,0.0,0.0,0.0,0.0,0.0,0.0,0.0,0.0,0.0,0.1528,0.1846,0.2827,0.2592,0.2289,0.2962,0.3349,0.3614,0.4508,0.5184,0.5335,0.6145,0.6874,0.6881,0.7023,0.7115,0.7122,0.7125,0.7129,0.7156,0.7261,0.7295,0.7183,0.7285,0.7343,0.7343,0.7388,0.7411,0.7516,0.7546,0.7546,0.7506,0.7448,0.74,0.7489,0.7492,0.7512,0.7556,0.757,0.7584,0.787,0.8117,0.8483,0.9245,0.9634,1.0594,1.2056,1.2837,1.3613,1.4173,1.4592,1.463,1.483,1.4783,1.4823,1.475,1.4673,1.4452,1.4282,1.4175,1.4082,1.4068,1.4035,1.3895,1.3788,1.3788,1.3774,1.3647,1.3547,1.354,1.3756,1.3743,1.3843,1.362,1.496,1.6201,1.6843,1.763,1.8406,1.886,1.9053,1.8809,1.8398,1.8144,1.8037,1.7974,1.8057,1.8037,1.7978,1.8008,1.8027,0.0,0.0,0.0,0.0,0.0,0.0,0.0,0.0,0.0,0.0,0.0,0.0,0.0,0.0,0.0,0.0,0.0,0.0,0.0,0.0,0.0678,0.1033,0.0,0.2263,0.2912,0.3237,0.4087,0.4682,0.4322,0.4289,0.4643,0.4828,0.5722,0.6436,0.6397,0.6998,0.7242,0.7334,0.7407,0.7355,0.74,0.7397,0.7394,0.7351,0.7465,0.7448,0.7428,0.7451,0.7502,0.7499,0.7499,0.7522,0.758,0.7604,0.7621,0.7712,0.7665,0.7617,0.76,0.7607,0.7651,0.7702,0.7822,0.8092,0.8768,0.9552,1.0075,1.0753,1.1594,1.2529,1.3473,1.4263,1.4726,1.516,1.5304,1.5164,1.513,1.5184,1.5164,1.5115,1.5022,1.4841,1.4656,1.4636,1.4516,1.4349,1.4315,1.4208,1.4068,1.3975,1.3961,1.3921,1.3881,1.3861,1.4172,1.4379,1.4885,1.515,1.6668,1.77,1.8076,1.8755,1.939,1.9531,1.9355,1.9072,1.874,1.8545,1.8383,1.8256,1.8139,1.8193,1.8203,1.8076,1.8076,0.0,0.0,0.0,0.0,0.0,0.0,0.0,0.0,0.0,0.0,0.0,0.0,0.0,0.0,0.0,0.0,0.0,0.032,0.046,0.0922,0.1652,0.228,0.2793,0.3602,0.4312,0.4314,0.5575,0.6037,0.6095,0.6061,0.5966,0.5986,0.6663,0.7196,0.7351,0.7431,0.7475,0.7546,0.7563,0.7567,0.7573,0.7577,0.758,0.7597,0.7624,0.7638,0.7607,0.7645,0.7651,0.7651,0.7651,0.7675,0.7733,0.776,0.7787,0.7851,0.7848,0.7821,0.7773,0.7756,0.7773,0.7921,0.84,0.9065,1.032,1.1458,1.2178,1.2271,1.2993,1.3736,1.4453,1.5263,1.5443,1.5518,1.5645,1.5458,1.5324,1.5404,1.5471,1.5431,1.5357,1.5297,1.5197,1.519,1.5023,1.4723,1.4583,1.4502,1.4389,1.4255,1.4202,1.4188,1.4068,1.421,1.4761,1.515,1.5662,1.6501,1.8014,1.8753,1.8837,1.9349,1.9965,1.9912,1.9717,1.9707,1.96,1.9189,1.8763,1.874,1.8662,1.8506,1.8418,1.8301,1.8232,0.0,0.0,0.0,0.0,0.0,0.0,0.0,0.0,0.0,0.0,0.0,0.0,0.0,0.0,0.0,0.0,0.0139,0.1317,0.175,0.2273,0.3123,0.3713,0.4233,0.4897,0.5677,0.5821,0.6688,0.7219,0.7378,0.7199,0.7282,0.752,0.7413,0.75,0.759,0.7611,0.7624,0.7668,0.7665,0.7655,0.7648,0.7641,0.7641,0.7658,0.7723,0.7743,0.7624,0.7736,0.7801,0.7797,0.7801,0.7793,0.786,0.7884,0.7907,0.7921,0.7934,0.7914,0.7891,0.794,0.7991,0.8358,0.928,1.0529,1.1643,1.1848,1.2528,1.359,1.4118,1.4561,1.5194,1.5771,1.5785,1.5772,1.5765,1.5712,1.5611,1.5658,1.5718,1.5752,1.5698,1.5585,1.5565,1.5511,1.5317,1.501,1.4816,1.4774,1.471,1.4603,1.4529,1.4442,1.4255,1.4543,1.5354,1.5891,1.6471,1.7302,1.8524,1.9007,1.9158,1.9779,2.0371,2.04,2.0243,2.038,2.039,1.9834,1.9434,1.9297,1.9141,1.8916,1.8857,1.8838,1.873,0.0,0.0,0.0,0.0,0.0,0.0,0.0,0.0,0.0,0.0,0.0,0.0,0.0,0.0,0.0979,0.1224,0.1412,0.2601,0.3063,0.3645,0.4401,0.4987,0.5564,0.6241,0.7047,0.7113,0.7611,0.782,0.7781,0.7838,0.7816,0.7786,0.7702,0.7678,0.7706,0.7804,0.7845,0.7855,0.781,0.7816,0.7868,0.7872,0.7872,0.7879,0.785,0.788,0.784,0.7874,0.7897,0.7901,0.7897,0.7984,0.8071,0.8084,0.8038,0.8088,0.8088,0.8038,0.8088,0.8137,0.8336,0.9604,1.1063,1.2571,1.3102,1.3734,1.437,1.4949,1.4997,1.5289,1.5581,1.5778,1.5818,1.5825,1.5825,1.5825,1.5825,1.5825,1.5825,1.5798,1.5805,1.5765,1.5772,1.5785,1.5545,1.5297,1.5162,1.5022,1.4983,1.493,1.4836,1.4756,1.4583,1.4907,1.5669,1.648,1.7341,1.8319,1.9246,1.9595,1.997,2.005,2.0556,2.0605,2.0635,2.0595,2.0488,2.0302,2.0019,1.9766,1.9492,1.9219,1.9238,1.9336,1.9238,0.0,0.0,0.0,0.0,0.0,0.0,0.0,0.0,0.0,0.0,0.0,0.0,0.028,0.0797,0.1474,0.2303,0.2835,0.3864,0.4436,0.5083,0.5749,0.6325,0.6786,0.7224,0.7684,0.7857,0.7911,0.7971,0.7958,0.7982,0.7965,0.7897,0.7855,0.7834,0.7875,0.7974,0.7988,0.7988,0.7988,0.7988,0.7978,0.7975,0.7975,0.7965,0.7971,0.7968,0.7955,0.7961,0.7968,0.7971,0.8024,0.823,0.8333,0.8333,0.8233,0.8333,0.8237,0.8137,0.8482,0.8726,0.941,1.1258,1.2517,1.3776,1.4603,1.5289,1.5486,1.5635,1.573,1.5825,1.5825,1.5825,1.5825,1.5825,1.5825,1.5825,1.5825,1.5825,1.5825,1.5818,1.5825,1.5825,1.5825,1.5825,1.5732,1.5558,1.5498,1.5378,1.5344,1.5264,1.5117,1.5037,1.4937,1.5445,1.6014,1.7077,1.8261,1.9781,2.0514,2.0774,2.1012,2.0987,2.084,2.0869,2.085,2.0752,2.0605,2.0458,2.0293,2.0156,1.9922,1.9717,1.9629,1.9707,1.9668,0.0,0.0,0.0,0.0,0.0,0.0,0.0,0.0,0.0,0.0,0.0,0.0,0.0809,0.1671,0.2278,0.3167,0.4103,0.5295,0.5946,0.6283,0.6964,0.769,0.7793,0.7898,0.7938,0.7975,0.7988,0.7988,0.7988,0.7988,0.7988,0.7988,0.7934,0.7928,0.7975,0.7982,0.7988,0.7988,0.7988,0.7988,0.7988,0.7988,0.7988,0.7988,0.7988,0.7988,0.7988,0.7988,0.8088,0.8382,0.8382,0.8775,0.946,0.8676,0.8726,0.9361,0.8482,0.8676,0.9756,0.9899,1.1258,1.2909,1.3878,1.4513,1.5384,1.5825,1.5825,1.5825,1.5825,1.5825,1.5825,1.5825,1.5825,1.5825,1.5825,1.5825,1.5825,1.5825,1.5825,1.5825,1.5825,1.5825,1.5825,1.5825,1.5825,1.5785,1.5812,1.5765,1.5665,1.5937,1.5904,1.6071,1.6084,1.6757,1.7472,1.8049,1.9204,2.0806,2.1651,2.1687,2.167,2.1584,2.1406,2.1239,2.1201,2.1162,2.0928,2.0644,2.0615,2.0635,2.0488,2.0351,2.0185,2.0068,2.0029,0.0,0.0,0.0,0.0,0.0,0.0,0.0,0.0,0.0,0.0,0.0,0.0874,0.1503,0.2339,0.3836,0.4794,0.5452,0.6671,0.7335,0.7385,0.7839,0.7885,0.7988,0.7988,0.7988,0.7988,0.7988,0.7988,0.7988,0.7988,0.7988,0.7988,0.7988,0.7988,0.7988,0.7988,0.7988,0.7988,0.7988,0.7988,0.7988,0.7988,0.7988,0.7988,0.8038,0.8137,0.8187,0.8233,0.8577,0.9069,0.9118,0.9464,0.9903,0.9217,0.9069,0.9019,0.8187,0.9114,1.0823,1.194,1.2856,1.3926,1.4657,1.5194,1.5778,1.5825,1.5825,1.5825,1.5825,1.5825,1.5825,1.5825,1.5825,1.5825,1.5825,1.5825,1.5825,1.5825,1.5825,1.5825,1.5825,1.5825,1.5825,1.5825,1.5825,1.5825,1.5825,1.592,1.594,1.6732,1.7104,1.7459,1.7728,1.835,1.8938,1.9394,1.9844,2.1025,2.1828,2.2087,2.208,2.207,2.1885,2.1689,2.166,2.1611,2.1367,2.1212,2.1172,2.1143,2.0957,2.0723,2.0458,2.04,2.0439,0.0,0.0,0.0,0.0,0.0,0.0,0.0,0.0,0.0,0.0243,0.0839,0.168,0.2666,0.3714,0.5034,0.6457,0.6718,0.7483,0.7988,0.7988,0.7988,0.7988,0.7988,0.7988,0.7988,0.7988,0.7988,0.7988,0.7988,0.7988,0.7988,0.7988,0.7988,0.7988,0.7988,0.7988,0.7988,0.7988,0.7988,0.7988,0.7988,0.7988,0.7988,0.8137,0.8382,0.8779,0.8825,0.9118,0.946,0.9953,1.0051,1.0051,1.0002,0.9509,0.9406,0.9164,1.0043,1.0965,1.242,1.3782,1.4411,1.4698,1.5432,1.573,1.5825,1.5825,1.5825,1.5825,1.5825,1.5825,1.5825,1.5825,1.5825,1.5825,1.5825,1.5825,1.5825,1.5825,1.5825,1.5825,1.5825,1.5825,1.5825,1.5825,1.5825,1.5825,1.5825,1.6103,1.6473,1.7404,1.8234,1.858,1.8932,1.9435,1.9988,2.0517,2.0987,2.1441,2.1964,2.2477,2.2568,2.2559,2.2334,2.2139,2.21,2.2041,2.1894,2.1777,2.167,2.1523,2.1357,2.1045,2.0713,2.0723,2.0791,0.0,0.0,0.0,0.0,0.0,0.0,0.0,0.0,0.0,0.0842,0.196,0.2159,0.3556,0.5518,0.6079,0.6775,0.7617,0.7932,0.7985,0.7988,0.7988,0.7988,0.7988,0.7988,0.7988,0.7988,0.7988,0.7988,0.7988,0.7988,0.7988,0.7988,0.7988,0.7988,0.7988,0.7988,0.7988,0.7988,0.7988,0.7988,0.7988,0.7988,0.7988,0.8233,0.8726,0.9316,0.9706,1.0239,1.044,1.0489,1.0194,1.0149,0.9756,0.892,1.0092,1.1307,1.2764,1.3343,1.3728,1.48,1.5384,1.5432,1.5676,1.5825,1.5825,1.5825,1.5825,1.5825,1.5825,1.5825,1.5825,1.5825,1.5825,1.5825,1.5825,1.5825,1.5825,1.5825,1.5825,1.5825,1.5825,1.5825,1.5825,1.5825,1.6062,1.652,1.6842,1.7615,1.7987,1.8395,1.9177,1.9633,1.9988,2.0395,2.0944,2.1534,2.1861,2.2239,2.248,2.2877,2.2945,2.2959,2.2754,2.2578,2.2539,2.2461,2.2363,2.2207,2.2031,2.1904,2.1846,2.1562,2.124,2.1182,2.1201,0.0,0.0,0.0,0.0,0.0,0.1003,0.0907,0.0151,0.0952,0.1705,0.2113,0.4021,0.5225,0.6029,0.6983,0.7587,0.7839,0.7988,0.7988,0.7988,0.7988,0.7988,0.7988,0.7988,0.7988,0.7988,0.7988,0.7988,0.7988,0.7988,0.7988,0.7988,0.7988,0.7988,0.7988,0.7988,0.7988,0.7988,0.7988,0.7988,0.7988,0.7988,0.7988,0.8233,0.8577,0.9262,1.0145,0.985,1.0141,1.1263,1.1312,1.1365,1.1268,1.1745,1.2764,1.1891,1.2958,1.3878,1.4124,1.5099,1.5825,1.5825,1.5825,1.5825,1.5825,1.5825,1.5825,1.5825,1.5825,1.5825,1.5825,1.5825,1.5825,1.5825,1.5825,1.5825,1.5825,1.5825,1.5825,1.5825,1.5825,1.5825,1.5825,1.6062,1.6386,1.7077,1.7855,1.8718,1.9488,1.9852,2.0223,2.0719,2.1132,2.1587,2.1996,2.2545,2.2721,2.294,2.3047,2.3101,2.3052,2.3013,2.3003,2.2935,2.2808,2.2808,2.2828,2.2685,2.248,2.251,2.2451,2.2129,2.1855,2.1768,2.1641,0.0,0.0,0.0,0.029,0.0991,0.2202,0.2264,0.1812,0.2465,0.3016,0.3718,0.5225,0.6279,0.6883,0.7587,0.7939,0.7988,0.7988,0.7988,0.7988,0.7988,0.7988,0.7988,0.7988,0.7988,0.7988,0.7988,0.7988,0.7988,0.7988,0.7988,0.7988,0.7988,0.7988,0.7988,0.7988,0.7988,0.7988,0.7988,0.7988,0.7988,0.8038,0.7988,0.8184,0.8382,0.9509,1.0583,0.9993,1.1258,1.2474,1.2668,1.2334,1.2334,1.3011,1.3632,1.3054,1.398,1.4657,1.4949,1.5337,1.573,1.5825,1.5825,1.5825,1.5825,1.5825,1.5825,1.5825,1.5825,1.5825,1.5825,1.5825,1.5825,1.5825,1.5825,1.5825,1.5825,1.5825,1.5825,1.5825,1.5825,1.5825,1.5967,1.6251,1.6756,1.7498,1.8449,1.9534,2.044,2.1212,2.1534,2.1952,2.2359,2.2775,2.3101,2.3101,2.3091,2.3047,2.3091,2.3101,2.3101,2.3081,2.3052,2.3062,2.3062,2.3042,2.2994,2.3023,2.2916,2.2906,2.2847,2.2633,2.2402,2.2256,2.2109,0.0,0.0,0.0096,0.1123,0.2408,0.3667,0.4218,0.4316,0.4416,0.4922,0.5777,0.6079,0.6883,0.7637,0.7988,0.7988,0.7988,0.7988,0.7988,0.7988,0.7988,0.7988,0.7988,0.7988,0.7988,0.7988,0.7988,0.7988,0.7988,0.7988,0.7988,0.7988,0.7988,0.7988,0.7988,0.7988,0.7988,0.7988,0.7988,0.7988,0.8088,0.8088,0.8187,0.8478,0.946,1.073,1.194,1.2861,1.3782,1.3824,1.368,1.3151,1.3349,1.3499,1.3974,1.4316,1.5003,1.5337,1.5486,1.573,1.573,1.5825,1.5825,1.5825,1.5825,1.5825,1.5825,1.5825,1.5825,1.5825,1.5825,1.5825,1.5825,1.5825,1.5825,1.5825,1.5825,1.5825,1.5825,1.5825,1.5825,1.5825,1.6008,1.6339,1.7444,1.8048,1.9085,2.0305,2.1212,2.2217,2.2492,2.2818,2.296,2.3101,2.3101,2.3101,2.3101,2.3091,2.3101,2.3101,2.3101,2.3101,2.3101,2.3101,2.3101,2.3101,2.3081,2.3081,2.3081,2.3052,2.3023,2.3062,2.2916,2.2705,2.2588,0.0,0.0,0.1081,0.2845,0.4922,0.5375,0.6126,0.703,0.7027,0.6578,0.6279,0.7033,0.7637,0.7939,0.7988,0.7988,0.7988,0.7988,0.7988,0.7988,0.7988,0.7988,0.7988,0.7988,0.7988,0.7988,0.7988,0.7988,0.7988,0.7988,0.7988,0.7988,0.7988,0.7988,0.7988,0.7988,0.7988,0.7988,0.8233,0.8233,0.8233,0.9069,0.9558,0.9899,1.0779,1.194,1.2716,1.2673,1.3295,1.3632,1.3824,1.4172,1.486,1.5146,1.5296,1.5391,1.5588,1.573,1.5825,1.5825,1.5825,1.5825,1.5825,1.5825,1.5825,1.5825,1.5825,1.5825,1.5825,1.5825,1.5825,1.5825,1.5825,1.5825,1.5825,1.5825,1.5825,1.5825,1.5825,1.5825,1.5825,1.6008,1.6197,1.6976,1.7994,1.9039,2.0169,2.1257,2.2041,2.2818,2.2765,2.3003,2.3003,2.3101,2.3101,2.3101,2.3101,2.3101,2.3101,2.3101,2.3101,2.3101,2.3101,2.3101,2.3101,2.3101,2.3101,2.3091,2.3091,2.3101,2.3101,2.3101,2.3101,2.2906,2.2896,0.088,0.1147,0.297,0.4622,0.5927,0.6631,0.7335,0.7889,0.7988,0.7587,0.7033,0.7637,0.7988,0.7988,0.7988,0.7988,0.7988,0.7988,0.7988,0.7988,0.7988,0.7988,0.7988,0.7988,0.7988,0.7988,0.7988,0.7988,0.7988,0.7988,0.7988,0.7988,0.7988,0.7988,0.7988,0.7988,0.8038,0.8038,0.8528,0.8871,0.892,0.9657,1.0435,1.0877,1.1653,1.2764,1.3247,1.3204,1.3782,1.4364,1.48,1.4997,1.5486,1.5635,1.573,1.573,1.5778,1.5825,1.5825,1.5825,1.5832,1.5845,1.5838,1.5845,1.5825,1.5825,1.5825,1.5825,1.5825,1.5825,1.5825,1.5825,1.5825,1.5825,1.5825,1.5825,1.5825,1.5825,1.5825,1.5825,1.615,1.6897,1.7444,1.8794,1.967,2.0215,2.1346,2.2008,2.2788,2.3247,2.3208,2.3149,2.3179,2.313,2.3101,2.3101,2.3101,2.3101,2.3101,2.3101,2.3101,2.3101,2.3101,2.3101,2.3101,2.3101,2.3101,2.3101,2.3101,2.3101,2.3101,2.3101,2.3101,2.3101,2.3052,0.2338,0.2874,0.5001,0.6132,0.6431,0.7487,0.7988,0.7988,0.7988,0.7988,0.7889,0.7939,0.7988,0.7988,0.7988,0.7988,0.7988,0.7988,0.7988,0.7988,0.7988,0.7988,0.7988,0.7988,0.7988,0.7988,0.7988,0.7988,0.7988,0.7988,0.7988,0.7988,0.7988,0.7988,0.8038,0.8237,0.8432,0.8825,0.946,1.0288,1.0435,1.0485,1.1312,1.1896,1.2382,1.3011,1.3782,1.4316,1.4902,1.5194,1.5581,1.5635,1.573,1.5825,1.5825,1.5825,1.5825,1.5825,1.5825,1.5825,1.5818,1.5844,1.5885,1.5905,1.5919,1.5952,1.5959,1.5959,1.5959,1.5939,1.5945,1.5965,1.5965,1.5965,1.5965,1.5965,1.5959,1.5959,1.5959,1.5952,1.6585,1.7428,1.8644,2.0032,2.0951,2.1535,2.2206,2.283,2.3325,2.35,2.3578,2.3496,2.3418,2.333,2.314,2.3101,2.3101,2.3101,2.3101,2.3101,2.3101,2.3101,2.3101,2.3101,2.3101,2.3101,2.3101,2.3101,2.3101,2.3101,2.3101,2.3101,2.3101,2.3101,2.3101,0.4141,0.5257,0.5827,0.6581,0.7537,0.7889,0.7988,0.7988,0.7988,0.7988,0.7988,0.7988,0.7988,0.7988,0.7988,0.7988,0.7988,0.7988,0.7988,0.7988,0.7988,0.7988,0.7988,0.7988,0.7988,0.7988,0.7988,0.7988,0.7988,0.7988,0.7988,0.7988,0.8088,0.8137,0.8283,0.8726,0.9657,0.9998,1.0823,1.1843,1.2759,1.3,1.3199,1.383,1.4513,1.5003,1.5391,1.5439,1.5588,1.573,1.5825,1.5825,1.5825,1.5825,1.5825,1.5825,1.5825,1.5865,1.5872,1.5892,1.5904,1.6179,1.6213,1.6279,1.6333,1.644,1.644,1.6453,1.6433,1.6366,1.6373,1.6426,1.6446,1.6446,1.6446,1.644,1.644,1.644,1.644,1.6506,1.6808,1.7729,1.8824,2.0165,2.1408,2.2144,2.3254,2.3803,2.389,2.3975,2.3994,2.3838,2.3682,2.3408,2.3179,2.311,2.3101,2.3101,2.3101,2.3101,2.3101,2.3101,2.3101,2.3101,2.3101,2.3101,2.3101,2.3101,2.3101,2.3101,2.3101,2.3101,2.3101,2.3101,2.3101]},{"header":{"parameterUnit":"m.s-1","parameterCategory":1,"la1":31.0,"la2":29.5877,"lo1":-88.7671,"lo2":-86.6584,"dy":0.0162,"dx":0.0185,"nx":115,"ny":88,"refTime":"2026-03-17T12:00:00:Z","depth":0,"parameterNumber":3,"parameterNumberName":"V-component_of_WINDS"},"data":[0.0,0.0,0.0,0.0,0.0,0.0,0.0,0.0,0.0,0.0,0.0,0.0,0.0,0.0,0.0,0.0,0.0,0.0,0.0,0.0,0.0,0.0,0.0,0.0,0.0,0.0,0.0,0.0,0.0,0.0,0.0,0.0,0.0,0.0,0.0,0.0,0.0,0.0,0.0,0.0,0.0,0.0,0.0,0.0,0.0,0.0,0.0,0.0,0.0,0.0,0.0,0.0,0.0,0.0,0.0,0.0,0.0,0.0,0.0,0.0,0.0,0.0,0.0,0.0,0.0,0.0,0.0,0.0,0.0,0.0,0.0,0.0,0.0,0.0,0.0,0.0,0.0,0.0,0.0,0.0,0.0,0.0,0.0,0.0,0.0,0.0,0.0,0.0,0.0,0.0,0.0,0.0,0.0,0.0,0.0,0.0,0.0,0.0,0.0,0.0,0.0,0.0,0.0,0.0,0.0,0.0,0.0,0.0,0.0,0.0,0.0,0.0,0.0,0.0,0.0,0.0,0.0,0.0,0.0,0.0,0.0,0.0,0.0,0.0,0.0,0.0,0.0,0.0,0.0,0.0,0.0,0.0,0.0,0.0,0.0,0.0,0.0,0.0,0.0,0.0,0.0,0.0,0.0,0.0,0.0,0.0,0.0,0.0,0.0,0.0,0.0,0.0,0.0,0.0,0.0,0.0,0.0,0.0,0.0,0.0,0.0,0.0,0.0,0.0,0.0,0.0,0.0,0.0,0.0,0.0,0.0,0.0,0.0,0.0,0.0,0.0,0.0,0.0,0.0,0.0,0.0,0.0,0.0,0.0,0.0,0.0,0.0,0.0,0.0,0.0,0.0,0.0,0.0,0.0,0.0,0.0,0.0,0.0,0.0,0.0,0.0,0.0,0.0,0.0,0.0,0.0,0.0,0.0,0.0,0.0,0.0,0.0,0.0,0.0,0.0,0.0,0.0,0.0,0.0,0.0,0.0,0.0,0.0,0.0,0.0,0.0,0.0,0.0,0.0,0.0,0.0,0.0,0.0,0.0,0.0,0.0,0.0,0.0,0.0,0.0,0.0,0.0,0.0,0.0,0.0,0.0,0.0,0.0,0.0,0.0,0.0,0.0,0.0,0.0,0.0,0.0,0.0,0.0,0.0,0.0,0.0,0.0,0.0,0.0,0.0,0.0,0.0,0.0,0.0,0.0,0.0,0.0,0.0,0.0,0.0,0.0,0.0,0.0,0.0,0.0,0.0,0.0,0.0,0.0,0.0,0.0,0.0,0.0,0.0,0.0,0.0,0.0,0.0,0.0,0.0,0.0,0.0,0.0,0.0,0.0,0.0,0.0,0.0,0.0,0.0,0.0,0.0,0.0,0.0,0.0,0.0,0.0,0.0,0.0,0.0,0.0,0.0,0.0,0.0,0.0,0.0,0.0,0.0,0.0,0.0,0.0,0.0,0.0,0.0,0.0,0.0,0.0,0.0,0.0,0.0,0.0,0.0,0.0,0.0,0.0,0.0,0.0,0.0,0.0,0.0,0.0,0.0,0.0,0.0,0.0,0.0,0.0,0.0,0.0,0.0,0.0,0.0,0.0,0.0,0.0,0.0,0.0,0.0,0.0,0.0,0.0,0.0,0.0,0.0,0.0,0.0,0.0,0.0,0.0,0.0,0.0,0.0,0.0,0.0,0.0,0.0,0.0,0.0,0.0,0.0,0.0,0.0,0.0,0.0,0.0,0.0,0.0,0.0,0.0,0.0,0.0,0.0,0.0,0.0,0.0,0.0,0.0,0.0,0.0,0.0,0.0,0.0,0.0,0.0,0.0,0.0,0.0,0.0,0.0,0.0,0.0,0.0,0.0,0.0,0.0,0.0,0.0,0.0,0.0,0.0,0.0,0.0,0.0,0.0,0.0,0.0,0.0,0.0,0.0,0.0,0.0,0.0,0.0,0.0,0.0,0.0,0.0,0.0,0.0,0.0,0.0,0.0,0.0,0.0,0.0,0.0,0.0,0.0,0.0,0.0,0.0,0.0,0.0,0.0,0.0,0.0,0.0,0.0,0.0,0.0,0.0,0.0,0.0,0.0,0.0,0.0,0.0,0.0,0.0,0.0,0.0,0.0,0.0,0.0,0.0,0.0,0.0,0.0,0.0,0.0,0.0,0.0,0.0,0.0,0.0,0.0,0.0,0.0,0.0,0.0,0.0,0.0,0.0,0.0,0.0,0.0,0.0,0.0,0.0,0.0,0.0,0.0,0.0,0.0,0.0,0.0,0.0,0.0,0.0,0.0,0.0,0.0,0.0,0.0,0.0,0.0,0.0,0.0,0.0,0.0,0.0,0.0,0.0,0.0,0.0,0.0,0.0,0.0,0.0,0.0,0.0,0.0,0.0,0.0,0.0,0.0,0.0,0.0,0.0,0.0,0.0,0.0,0.0,0.0,0.0,0.0,0.0,0.0,0.0,0.0,0.0,0.0,0.0,0.0,0.0,0.0,0.0,0.0,0.0,0.0,0.0,0.0,0.0,0.0,0.0,0.0,0.0,0.0,0.0,0.0,0.0,0.0,0.0,0.0,0.0,0.0,0.0,0.0,0.0,0.0,0.0,0.0,0.0,0.0,0.0,0.0,0.0,0.0,0.0,0.0,0.0,0.0,0.0,0.0,0.0,0.0,0.0,0.0,0.0,0.0,0.0,0.0,0.0,0.0,0.0,0.0,0.0,0.0,0.0,0.0,0.0,0.0,0.0,0.0,0.0,0.0,0.0,0.0,0.0,0.0,0.0,0.0,0.0,0.0,0.0,0.0,0.0,0.0,0.0,0.0,0.0,0.0,0.0,0.0,0.0,0.0,0.0,0.0,0.0,0.0,0.0,0.0,0.0,0.0,0.0,0.0,0.0,0.0,0.0,0.0,0.0,0.0,0.0,0.0,0.0,0.0,0.0,0.0,0.0,0.0,0.0,0.0,0.0,0.0,0.0,0.0,0.0,0.0,0.0,0.0,0.0,0.0,0.0,0.0,0.0,0.0,0.0,0.0,0.0,0.0,0.0,0.0,0.0,0.0,0.0,0.0,0.0,0.0,0.0,0.0,0.0,0.0,0.0,0.0,0.0,0.0,0.0,0.0,0.0,0.0,0.0,0.0,0.0,0.0,0.0,0.0,0.0,0.0,0.0,0.0,0.0,0.0,0.0,0.0,0.0,0.0,0.0,0.0,0.0,0.0,0.0,0.0,0.0,0.0,0.0,0.0,0.0,0.0,0.0,0.0,0.0,0.0,0.0,0.0,0.0,0.0,0.0,0.0,0.0,0.0,0.0,0.0,0.0,0.0,0.0,0.0,0.0,0.0,0.0,0.0,0.0,0.0,0.0,0.0,0.0,0.0,0.0,0.0,0.0,0.0,0.0,0.0,0.0,0.0,0.0,0.0,0.0,0.0,0.0,0.0,0.0,0.0,0.0,0.0,0.0,0.0,0.0,0.0,0.0,0.0,0.0,0.0,0.0,0.0,0.0,0.0,0.0,0.0,0.0,0.0,0.0,0.0,0.0,0.0,0.0,0.0,0.0,0.0,0.0,0.0,0.0,0.0,0.0,0.0,0.0,0.0,0.0,0.0,0.0,0.0,0.0,0.0,0.0,0.0,0.0,0.0,0.0,0.0,0.0,0.0,0.0,0.0,0.0,0.0,0.0,0.0,0.0,0.0,0.0,0.0,0.0,0.0,0.0,0.0,0.0,0.0,0.0,0.0,0.0,0.0,0.0,0.0,0.0,0.0,0.0,0.0,0.0,0.0,0.0,0.0,0.0,0.0,0.0,0.0,0.0,0.0,0.0,0.0,0.0,0.0,0.0,0.0,0.0,0.0,0.0,0.0,0.0,0.0,0.0,0.0,0.0,0.0,0.0,0.0,0.0,0.0,0.0,0.0,0.0,0.0,0.0,0.0,0.0,0.0,0.0,0.0,0.0,0.0,0.0,0.0,0.0,0.0,0.0,0.0,0.0,0.0,0.0,0.0,0.0,0.0,0.0,0.0,0.0,0.0,0.0,0.0,0.0,0.0,0.0,0.0,0.0,0.0,0.0,0.0,0.0,0.0,0.0,0.0,0.0,0.0,0.0,0.0,0.0,0.0,0.0,0.0,0.0,0.0,0.0,0.0,0.0,0.0,0.0,0.0,0.0,0.0,0.0,0.0,0.0,0.0,0.0,0.0,0.0,0.0,0.0,0.0,0.0,0.0,0.0,0.0,0.0,0.0,0.0,0.0,0.0,0.0,0.0,0.0,0.0,0.0,0.0,1.1595,0.0,0.0,0.0,0.0,0.0,0.0,0.0,0.0,0.0,0.0,0.0,0.0,0.0,0.0,0.0,0.0,0.0,0.0,0.0,0.0,0.0,0.0,0.0,0.0,0.0,0.0,0.0,0.0,0.0,0.0,0.0,0.0,0.0,0.0,0.0,0.0,0.0,0.0,0.0,0.0,0.0,0.0,0.0,0.0,0.0,0.0,0.0,0.0,0.0,0.0,0.0,0.0,0.0,0.0,0.0,0.0,0.0,0.0,0.0,0.0,0.0,0.0,0.0,0.0,0.0,0.0,0.0,0.0,0.0,0.0,0.0,0.0,0.0,0.0,0.0,0.0,0.0,0.0,0.0,0.0,0.0,0.0,0.0,0.0,0.0,0.0,0.0,0.0,0.0,0.0,0.0,0.0,0.0,0.0,0.0,0.0,0.0,0.0,0.0,0.0,0.0,0.0,0.0,0.0,0.0,0.0,0.0,0.0,0.0,0.0,1.0783,1.1756,1.1811,1.1808,1.1825,0.0,0.0,0.0,0.0,0.0,0.0,0.0,0.0,0.0,0.0,0.0,0.0,0.0,0.0,0.0,0.0,0.0,0.0,0.0,0.0,0.0,0.0,0.0,0.0,0.0,0.0,0.0,0.0,0.0,0.0,0.0,0.0,0.0,0.0,0.0,0.0,0.0,0.0,0.0,0.0,0.0,0.0,0.0,0.0,0.0,0.0,0.0,0.0,0.0,0.0,0.0,0.0,0.0,0.0,0.0,0.0,0.0,0.0,0.0,0.0,0.0,0.0,0.0,0.0,0.0,0.0,0.0,0.0,0.0,0.0,0.0,0.0,0.0,0.0,0.0,0.0,0.0,0.0,0.0,0.0,0.0,0.0,0.0,0.0,0.0,0.0,0.0,0.0,0.0,0.0,0.0,0.0,0.0,0.0,0.0,0.0,0.0,0.0,0.0,0.0,0.0,0.0,0.0,0.0,0.0,0.0,0.0,0.0,0.0,0.0,0.0,0.0,1.1726,1.1854,1.198,0.0,0.0,0.0,0.0,0.0,0.0,0.0,0.0,0.0,0.0,0.0,0.0,0.0,0.0,0.0,0.0,0.0,0.0,0.0,0.0,0.0,0.0,0.0,0.0,0.0,0.0,0.0,0.0,0.0,0.0,0.0,0.0,0.0,0.0,0.0,0.0,0.0,0.0,0.0,0.0,0.0,0.0,0.0,0.0,0.0,0.0,0.0,0.0,0.0,0.0,0.0,0.0,0.0,0.0,0.0,0.0,0.0,0.0,0.0,0.0,0.0,0.0,0.0,0.0,0.0,0.0,0.0,0.0,0.0,0.0,0.0,0.0,0.0,0.0,0.0,0.0,0.0,0.0,0.0,0.0,0.0,0.0,0.0,0.0,0.0,0.0,0.0,0.0,0.0,0.0,0.0,0.0,0.0,0.0,0.0,0.0,0.0,0.0,0.0,0.0,0.0,0.0,0.0,0.0,0.0,0.0,0.0,0.0,0.0,0.0,1.0544,1.1075,1.1542,0.0,1.1991,0.0,0.0,0.0,0.0,0.0,0.0,0.0,0.0,0.0,0.0,0.0,0.0,0.0,0.0,0.0,0.0,0.0,0.0,0.0,0.0,0.0,0.0,0.0,0.0,0.0,0.0,0.0,0.0,0.0,0.0,0.0,0.0,0.0,0.0,0.0,0.0,0.0,0.0,0.0,0.0,0.0,0.0,0.0,0.0,0.0,0.0,0.0,0.0,0.0,0.0,0.0,0.0,0.0,0.0,0.0,0.0,0.0,0.0,0.0,0.0,0.0,0.0,0.0,0.0,0.0,0.0,0.0,0.0,0.0,0.0,0.0,0.0,0.0,0.0,0.0,0.0,0.0,0.0,0.0,0.0,0.0,0.0,0.0,0.0,0.0,0.0,0.0,0.0,0.0,0.0,0.0,0.0,0.0,0.0,0.0,0.0,0.0,0.0,0.0,0.0,0.0,0.0,0.0,0.0,0.0,0.0,0.0,0.0,0.0,0.0,0.0,1.0971,1.1331,1.1666,0.0,0.0,0.0,0.0,0.0,0.0,0.0,0.0,0.0,0.0,0.0,0.0,0.0,0.0,0.0,0.0,0.0,0.0,0.0,0.0,0.0,0.0,0.0,0.0,0.0,0.0,0.0,0.0,0.0,0.0,0.0,0.0,0.0,0.0,0.0,0.0,0.0,0.0,0.0,0.0,0.0,0.0,0.0,0.0,0.0,0.0,0.0,0.0,0.0,0.0,0.0,0.0,0.0,0.0,0.0,0.0,0.0,0.0,0.0,0.0,0.0,0.0,0.0,0.0,0.0,0.0,0.0,0.0,0.0,0.0,0.0,0.0,0.0,0.0,0.0,0.0,0.0,0.0,0.0,0.0,0.0,0.0,0.0,0.0,0.0,0.0,0.0,0.0,0.0,0.0,0.0,0.0,0.0,0.0,0.0,0.0,0.0,0.0,0.0,0.0,0.0,0.0,0.0,0.0,0.0,0.0,0.0,0.0,0.0,0.0,1.0745,0.0,1.0987,1.128,1.1507,1.1661,0.0,0.0,0.0,0.0,0.0,0.0,0.0,0.0,0.0,0.0,0.0,0.0,0.0,0.0,0.0,0.0,0.0,0.0,0.0,0.0,0.0,0.0,0.0,0.0,0.0,0.0,0.0,0.0,0.0,0.0,0.0,0.0,0.0,0.0,0.0,0.0,0.0,0.0,0.0,0.0,0.0,0.0,0.0,0.0,0.0,0.0,0.0,0.0,0.0,0.0,0.0,0.0,0.0,0.0,0.0,0.0,0.0,0.0,0.0,0.0,0.0,0.0,0.0,0.0,0.0,0.0,0.0,0.0,0.0,0.0,0.0,0.0,0.0,0.0,0.0,0.0,0.0,0.0,0.0,0.0,0.0,0.0,0.0,0.0,0.0,0.0,0.0,0.0,0.0,0.0,0.0,0.0,0.0,0.0,0.0,0.0,0.0,0.0,0.0,0.0,0.0,0.0,0.0,0.0,0.0,0.0,0.0,0.0,0.0,1.1215,1.0971,1.1,1.1498,1.1474,0.0,0.0,0.0,0.0,0.0,0.0,0.0,0.0,0.0,0.0,0.0,0.0,0.0,0.0,0.0,0.0,0.0,0.0,0.0,0.0,0.0,0.0,0.0,0.0,0.0,0.0,0.0,0.0,0.0,0.0,0.0,0.0,0.0,0.0,0.0,0.0,0.0,0.0,0.0,0.0,0.0,0.0,0.0,0.0,0.0,0.0,0.0,0.0,0.0,0.0,0.0,0.0,0.0,0.0,0.0,0.0,0.0,0.0,0.0,0.0,0.0,0.0,0.0,0.0,0.0,0.0,0.0,0.0,0.0,0.0,0.0,0.0,0.0,0.0,0.0,0.0,0.0,0.0,0.0,0.0,0.0,0.0,0.0,0.0,0.0,0.0,0.0,0.0,0.0,0.0,0.0,0.0,0.0,0.0,0.0,0.0,0.0,0.0,0.0,0.0,0.0,0.0,0.0,0.0,0.0,0.0,0.0,0.0,0.0,1.1239,1.0466,1.0186,1.0484,1.0645,1.0846,0.0,0.0,0.0,0.0,0.0,0.0,0.0,0.0,0.0,0.0,0.0,0.0,0.0,0.0,0.0,0.0,0.0,0.0,0.0,0.0,0.0,0.0,0.0,0.0,0.0,0.0,0.0,0.0,0.0,0.0,0.0,0.0,0.0,0.0,0.0,0.0,0.0,0.0,0.0,0.0,0.0,0.0,0.0,0.0,0.0,0.0,0.0,0.0,0.0,0.0,0.0,0.0,0.0,0.0,0.0,0.0,0.0,0.0,0.0,0.0,0.0,0.0,0.0,0.0,0.0,0.0,0.0,0.0,0.0,0.0,0.0,0.0,0.0,0.0,0.0,0.0,0.0,0.0,0.0,0.0,0.0,0.0,0.0,0.0,0.0,0.0,0.0,0.0,0.0,0.0,0.0,0.0,0.0,0.0,0.0,0.0,0.0,0.0,0.0,0.0,0.0,0.0,0.0,0.0,0.0,0.0,0.0,0.0,0.0,1.0692,0.0,0.9175,0.0,0.9795,1.0141,0.0,0.0,0.0,0.0,0.0,0.0,0.0,0.0,0.0,0.0,0.0,0.0,0.0,0.0,0.0,0.0,0.0,0.0,0.0,0.0,0.0,0.0,0.0,0.0,0.0,0.0,0.0,0.0,0.0,0.0,0.0,0.0,0.0,0.0,0.0,0.0,0.0,0.0,0.0,0.0,0.0,0.0,0.0,0.0,0.0,0.0,0.0,0.0,0.0,0.0,0.0,0.0,0.0,0.0,0.0,0.0,0.0,0.0,0.0,0.0,0.0,0.0,0.0,0.0,0.0,0.0,0.0,0.0,0.0,0.0,0.0,0.0,0.0,0.0,0.0,0.0,0.0,0.0,0.0,0.0,0.0,0.0,0.0,0.0,0.0,0.0,0.0,0.0,0.0,0.0,0.0,0.0,0.0,0.0,0.0,0.0,0.0,0.0,0.0,0.0,0.0,0.0,0.0,0.0,0.0,0.0,0.0,0.0,1.1704,1.0186,0.8613,0.8049,0.8667,0.9012,0.9417,0.0,0.0,0.0,0.0,0.0,0.0,0.0,0.0,0.0,0.0,0.0,0.0,0.0,0.0,0.0,0.0,0.0,0.0,0.0,0.0,0.0,0.0,0.0,0.0,0.0,0.0,0.0,0.0,0.0,0.0,0.0,0.0,0.0,0.0,0.0,0.0,0.0,0.0,0.0,0.0,0.0,0.0,0.0,0.0,0.0,0.0,0.0,0.0,0.0,0.0,0.0,0.0,0.0,0.0,0.0,0.0,0.0,0.0,0.0,0.0,0.0,0.0,0.0,0.0,0.0,0.0,0.0,0.0,0.0,0.0,0.0,0.0,0.0,0.0,0.0,0.0,0.0,0.0,0.0,0.0,0.0,0.0,0.0,0.0,0.0,0.0,0.0,0.0,0.0,0.0,0.0,0.0,0.0,0.0,0.0,0.0,0.0,0.0,0.0,0.0,0.0,0.0,0.0,0.0,0.0,0.0,0.0,0.0,0.0,0.8573,0.73,0.6711,0.6906,0.7427,0.8272,0.0,0.0,0.0,0.0,0.0,0.0,0.0,0.0,0.0,0.0,0.0,0.0,0.0,0.0,0.0,0.0,0.0,0.0,0.0,0.0,0.0,0.0,0.0,0.0,0.0,0.0,0.0,0.0,0.0,0.0,0.0,0.0,0.0,0.0,0.0,0.0,0.0,0.0,0.0,0.0,0.0,0.0,0.0,0.0,0.0,0.0,0.0,0.0,0.0,0.0,0.0,0.0,0.0,0.0,0.0,0.0,0.0,0.0,0.0,0.0,0.0,0.0,0.0,0.0,0.0,0.0,0.0,0.0,0.0,0.0,0.0,0.0,0.0,0.0,0.0,0.0,0.0,0.0,0.0,0.0,0.0,0.0,0.0,0.0,0.0,0.0,0.0,0.0,0.0,0.0,0.0,0.0,0.0,0.0,0.0,0.0,0.0,0.0,0.0,0.0,0.0,0.0,0.0,0.0,0.0,0.0,0.0,0.0,0.0,0.7804,0.6253,0.5466,0.5455,0.5737,0.6731,0.8496,0.0,0.0,0.0,0.0,0.0,0.0,0.0,0.0,0.0,0.0,0.0,0.0,0.0,0.0,0.0,0.0,0.0,0.0,0.0,0.0,0.0,0.0,0.0,0.0,0.0,0.0,0.0,0.0,0.0,0.0,0.0,0.0,0.0,0.0,0.0,0.0,0.0,0.0,0.0,0.0,0.0,0.0,0.0,0.0,0.0,0.0,0.0,0.0,0.0,0.0,0.0,0.0,0.0,0.0,0.0,0.0,0.0,0.0,0.0,0.0,0.0,0.0,0.0,0.0,0.0,0.0,0.0,0.0,0.0,0.0,0.0,0.0,0.0,0.0,0.0,0.0,0.0,0.0,0.0,0.0,0.0,0.0,0.0,0.0,0.0,0.0,0.0,0.0,0.0,0.0,0.0,0.0,0.0,0.0,0.0,0.0,0.0,0.0,0.0,0.0,0.0,0.0,0.0,0.0,0.0,0.0,0.0,0.0,0.782,0.5593,0.4409,0.4318,0.4095,0.4951,0.0,0.0,0.0,0.0,0.0,0.0,0.0,0.0,0.0,0.0,0.0,0.0,0.0,0.0,0.0,0.0,0.0,0.0,0.0,0.0,0.0,0.0,0.0,0.0,0.0,0.0,0.0,0.0,0.0,0.0,0.0,0.0,0.0,0.0,0.0,0.0,0.0,0.0,0.0,0.0,0.0,0.0,0.0,0.0,0.0,0.0,0.0,0.0,0.0,0.0,0.0,0.0,0.0,0.0,0.0,0.0,0.0,0.0,0.0,0.0,0.0,0.0,0.0,0.0,0.0,0.0,0.0,0.0,0.0,0.0,0.0,0.0,0.0,0.0,0.0,0.0,0.0,0.0,0.0,0.0,0.0,0.0,0.0,0.0,0.0,0.0,0.0,0.0,0.0,0.0,0.0,0.0,0.0,0.0,0.0,0.0,0.0,0.0,0.0,0.0,0.0,0.0,0.0,0.0,0.0,0.0,0.0,0.0,0.0,0.8931,0.6362,0.4414,0.3193,0.3124,0.4418,0.0,0.0,0.0,0.0,0.0,0.0,0.0,0.0,0.0,0.0,0.0,0.0,0.0,0.0,0.0,0.0,0.0,0.0,0.0,0.0,0.0,0.0,0.0,0.0,0.0,0.0,0.0,0.0,0.0,0.0,0.0,0.0,0.0,0.0,0.0,0.0,0.0,0.0,0.0,0.0,0.0,0.0,0.0,0.0,0.0,0.0,0.0,0.0,0.0,0.0,0.0,0.0,0.0,0.0,0.0,0.0,0.0,0.0,0.0,0.0,0.0,0.0,0.0,0.0,0.0,0.0,0.0,0.0,0.0,0.0,0.0,0.0,0.0,0.0,0.0,0.0,0.0,0.0,0.0,0.0,0.0,0.0,0.0,0.0,0.0,0.0,0.0,0.0,0.0,0.0,0.0,0.0,0.0,0.0,0.0,0.0,0.0,0.0,0.0,0.0,0.0,0.0,0.0,0.0,0.0,0.0,0.0,0.0,1.0418,0.9357,0.6898,0.475,0.3064,0.2805,0.4041,0.0,0.0,0.0,0.0,0.0,0.0,0.0,0.0,0.0,0.0,0.0,0.0,0.0,0.0,0.0,0.0,0.0,0.0,0.0,0.0,0.0,0.0,0.0,0.0,0.0,0.0,0.0,0.0,0.0,0.0,0.0,0.0,0.0,0.0,0.0,0.0,0.0,0.0,0.0,0.0,0.0,0.0,0.0,0.0,0.0,0.0,0.0,0.0,0.0,0.0,0.0,0.0,0.0,0.0,0.0,0.0,0.0,0.0,0.0,0.0,0.0,0.0,0.0,0.0,0.0,0.0,0.0,0.0,0.0,0.0,0.0,0.0,0.0,0.0,0.0,0.0,0.0,0.0,0.0,0.0,0.0,0.0,0.0,0.0,0.0,0.0,0.0,0.0,0.0,0.0,0.0,0.0,0.0,0.0,0.0,0.0,0.0,0.0,0.0,0.0,0.0,0.0,0.0,0.0,0.0,0.0,0.0,0.0,1.0546,0.948,0.7374,0.546,0.3756,0.298,0.3907,0.0,0.0,0.0,0.0,0.0,0.0,0.0,0.0,0.0,0.0,0.0,0.0,0.0,0.0,0.0,0.0,0.0,0.0,0.0,0.0,0.0,0.0,0.0,0.0,0.0,0.0,0.0,0.0,0.0,0.0,0.0,0.0,0.0,0.0,0.0,0.0,0.0,0.0,0.0,0.0,0.0,0.0,0.0,0.0,0.0,0.0,0.0,0.0,0.0,0.0,0.0,0.0,0.0,0.0,0.0,0.0,0.0,0.0,0.0,0.0,0.0,0.0,0.0,0.0,0.0,0.0,0.0,0.0,0.0,0.0,0.0,0.0,0.0,0.0,0.0,0.0,0.0,0.0,0.0,0.0,0.0,0.0,0.0,0.0,0.0,0.0,0.0,0.0,0.0,0.0,0.0,0.0,0.0,0.0,0.0,0.0,0.0,0.0,0.0,0.0,0.0,0.0,0.0,0.0,0.0,0.0,0.0,0.0,1.1608,1.0626,0.8537,0.664,0.4952,0.3865,0.4577,0.0,0.0,0.0,0.0,0.0,0.0,0.0,0.0,0.0,0.0,0.0,0.0,0.0,0.0,0.0,0.0,0.0,0.0,0.0,0.0,0.0,0.0,0.0,0.0,0.0,0.0,0.0,0.0,0.0,0.0,0.0,0.0,0.0,0.0,0.0,0.0,0.0,0.0,0.0,0.0,0.0,0.0,0.0,0.0,0.0,0.0,0.0,0.0,1.7879,0.0,0.0,0.0,0.0,0.0,0.0,0.0,0.0,0.0,0.0,0.0,0.0,0.0,0.0,0.0,0.0,0.0,0.0,0.0,0.0,0.0,0.0,0.0,0.0,0.0,0.0,0.0,0.0,0.0,0.0,0.0,0.0,0.0,0.0,0.0,0.0,0.0,0.0,0.0,0.0,0.0,0.0,0.0,0.0,0.0,0.0,0.0,0.0,0.0,0.0,0.0,0.0,0.0,0.0,0.0,0.0,0.0,0.0,0.0,1.215,1.0959,0.9617,0.8026,0.6186,0.5465,0.5929,0.0,0.0,0.0,0.0,0.0,0.0,0.0,0.0,0.0,0.0,0.0,0.0,0.0,0.0,0.0,0.0,0.0,0.0,0.0,0.0,0.0,0.0,0.0,0.0,0.0,0.0,0.0,0.0,0.0,0.0,0.0,0.0,0.0,0.0,0.0,0.0,0.0,0.0,0.0,0.0,0.0,0.0,0.0,0.0,0.0,0.0,0.0,0.0,0.0,0.0,0.0,0.0,0.0,0.0,0.0,0.0,0.0,0.0,0.0,0.0,0.0,0.0,0.0,0.0,0.0,0.0,0.0,0.0,0.0,0.0,0.0,0.0,0.0,0.0,0.0,0.0,0.0,0.0,0.0,0.0,0.0,0.0,0.0,0.0,0.0,0.0,0.0,0.0,0.0,0.0,0.0,0.0,0.0,0.0,0.0,0.0,0.0,0.0,0.0,0.0,0.0,0.0,0.0,0.0,0.0,0.0,0.0,1.3618,1.2383,1.0954,1.0291,0.903,0.7071,0.6994,0.7259,0.781,0.0,0.0,0.0,0.0,0.0,0.0,0.0,0.0,0.0,0.0,0.0,0.0,0.0,0.0,0.0,0.0,0.0,0.0,0.0,0.0,0.0,0.0,0.0,0.0,0.0,0.0,0.0,0.0,0.0,0.0,0.0,0.0,0.0,0.0,0.0,0.0,0.0,0.0,1.6617,1.6539,0.0,0.0,0.0,0.0,0.0,0.0,0.0,0.0,1.9116,0.0,0.0,0.0,0.0,0.0,0.0,0.0,0.0,0.0,0.0,0.0,0.0,0.0,0.0,0.0,0.0,0.0,0.0,0.0,0.0,0.0,0.0,0.0,0.0,0.0,0.0,0.0,0.0,0.0,0.0,0.0,0.0,0.0,0.0,0.0,0.0,0.0,0.0,0.0,0.0,0.0,0.0,0.0,0.0,0.0,0.0,0.0,0.0,0.0,0.0,0.0,0.0,0.0,0.0,0.0,0.0,1.5344,1.3805,1.233,1.0935,0.9611,0.8325,0.705,0.6986,0.7432,0.8382,0.0,0.0,0.0,0.0,0.0,0.0,0.0,0.0,0.0,0.0,0.0,0.0,0.0,0.0,0.0,0.0,0.0,0.0,0.0,0.0,0.0,0.0,0.0,0.0,0.0,0.0,0.0,0.0,0.0,0.0,0.0,0.0,0.0,0.0,0.0,0.0,0.0,0.0,0.0,1.5911,1.5323,0.0,0.0,0.0,0.0,0.0,0.0,0.0,0.0,1.9368,0.0,0.0,0.0,0.0,0.0,0.0,0.0,0.0,0.0,0.0,0.0,0.0,0.0,0.0,0.0,0.0,0.0,0.0,0.0,0.0,0.0,0.0,0.0,0.0,0.0,0.0,0.0,0.0,0.0,0.0,0.0,0.0,0.0,0.0,0.0,0.0,0.0,0.0,0.0,0.0,0.0,0.0,0.0,0.0,0.0,0.0,0.0,0.0,0.0,0.0,0.0,0.0,0.0,0.0,0.0,1.5228,1.4035,1.2749,1.1417,1.0118,0.8984,0.7936,0.7889,0.8326,0.0,0.0,0.0,0.0,0.0,0.0,0.0,0.0,0.0,0.0,0.0,0.0,0.0,0.0,0.0,0.0,0.0,0.0,0.0,0.0,0.0,0.0,0.0,0.0,0.0,0.0,0.0,0.0,0.0,0.0,0.0,0.0,0.0,0.0,0.0,0.0,0.0,0.0,0.0,0.0,1.5252,1.4313,1.3358,0.0,0.0,0.0,0.0,0.0,0.0,1.7914,1.8606,0.0,0.0,0.0,0.0,0.0,0.0,0.0,0.0,0.0,0.0,0.0,0.0,0.0,0.0,0.0,0.0,0.0,0.0,0.0,0.0,0.0,0.0,0.0,0.0,0.0,0.0,0.0,0.0,0.0,0.0,0.0,0.0,0.0,0.0,0.0,0.0,0.0,0.0,0.0,0.0,0.0,0.0,0.0,0.0,0.0,0.0,0.0,0.0,0.0,0.0,0.0,0.0,0.0,0.0,0.0,1.5257,1.428,1.3192,1.1952,1.0788,0.9711,0.8768,0.8787,0.9263,0.0,0.0,0.0,0.0,0.0,0.0,0.0,0.0,0.0,0.0,0.0,0.0,0.0,0.0,0.0,0.0,0.0,0.0,0.0,0.0,0.0,0.0,0.0,0.0,0.0,0.0,0.0,0.0,0.0,0.0,0.0,0.0,0.0,0.0,0.0,0.0,0.0,0.0,0.0,0.0,0.0,1.3688,1.2808,1.2968,0.0,0.0,0.0,0.0,1.6291,1.7041,0.0,0.0,0.0,0.0,0.0,0.0,0.0,0.0,0.0,0.0,0.0,0.0,0.0,0.0,0.0,0.0,0.0,0.0,0.0,0.0,0.0,0.0,0.0,0.0,0.0,0.0,0.0,0.0,0.0,0.0,0.0,0.0,0.0,0.0,0.0,0.0,0.0,0.0,0.0,0.0,0.0,0.0,0.0,0.0,0.0,0.0,0.0,0.0,0.0,0.0,0.0,0.0,0.0,0.0,0.0,0.0,1.6027,1.4565,1.3331,1.2336,1.0918,0.9753,0.8833,0.9117,0.9801,0.0,0.0,0.0,0.0,0.0,0.0,0.0,0.0,0.0,0.0,0.0,0.0,0.0,0.0,0.0,0.0,0.0,0.0,0.0,0.0,0.0,0.0,0.0,0.0,0.0,0.0,0.0,0.0,0.0,0.0,0.0,0.0,0.0,0.0,0.0,0.0,0.0,0.0,0.0,0.0,0.0,1.3764,1.2139,1.2118,1.2535,0.0,0.0,1.5832,1.6375,1.6951,0.0,0.0,0.0,0.0,0.0,0.0,0.0,0.0,0.0,0.0,0.0,0.0,0.0,0.0,0.0,0.0,0.0,0.0,0.0,0.0,0.0,0.0,0.0,0.0,0.0,0.0,0.0,0.0,0.0,0.0,0.0,0.0,0.0,0.0,0.0,0.0,0.0,0.0,0.0,0.0,0.0,0.0,0.0,0.0,0.0,0.0,0.0,0.0,0.0,0.0,0.0,0.0,0.0,0.0,0.0,1.6933,1.6177,1.4812,1.3661,1.2785,1.1103,0.9906,0.9253,0.9348,0.9997,0.0,0.0,0.0,0.0,0.0,0.0,0.0,0.0,0.0,0.0,0.0,0.0,0.0,0.0,0.0,0.0,0.0,0.0,0.0,0.0,0.0,0.0,0.0,0.0,0.0,0.0,0.0,0.0,0.0,0.0,0.0,0.0,0.0,0.0,0.0,0.0,0.0,0.0,0.0,0.0,0.0,0.0,1.2443,1.2289,0.0,0.0,0.0,1.4558,1.5654,0.0,0.0,0.0,0.0,0.0,0.0,0.0,0.0,0.0,0.0,0.0,0.0,0.0,0.0,0.0,0.0,0.0,0.0,0.0,0.0,0.0,0.0,0.0,0.0,0.0,0.0,0.0,0.0,0.0,0.0,0.0,0.0,0.0,0.0,0.0,0.0,0.0,0.0,0.0,0.0,0.0,0.0,0.0,0.0,0.0,0.0,0.0,0.0,0.0,0.0,0.0,0.0,0.0,0.0,0.0,0.0,0.0,1.634,1.5213,1.4194,1.3268,1.1723,1.0606,1.0006,1.0123,0.0,0.0,0.0,0.0,0.0,0.0,0.0,0.0,0.0,0.0,0.0,0.0,0.0,0.0,0.0,0.0,0.0,0.0,0.0,0.0,0.0,0.0,0.0,0.0,0.0,0.0,0.0,0.0,0.0,0.0,0.0,0.0,0.0,0.0,0.0,0.0,0.0,0.0,0.0,0.0,0.0,0.0,1.4917,1.3278,1.2927,1.2923,0.0,0.0,1.3859,1.4809,1.5368,1.6037,0.0,0.0,0.0,0.0,0.0,0.0,0.0,0.0,0.0,0.0,0.0,0.0,0.0,0.0,0.0,0.0,0.0,0.0,0.0,0.0,0.0,0.0,0.0,0.0,0.0,0.0,0.0,0.0,0.0,0.0,0.0,0.0,0.0,0.0,0.0,0.0,0.0,0.0,0.0,0.0,0.0,0.0,0.0,0.0,0.0,0.0,0.0,0.0,0.0,0.0,0.0,0.0,0.0,0.0,0.0,1.6747,1.5945,1.4945,1.3795,1.32,1.2301,1.1063,1.1826,1.2506,0.0,0.0,0.0,0.0,0.0,0.0,0.0,0.0,0.0,0.0,0.0,0.0,0.0,0.0,0.0,0.0,0.0,0.0,0.0,0.0,0.0,0.0,0.0,0.0,0.0,0.0,0.0,0.0,0.0,0.0,0.0,0.0,0.0,0.0,0.0,0.0,0.0,0.0,0.0,0.0,0.0,1.5945,1.4738,1.4089,1.3574,0.0,0.0,1.4337,1.4053,1.5212,1.6251,1.6514,0.0,0.0,0.0,0.0,0.0,0.0,0.0,0.0,0.0,0.0,0.0,0.0,0.0,0.0,0.0,0.0,0.0,0.0,0.0,0.0,0.0,0.0,0.0,0.0,0.0,0.0,0.0,0.0,0.0,0.0,0.0,0.0,0.0,0.0,0.0,0.0,0.0,0.0,0.0,0.0,0.0,0.0,0.0,0.0,0.0,0.0,0.0,0.0,0.0,0.0,0.0,0.0,0.0,1.7771,1.7113,1.6367,1.5619,1.4915,1.4012,1.3026,1.1989,1.2246,1.2493,0.0,0.0,0.0,0.0,0.0,0.0,0.0,0.0,0.0,0.0,0.0,0.0,0.0,0.0,0.0,0.0,0.0,0.0,0.0,0.0,0.0,0.0,0.0,0.0,0.0,0.0,0.0,0.0,1.9518,1.9262,1.8969,0.0,0.0,0.0,0.0,0.0,0.0,0.0,0.0,0.0,0.0,1.6887,1.5722,1.4987,0.0,0.0,1.4479,1.4671,1.5112,1.555,1.601,1.6537,1.7506,0.0,0.0,0.0,0.0,0.0,0.0,0.0,0.0,0.0,0.0,0.0,0.0,0.0,0.0,0.0,0.0,0.0,0.0,0.0,0.0,0.0,0.0,0.0,0.0,0.0,0.0,0.0,0.0,0.0,0.0,0.0,0.0,0.0,0.0,0.0,0.0,0.0,0.0,0.0,0.0,0.0,0.0,0.0,0.0,0.0,0.0,0.0,0.0,0.0,0.0,0.0,0.0,1.8492,1.7786,1.6946,1.6285,1.579,1.484,1.3981,1.3276,1.2955,1.2939,0.0,0.0,0.0,0.0,0.0,0.0,0.0,0.0,0.0,0.0,0.0,0.0,0.0,0.0,0.0,0.0,0.0,0.0,0.0,0.0,0.0,0.0,0.0,0.0,0.0,0.0,0.0,0.0,2.0665,2.0238,1.9885,0.0,0.0,0.0,0.0,0.0,0.0,0.0,0.0,0.0,0.0,1.7805,1.7319,1.6488,1.5905,1.6021,1.5813,1.5826,1.627,1.6365,1.6554,1.7074,0.0,0.0,0.0,0.0,0.0,0.0,0.0,0.0,0.0,0.0,0.0,0.0,0.0,0.0,0.0,0.0,0.0,0.0,0.0,0.0,0.0,0.0,0.0,0.0,0.0,0.0,0.0,0.0,0.0,0.0,2.1007,0.0,0.0,0.0,0.0,0.0,0.0,0.0,0.0,0.0,0.0,0.0,0.0,0.0,0.0,0.0,0.0,0.0,0.0,0.0,0.0,0.0,0.0,0.0,1.8857,1.779,1.6928,1.6217,1.5789,1.536,1.4915,1.4256,1.4235,1.4985,0.0,0.0,0.0,0.0,0.0,0.0,0.0,0.0,0.0,0.0,0.0,0.0,0.0,0.0,0.0,0.0,0.0,0.0,0.0,0.0,0.0,0.0,0.0,0.0,0.0,0.0,2.1061,2.0265,1.9632,0.0,0.0,0.0,0.0,0.0,0.0,0.0,0.0,0.0,0.0,1.9273,1.8791,1.9738,1.8731,1.7764,1.762,1.7991,1.8006,1.7184,1.7644,1.8146,0.0,0.0,0.0,0.0,0.0,0.0,0.0,0.0,0.0,0.0,0.0,0.0,0.0,0.0,0.0,0.0,0.0,0.0,0.0,0.0,0.0,0.0,0.0,0.0,0.0,0.0,0.0,1.8822,1.9266,0.0,0.0,0.0,0.0,0.0,0.0,0.0,0.0,0.0,0.0,0.0,1.971,1.9546,0.0,0.0,0.0,0.0,0.0,0.0,0.0,0.0,0.0,0.0,0.0,0.0,1.9787,1.944,1.8228,1.7437,1.7209,1.6668,1.6085,1.5418,1.5153,1.5047,1.509,0.0,0.0,0.0,0.0,0.0,0.0,0.0,0.0,0.0,0.0,0.0,0.0,0.0,0.0,0.0,0.0,0.0,0.0,0.0,0.0,0.0,0.0,0.0,0.0,0.0,2.2075,0.0,0.0,0.0,0.0,0.0,0.0,0.0,0.0,0.0,0.0,0.0,2.154,2.1578,2.096,2.0586,2.0696,1.9706,1.8711,0.0,0.0,0.0,0.0,0.0,0.0,0.0,0.0,0.0,0.0,0.0,0.0,0.0,0.0,2.2081,2.1648,2.1863,2.2128,2.2217,0.0,0.0,0.0,0.0,0.0,0.0,0.0,0.0,0.0,0.0,0.0,0.0,0.0,0.0,1.9459,0.0,2.0733,0.0,0.0,0.0,0.0,0.0,0.0,0.0,0.0,2.1634,2.1375,2.1049,2.0878,2.0878,0.0,2.1308,2.1409,0.0,0.0,0.0,0.0,0.0,0.0,0.0,0.0,2.0822,2.0317,1.9087,1.8304,1.801,1.7424,1.6874,1.6328,1.6013,1.565,1.5286,1.5874,1.6466,0.0,0.0,0.0,0.0,0.0,0.0,0.0,0.0,0.0,0.0,0.0,0.0,0.0,0.0,0.0,0.0,0.0,0.0,0.0,0.0,0.0,0.0,0.0,2.262,0.0,0.0,0.0,0.0,0.0,0.0,0.0,0.0,0.0,2.1189,2.1877,2.2479,2.2468,2.2084,2.1789,2.1826,0.0,0.0,0.0,0.0,0.0,0.0,0.0,1.8561,1.8873,1.9168,1.9498,1.9773,2.0218,2.0709,2.1226,0.0,0.0,2.187,2.2335,2.264,2.2152,2.2946,2.3607,2.3347,2.3484,2.3644,0.0,0.0,0.0,0.0,0.0,0.0,0.0,0.0,2.0532,2.0597,0.0,2.1528,0.0,0.0,0.0,0.0,0.0,0.0,0.0,0.0,2.2773,2.2612,2.2574,2.2133,2.2177,2.2599,2.2599,2.2798,2.3141,2.3165,0.0,0.0,0.0,0.0,0.0,0.0,2.221,2.1386,2.0326,1.9422,1.862,1.8035,1.7698,1.7659,1.6789,1.6102,1.5706,1.6704,1.7167,1.6895,1.8252,0.0,0.0,0.0,0.0,0.0,0.0,0.0,0.0,0.0,0.0,0.0,0.0,0.0,0.0,0.0,0.0,0.0,0.0,0.0,0.0,2.2262,0.0,0.0,0.0,0.0,0.0,0.0,0.0,0.0,0.0,0.0,2.2264,2.2773,2.3224,2.3218,0.0,0.0,0.0,0.0,2.1711,2.1956,2.1745,2.1345,2.091,2.0303,1.9842,1.9888,0.0,0.0,2.0261,2.0555,2.0717,2.0799,2.1087,2.1517,2.2259,2.3194,2.3511,2.215,2.2705,2.314,2.2552,2.2666,2.2855,2.3798,0.0,0.0,0.0,0.0,2.2492,2.2428,2.2547,2.2411,2.2412,2.2615,2.33,0.0,0.0,0.0,0.0,0.0,0.0,2.3105,2.3189,2.3088,2.3034,2.3022,2.289,2.2902,2.3034,2.3022,2.3082,2.32,2.3455,2.3537,2.3555,0.0,0.0,0.0,0.0,2.2484,2.167,2.0626,1.9713,1.8887,1.8539,1.8146,1.7715,1.7214,1.6783,1.6467,1.728,1.78,1.7947,1.9022,0.0,0.0,0.0,0.0,0.0,0.0,0.0,0.0,0.0,0.0,0.0,0.0,0.0,0.0,0.0,0.0,0.0,0.0,0.0,2.274,2.3135,2.3381,0.0,0.0,0.0,0.0,0.0,0.0,0.0,0.0,0.0,2.3236,2.3575,2.3917,0.0,0.0,2.3315,2.3519,2.2591,2.1721,2.1284,0.0,0.0,0.0,1.9505,1.9659,1.9813,1.9707,1.9695,1.9864,1.968,1.9694,2.026,2.0696,2.1018,2.1268,2.192,2.2314,2.2043,2.2327,2.2621,2.2499,2.2637,2.2784,2.6487,2.6,2.449,2.3943,2.4131,2.4017,2.3965,2.3965,2.4107,2.4152,2.4183,2.4663,2.4607,2.4161,2.4654,0.0,0.0,0.0,2.3764,2.3588,2.3606,2.3588,2.3588,2.3588,2.3646,2.3694,2.3624,2.367,2.3814,2.3946,2.406,2.4109,0.0,0.0,2.4171,2.3712,2.2923,2.1831,2.1151,2.0271,1.9145,1.8887,1.8539,1.8066,1.7736,1.749,1.733,1.7762,1.8179,1.8543,1.94,2.0118,0.0,0.0,0.0,0.0,0.0,0.0,0.0,0.0,0.0,0.0,0.0,2.2325,0.0,0.0,0.0,0.0,2.2839,2.3459,2.3403,2.3577,0.0,0.0,0.0,0.0,0.0,0.0,0.0,2.4356,2.4032,2.3608,2.3151,2.3285,2.3392,2.341,2.318,2.3031,2.3031,0.0,2.1547,2.1126,2.0712,2.0218,1.9631,1.9567,1.9526,1.935,1.9374,1.9437,1.942,1.9306,1.9413,1.9871,2.0204,2.0406,2.0399,2.0739,2.1023,2.1132,2.1519,2.1792,2.1602,2.1695,2.184,2.9121,2.8874,2.6166,2.5347,2.5737,2.5461,2.5338,2.5349,2.5654,2.578,2.5793,2.5801,2.5809,2.5763,2.5709,0.0,0.0,2.5037,2.4769,2.43,2.43,2.4273,2.4228,2.4218,2.4339,2.4528,2.433,2.4445,2.4749,2.4599,2.4615,2.4782,2.4426,2.4256,2.4247,2.4256,2.3446,2.1872,2.1835,2.1017,1.9375,1.9125,1.8905,1.8623,1.8393,1.828,1.8239,1.8427,1.8668,1.9029,1.9664,2.0165,2.0494,0.0,0.0,0.0,0.0,0.0,0.0,0.0,0.0,0.0,0.0,0.0,0.0,0.0,0.0,0.0,2.3317,0.0,2.3759,2.378,0.0,0.0,0.0,2.4443,2.4433,2.3855,2.3518,2.3708,0.0,0.0,0.0,0.0,2.2142,2.2054,2.2016,2.2013,2.2013,2.1613,2.1287,2.1251,2.0948,2.0692,2.0443,2.0018,1.9479,1.8958,1.8895,1.9104,1.9129,1.9379,1.9589,1.964,1.9732,1.9832,1.9813,1.9919,1.9841,1.9934,2.0554,2.0905,2.0396,2.036,2.0493,2.9121,2.8986,2.7709,2.725,2.7338,2.7264,2.7236,2.7233,2.7317,2.7359,2.7355,2.7624,2.7555,2.726,2.6617,2.6304,2.6205,2.6187,2.5798,2.5136,2.5099,2.4865,2.4436,2.4436,2.4545,2.4716,2.4685,2.4708,2.4797,2.4734,2.4734,2.4778,2.47,2.4654,2.4654,2.4654,2.384,2.2208,2.2182,2.1314,1.9602,1.9338,1.9115,1.8923,1.9434,1.96,1.9432,2.0563,2.1092,2.0948,2.1617,2.1785,2.1258,2.1853,0.0,0.0,0.0,0.0,0.0,0.0,0.0,0.0,0.0,2.3844,2.2976,0.0,2.4009,0.0,2.4182,2.4452,2.4538,2.4546,0.0,0.0,2.4122,2.3799,2.3948,2.3277,2.2892,2.3083,2.294,2.2569,2.1974,2.184,2.1552,2.0878,2.1574,2.2152,2.2133,2.1529,2.1087,2.101,2.0487,1.9973,1.9799,1.9597,1.9475,1.9508,1.9568,1.9612,1.9594,1.9676,1.975,1.9762,1.9882,1.9953,1.9949,2.0088,2.0169,2.0192,2.0292,2.0361,2.0263,2.0307,2.0387,3.0121,3.0012,2.8873,2.8391,2.836,2.8197,2.8129,2.8129,2.8308,2.8391,2.8417,2.8706,2.8713,2.849,2.8132,2.7782,2.7456,2.7438,2.6805,2.5698,2.5679,2.5293,2.465,2.4631,2.4719,2.4877,2.4821,2.4888,2.5,2.4923,2.4942,2.5012,2.5012,2.5031,2.5006,2.4881,2.412,2.2759,2.1905,2.0848,1.9552,1.971,1.9784,1.9679,2.0488,2.0844,2.0688,2.1391,2.1843,2.2011,2.2271,2.238,2.2268,2.2569,2.2844,0.0,0.0,0.0,0.0,0.0,0.0,0.0,0.0,0.0,0.0,0.0,2.4451,0.0,0.0,0.0,2.4804,2.4804,2.4804,2.4804,2.4442,2.4121,2.3889,2.3212,2.2824,2.2932,2.2622,2.2391,2.228,2.228,2.2097,2.1558,2.2122,2.2221,2.1356,2.0763,2.0457,2.0438,2.0086,1.9748,1.9595,1.9582,1.9613,1.9773,1.9809,1.9809,1.9809,1.9852,1.9912,1.994,2.0047,2.0139,2.0164,2.0259,2.0337,2.0323,2.0283,2.0279,2.0361,2.038,2.0433,3.1494,3.1256,2.9776,2.9097,2.8964,2.8633,2.8471,2.8496,2.8851,2.9028,2.9085,2.933,2.9434,2.9435,2.9626,2.9307,2.8671,2.8644,2.7813,2.6341,2.6201,2.5744,2.4991,2.487,2.4891,2.5028,2.491,2.5019,2.5298,2.5135,2.5116,2.5284,2.5308,2.5308,2.5279,2.5,2.433,2.321,2.1467,2.0234,1.9537,2.0252,2.0649,2.0694,2.15,2.1959,2.1951,2.1835,2.2047,2.2597,2.2443,2.2584,2.3177,2.3537,2.3738,0.0,2.4077,0.0,0.0,0.0,0.0,0.0,0.0,0.0,0.0,2.4548,2.4814,2.4821,2.4842,2.4862,2.4883,2.4889,2.4877,2.4891,2.4957,2.4724,2.4036,2.3391,2.3011,2.3011,2.2358,2.2192,2.2879,2.3012,2.3014,2.2907,2.2919,2.2427,2.0838,2.0346,2.0186,1.9925,1.9863,1.9906,1.9891,1.9889,1.9889,1.9879,1.9905,1.9882,1.9914,1.9984,2.0078,2.0127,2.0238,2.0322,2.0381,2.041,2.0422,2.0411,2.0398,2.0409,2.044,2.0428,2.0426,3.2008,3.1305,3.0375,2.9592,2.8994,2.8899,2.8893,2.8887,2.8964,2.9123,2.9322,2.9551,2.9643,2.9643,2.9678,2.961,2.946,2.9468,2.8967,2.801,2.7307,2.6635,2.5983,2.5298,2.5059,2.5224,2.5208,2.5238,2.5303,2.5264,2.5264,2.5308,2.5308,2.5308,0.0,0.0,0.0,0.0,2.1519,2.0767,2.0563,2.1197,2.1555,2.1592,2.2336,0.0,2.2804,2.3345,2.3603,2.3486,2.3415,0.0,0.0,0.0,0.0,0.0,0.0,0.0,0.0,0.0,0.0,0.0,2.4831,2.4838,2.4659,2.4845,2.4962,2.4962,2.5107,2.5225,2.529,2.5284,2.5321,2.534,2.4835,2.4388,2.4216,2.3556,2.3079,2.308,2.2978,2.2969,2.3125,2.3084,2.3099,2.3182,2.3081,2.2926,2.2494,2.1737,2.1061,2.0457,2.0258,2.0272,2.0283,2.0269,2.0233,2.0299,2.0299,2.0272,2.0266,2.0277,2.0315,2.0335,2.0346,2.0377,2.0393,2.044,2.0451,2.0425,2.0428,2.0462,2.043,2.0417,2.0395,3.2375,0.0,3.1127,3.0617,0.0,3.0391,3.0442,3.0514,2.9582,2.9314,2.9551,2.9773,2.9853,2.9853,2.9973,3.0037,3.0056,3.0037,2.9594,2.8769,2.7916,2.7141,2.6416,2.5554,2.5208,2.5303,2.5308,2.5308,2.5308,2.5308,2.5308,2.5308,2.5308,2.5308,2.5288,2.4909,2.4202,2.3201,2.2552,2.2021,2.1596,2.221,2.2535,2.2553,0.0,0.0,0.0,0.0,0.0,0.0,0.0,0.0,0.0,0.0,0.0,2.44,2.4648,2.4804,2.4804,2.4869,2.4911,2.4941,2.513,2.5201,2.51,2.5183,2.5254,2.5254,2.5337,2.5404,2.5431,2.5459,2.5454,2.5469,2.5169,2.4796,2.4349,2.3968,2.3745,2.3746,2.3788,2.3926,2.4355,2.4375,2.4375,2.4372,2.439,2.4173,2.3674,2.2533,2.1389,2.0546,2.0389,2.0389,2.0389,2.0389,2.0391,2.0389,2.0389,2.0389,2.0389,2.0389,2.0416,2.0438,2.0419,2.0393,2.0424,2.0449,2.0442,2.0411,2.0402,2.0398,2.0342,2.0348,2.0345,3.2801,3.2612,3.2023,3.1785,3.1859,3.1859,3.2022,3.2154,0.0,0.0,0.0,3.0122,3.0171,3.0293,3.0382,3.0404,3.0404,3.0404,3.0006,2.9294,2.8467,2.7736,2.7005,2.6,2.5519,2.5519,2.536,2.5308,2.5308,2.5308,2.5308,2.5308,2.5308,2.5308,2.525,2.4639,2.4231,2.4061,2.3727,2.3227,2.2565,2.3202,2.3579,2.3561,2.404,2.4294,2.4331,2.4303,2.4384,2.4534,2.4543,2.4623,2.479,2.4814,2.4835,2.4854,2.4874,2.4908,2.4923,2.5016,2.5093,2.5161,2.5395,2.5479,2.5434,2.5474,2.551,2.551,2.551,2.5513,2.5524,2.5526,2.5537,2.5533,2.5563,2.5304,2.4624,2.457,2.4606,2.4606,2.4586,2.4844,2.5469,2.5566,2.5661,2.5641,2.5503,2.5349,2.4413,2.3019,2.1755,2.0932,2.0798,2.0674,2.0456,2.0438,2.0435,2.0441,2.044,2.0437,2.0423,2.0426,2.0441,2.0464,2.043,2.0425,2.0467,2.0444,2.0387,2.0377,2.0354,2.0304,2.0292,2.0276,2.0244,3.3571,3.2962,3.3079,3.274,3.2147,3.2128,3.2284,3.2449,3.1477,3.1466,3.2103,3.0874,3.0758,3.1411,3.0725,3.0404,3.0404,3.0404,3.0327,0.0,2.9333,2.8876,2.8665,2.7159,2.6428,2.637,2.5673,2.5308,2.5308,2.5308,2.5308,2.5308,2.5308,2.5308,2.5288,2.5192,2.5111,2.5071,2.4205,2.3625,2.3345,2.4141,2.4591,2.4572,2.4655,2.4716,2.4716,2.4716,2.4731,2.476,2.476,2.4775,2.4804,2.4923,2.4974,2.4961,2.513,2.5245,2.5307,2.5336,2.5374,2.5438,2.5527,2.5558,2.5503,2.5506,2.551,2.551,2.5537,2.5533,2.557,2.5634,2.5693,2.5642,2.5615,2.5527,2.5343,2.5294,2.5288,2.529,2.5358,2.5344,2.5506,2.5543,2.5545,2.5539,2.5552,2.5229,2.4424,2.3526,2.2675,2.1932,2.1698,2.1385,2.0838,2.0584,2.0623,2.0565,2.0604,2.0586,2.0486,2.0485,2.0441,2.0431,2.0402,2.0391,2.0398,2.0395,2.0361,2.0319,2.0304,2.0276,2.0265,2.0152,2.0025,3.4261,3.3944,3.405,3.397,3.3785,3.3922,3.4064,3.4081,3.3238,3.2816,3.2689,3.2045,3.1737,3.166,3.1269,3.0846,3.0404,3.0404,3.0404,3.0327,2.9511,2.9107,2.8992,2.7876,2.7313,2.7274,2.6909,2.6467,2.6043,2.6005,2.575,2.5332,2.5335,2.5335,2.5298,2.5335,2.5335,2.5308,2.4844,2.4575,2.4494,2.4753,2.491,2.491,2.4823,2.4804,2.4804,2.4804,2.4847,2.491,2.491,2.4974,2.5102,2.5192,2.5229,2.5255,2.5356,2.5415,2.5456,2.5948,2.6215,2.6279,2.6761,2.7062,2.7014,2.6153,2.5605,2.5644,2.6035,2.6333,2.6382,2.6738,2.7008,2.7008,2.6573,2.6251,2.6153,2.5761,2.551,2.551,2.551,2.551,2.551,2.551,2.551,2.551,2.551,2.5313,2.4958,2.4629,2.3799,2.2218,2.1789,2.1652,2.1282,2.1203,2.1203,2.1183,2.1183,2.0964,2.0599,2.0461,2.0432,2.0412,2.0387,2.0362,2.034,2.0324,2.0324,2.0314,2.0212,2.0164,2.0105,1.9957,1.9803,3.4784,3.4803,3.486,3.4999,3.5207,3.5398,3.55,3.5423,3.475,3.4122,3.3487,3.3103,3.266,3.2275,3.2064,3.1506,3.0769,3.0692,3.0577,3.0346,2.9717,2.9396,2.9294,2.8544,2.8184,2.8132,2.8023,2.7557,2.6978,2.6935,2.6625,2.5972,2.5793,2.5689,2.5616,2.5495,2.5395,2.5357,2.553,2.5523,2.5308,2.5152,2.5077,2.5046,2.4956,2.4903,2.4903,2.4923,2.4986,2.5083,2.5102,2.5216,2.5392,2.5421,2.5434,2.5506,2.551,2.5615,2.5827,2.6512,2.7018,2.7233,2.7869,2.8281,2.8163,2.7069,2.6288,2.6348,2.6914,2.7264,2.734,2.7752,2.8174,2.8121,2.7531,2.7074,2.6981,2.6443,2.6039,2.6061,2.6039,2.6036,2.5809,2.5751,2.5667,2.5508,2.5459,2.544,2.5459,2.5459,2.4485,2.3012,2.2248,2.2215,2.2073,2.2019,2.1999,2.1997,2.1999,2.1608,2.1038,2.0698,2.0553,2.048,2.0344,2.0308,2.0296,2.029,2.0277,2.0226,2.0105,1.9984,1.9893,1.9762,1.9609,3.5051,3.5105,3.5304,3.5439,3.5453,3.5493,3.55,3.5481,3.5404,3.5346,3.5019,3.3622,3.3333,3.3795,3.3122,3.2352,3.1602,3.1577,3.1179,3.0506,3.0327,3.0288,3.021,2.9402,2.8992,2.8923,2.8371,2.8074,2.7888,2.7896,2.7879,2.7746,2.7067,2.6673,2.6587,2.5909,2.5517,2.5512,2.6257,2.6227,2.5361,2.5274,2.5269,2.5288,2.5259,2.5253,2.5297,2.5309,2.5352,2.5372,2.5441,2.5485,2.5481,2.5501,2.5506,2.5515,2.5532,2.5847,2.667,2.6909,2.7382,2.8066,2.8301,2.8376,2.83,2.8099,2.8015,2.8064,2.8095,2.8081,2.8079,2.8169,2.8262,2.8286,2.8036,2.7871,2.7774,2.7734,2.7676,2.7676,2.7494,2.7392,2.6665,2.6516,2.6193,2.5556,2.5502,2.5444,2.5348,2.5324,2.5074,2.4145,2.3909,2.3594,2.3069,2.2863,2.2867,2.2873,2.288,2.2447,2.1806,2.1455,2.1307,2.0923,2.0527,2.0554,2.0489,2.0308,2.0329,2.0422,2.0265,1.996,1.9726,1.9603,1.9569,3.5346,3.5354,3.5453,3.55,3.55,3.55,3.55,3.55,3.55,3.55,3.5423,3.475,3.4353,3.4186,3.3821,3.3218,3.241,3.1929,3.1835,3.1858,3.097,3.0752,3.1153,3.0397,2.999,2.9994,2.9666,2.9276,2.8822,2.8332,2.8116,2.8082,2.7774,2.7618,2.7554,2.7246,2.7092,2.7041,2.7393,2.7365,2.6935,2.6452,2.62,2.6123,2.5705,2.5686,2.6123,2.6217,2.6234,2.6234,2.6262,2.6057,2.5575,2.5558,2.5569,2.5646,2.6118,2.6786,2.7672,2.8222,2.8671,2.8995,2.9462,2.9684,2.962,2.9611,2.9624,2.9599,2.9195,2.8848,2.89,2.9247,2.9509,2.9429,2.8999,2.8641,2.8599,2.8184,2.789,2.789,2.789,2.7813,2.7467,2.739,2.7005,2.6269,2.6058,2.5923,2.5462,2.5308,2.5173,2.4918,2.4836,2.4505,2.384,2.3647,2.3651,2.3647,2.3663,2.3331,2.2589,2.2316,2.2146,2.1778,2.165,2.165,2.1859,2.1656,2.155,2.1295,2.0695,2.0282,1.9578,1.9435,1.9427,3.55,3.55,3.55,3.55,3.55,3.55,3.55,3.55,3.55,3.55,3.55,3.55,3.5168,3.4629,3.4571,3.4071,3.3267,3.2694,3.2642,3.2938,3.1565,3.1254,3.1779,3.1017,3.0606,3.0609,3.0586,3.0334,2.9786,2.923,2.8861,2.8847,2.8691,2.8574,2.8478,2.836,2.8203,2.8161,2.8372,2.8509,2.8413,2.7883,2.7441,2.7143,2.6549,2.653,2.7118,2.7173,2.718,2.718,2.7213,2.6958,2.6392,2.6335,2.6361,2.6445,2.6972,2.7693,2.8572,2.9193,2.9592,2.9821,3.0556,3.0884,3.0707,3.0992,3.1114,3.0859,3.0498,3.0226,2.9716,3.0124,3.0453,3.0443,2.9817,2.9467,2.9415,2.8909,2.864,2.8582,2.8756,2.8467,2.8236,2.8005,2.7563,2.7082,2.6948,2.6788,2.6135,2.5885,2.5673,2.5635,2.5486,2.5067,2.4543,2.4427,2.4432,2.4432,2.4446,2.4143,2.3374,2.3182,2.2834,2.2422,2.2666,2.2604,2.2241,2.2274,2.2374,2.2174,2.1526,2.0611,1.9895,1.9562,1.9311,3.55,3.55,3.5519,3.5596,3.5519,3.5577,3.5538,3.5673,3.5577,3.5558,3.5571,3.5552,3.5521,3.5493,3.5392,3.5001,3.4313,3.4115,3.3781,3.3294,3.2305,3.1857,3.184,3.1017,3.0667,3.0864,3.0929,3.0902,3.0878,3.0762,3.0781,3.0723,2.9941,2.9531,2.9434,2.8809,2.834,2.8535,2.916,2.9531,2.9531,2.9473,2.8973,2.8214,2.7965,2.7911,2.805,2.8104,2.8141,2.8122,2.8198,2.8184,2.8144,2.8105,2.8066,2.8125,2.8153,2.8527,2.9286,2.9485,2.9758,3.0489,3.1345,3.1504,3.0927,3.1912,3.2328,3.1721,3.2162,3.1932,3.0762,3.0655,3.065,3.0606,3.0473,3.0423,3.0385,3.0385,3.0308,3.0212,3.0096,2.9756,2.9127,2.8376,2.8088,2.7871,2.7838,2.7741,2.7486,2.6967,2.6601,2.6404,2.5981,2.5327,2.5264,2.5058,2.5115,2.5052,2.485,2.4904,2.4442,2.3938,2.3399,2.3002,2.2988,2.2814,2.2401,2.2264,2.2321,2.2096,2.1561,2.0801,2.0564,1.9822,1.952,3.5808,3.6327,3.6865,3.7103,3.7103,3.7103,3.7103,3.7103,3.7103,3.6819,3.6445,3.6379,3.6133,3.5667,3.5644,3.5478,3.5166,3.4688,3.4601,3.4705,3.3464,3.311,3.356,3.2798,3.2387,3.2409,3.2435,3.244,3.2422,3.1992,3.1738,3.1601,3.0859,3.043,3.0371,3.0137,2.9961,3.0,3.0293,3.0449,3.0449,3.043,3.0253,2.9854,2.8798,2.8485,2.9052,2.9078,2.9099,2.9079,2.9121,2.8887,2.8379,2.8257,2.8503,2.8989,2.8955,2.9292,3.0112,3.0692,3.1061,3.1375,3.2139,3.2459,3.2213,3.2584,3.2792,3.2596,3.2679,3.2524,3.2253,3.1998,3.2,3.1981,3.1987,3.1929,3.2,3.1987,3.1833,3.1288,3.0788,3.025,3.0025,2.9673,2.9294,2.878,2.8659,2.8472,2.8011,2.7601,2.7423,2.7409,2.7173,2.6891,2.6707,2.5789,2.5269,2.5138,2.5017,2.4915,2.4598,2.4504,2.4075,2.3929,2.3726,2.363,2.3453,2.3359,2.3218,2.2646,2.2051,2.161,2.1437,2.0719,2.0252,3.6615,3.7161,3.7757,3.8007,3.8007,3.8007,3.8007,3.7995,3.804,3.7783,3.7373,3.7347,3.7043,3.6576,3.6312,3.6192,3.6126,3.5354,3.5316,3.5763,3.4421,3.4097,3.4453,3.3809,3.3379,3.3379,3.3379,3.3379,3.334,3.2871,3.2598,3.2539,3.1953,3.1699,3.1699,3.1719,3.1699,3.1699,3.1699,3.1719,3.1719,3.1699,3.1719,3.1562,3.0547,2.9922,3.0039,3.0019,3.0019,3.0,3.0019,2.9746,2.9141,2.9015,2.9225,2.9786,3.0039,3.0341,3.0962,3.1771,3.2201,3.2202,3.2882,3.3296,3.3,3.341,3.3583,3.3449,3.3622,3.3737,3.3737,3.3737,3.3526,3.3064,3.2891,3.2891,3.2891,3.2872,3.2622,3.2141,3.1654,3.1192,3.0865,3.0808,3.0385,2.964,2.9531,2.9236,2.8832,2.8384,2.8182,2.8138,2.7758,2.7446,2.7198,2.6491,2.5831,2.5646,2.5183,2.5028,2.4977,2.4903,2.4821,2.4761,2.4693,2.4662,2.461,2.4505,2.407,2.3474,2.2933,2.2409,2.2072,2.1625,2.1067,3.7988,3.8027,3.8027,3.818,3.8238,3.826,3.8111,3.8238,3.8309,3.8393,3.8268,3.8288,3.8233,3.8124,3.7485,3.7231,3.7124,3.6426,3.6,3.5879,3.5098,3.4726,3.4766,3.4062,3.3691,3.3672,3.3516,3.3516,3.3613,3.3496,3.3418,3.3398,3.3262,3.3066,3.3301,3.3144,3.3262,3.3184,3.3125,3.3223,3.3359,3.3184,3.3164,3.3223,3.3047,3.2344,3.1055,3.0976,3.1016,3.0976,3.0898,3.084,3.0537,3.0487,3.0583,3.0688,3.1309,3.1742,3.1874,3.2497,3.294,3.3051,3.3737,3.393,3.359,3.4449,3.4968,3.4468,3.4834,3.5327,3.5269,3.5231,3.4692,3.3314,3.3237,3.3237,3.3122,3.2968,3.291,3.2872,3.2718,3.2487,3.1942,3.1667,3.1303,3.0682,3.0446,3.0439,3.0228,2.958,2.8972,2.872,2.8381,2.799,2.759,2.7148,2.6685,2.6233,2.5616,2.5228,2.5233,2.5196,2.4989,2.4872,2.4559,2.4525,2.4419,2.4321,2.4303,2.3804,2.3437,2.3134,2.2773,2.2309,2.1591,3.8892,3.8969,3.9496,3.9727,3.9742,3.9798,3.985,3.985,3.9961,3.9708,3.9295,3.9246,3.9011,3.8587,3.8258,3.8184,3.8164,3.785,3.7148,3.6152,3.5723,3.5625,3.5566,3.5332,3.5195,3.5195,3.5195,3.5176,3.5059,3.457,3.4297,3.4199,3.3711,3.3398,3.3476,3.3379,3.3379,3.3379,3.3379,3.3379,3.3379,3.3398,3.3398,3.3379,3.3379,3.3084,3.2601,3.2559,3.254,3.2501,3.1929,3.1317,3.0884,3.1144,3.1421,3.1486,3.2139,3.2559,3.265,3.3313,3.3795,3.3949,3.4603,3.4949,3.475,3.5154,3.5404,3.5103,3.5346,3.55,3.55,3.55,3.5269,3.475,3.4692,3.4603,3.4462,3.4122,3.3853,3.3718,3.3276,3.2724,3.2383,3.227,3.2058,3.1608,3.148,3.1499,3.1398,3.0728,3.0282,3.017,2.9433,2.8706,2.8493,2.811,2.755,2.7028,2.6374,2.5757,2.5668,2.5549,2.5319,2.5107,2.4764,2.4552,2.4412,2.4401,2.452,2.4328,2.3988,2.3745,2.3495,2.2908,2.2189,3.9764,3.9867,4.0369,4.0584,4.061,4.071,4.0742,4.0742,4.0832,4.0608,4.0251,4.0232,4.0013,3.957,3.9238,3.9082,3.9062,3.8769,3.8008,3.709,3.6953,3.6973,3.6973,3.6973,3.6973,3.6875,3.6641,3.6484,3.6426,3.5644,3.5176,3.5059,3.4629,3.4394,3.4375,3.4375,3.4375,3.4355,3.4394,3.4355,3.4355,3.4355,3.4355,3.4355,3.4336,3.4278,3.4213,3.4166,3.3869,3.3312,3.2616,3.2046,3.1569,3.1966,3.2206,3.2359,3.29,3.3397,3.3468,3.4186,3.468,3.4776,3.5199,3.5481,3.5538,3.5692,3.5942,3.5942,3.6288,3.6442,3.6449,3.6449,3.6423,3.6423,3.5788,3.5558,3.5404,3.5019,3.4718,3.457,3.4157,3.3558,3.3134,3.2864,3.2615,3.226,3.21,3.21,3.1986,3.158,3.1354,3.1013,3.0256,2.9781,2.9601,2.9084,2.8442,2.7859,2.7239,2.6658,2.6286,2.612,2.5904,2.5877,2.5627,2.5618,2.5493,2.5401,2.5401,2.4997,2.4564,2.4273,2.3946,2.3381,2.2735,4.0575,4.0711,4.0709,4.0742,4.0781,4.0821,4.0805,4.0843,4.0955,4.1002,4.0973,4.1011,4.1094,4.0937,4.0254,3.9961,3.9844,3.9297,3.8984,3.8789,3.873,3.8633,3.834,3.8281,3.8262,3.8242,3.7676,3.7383,3.7324,3.666,3.6094,3.6055,3.5996,3.5976,3.5762,3.5937,3.5801,3.5742,3.582,3.5801,3.582,3.584,3.5813,3.5724,3.5681,3.5619,3.5447,3.5353,3.4744,3.3487,3.3155,3.2987,3.2947,3.2945,3.2987,3.3031,3.3801,3.418,3.4449,3.4911,3.5442,3.5538,3.5615,3.5635,3.5923,3.6469,3.6769,3.6827,3.7392,3.7815,3.7815,3.7796,3.7796,3.7738,3.6558,3.575,3.5519,3.5442,3.5346,3.5338,3.5205,3.4783,3.3911,3.3582,3.3088,3.2584,3.2366,3.242,3.2333,3.2187,3.1905,3.1463,3.0946,3.0604,3.0351,3.0155,2.9513,2.8924,2.8338,2.7838,2.7155,2.6869,2.6465,2.6429,2.6484,2.6521,2.6418,2.6161,2.5889,2.5479,2.51,2.4759,2.4367,2.3892,2.352,4.0661,4.0709,4.0752,4.0792,4.0809,4.0889,4.0952,4.0962,4.1081,4.1133,4.1152,4.1191,4.1191,4.1172,4.0957,4.0859,4.0723,4.0566,4.0527,4.0508,4.0527,3.9707,3.8828,3.8633,3.8672,3.8633,3.8457,3.8262,3.8242,3.793,3.7519,3.6973,3.6953,3.6641,3.6113,3.6094,3.6016,3.5996,3.5966,3.5938,3.5914,3.583,3.576,3.5764,3.5777,3.5751,3.5645,3.5562,3.5065,3.4079,3.3901,3.3569,3.3164,3.3551,3.3853,3.3987,3.4622,3.5141,3.518,3.5365,3.5769,3.6327,3.6365,3.6673,3.7315,3.7526,3.7661,3.77,3.793,3.8065,3.8046,3.8084,3.8065,3.7873,3.707,3.621,3.5736,3.55,3.55,3.546,3.5269,3.4884,3.4462,3.4078,3.375,3.3388,3.3235,3.3216,3.3037,3.2753,3.2447,3.2176,3.1753,3.136,3.1078,3.0968,3.0589,3.0031,2.9561,2.9248,2.8503,2.786,2.7255,2.6759,2.6961,2.7042,2.6767,2.6481,2.6184,2.6025,2.5753,2.548,2.5047,2.458,2.4354,4.0781,4.0816,4.0857,4.0936,4.0964,4.1052,4.1081,4.1103,4.1172,4.1191,4.1191,4.1191,4.1191,4.1191,4.1191,4.1191,4.1191,4.1191,4.1172,4.1172,4.1133,4.0586,3.9883,3.9707,3.9707,3.9629,3.9297,3.916,3.9043,3.8789,3.832,3.793,3.7832,3.7578,3.7226,3.7007,3.679,3.657,3.6403,3.6214,3.5844,3.5732,3.5702,3.5772,3.5946,3.6164,3.6103,3.6363,3.6007,3.5064,3.4718,3.4487,3.4103,3.443,3.4737,3.4776,3.525,3.5481,3.5577,3.5769,3.6192,3.6673,3.6969,3.7469,3.793,3.8296,3.8546,3.8546,3.8815,3.9034,3.9046,3.9046,3.8873,3.8577,3.7963,3.7255,3.6442,3.6396,3.6107,3.5779,3.542,3.5025,3.4591,3.4237,3.4018,3.3831,3.3708,3.3713,3.3663,3.3311,3.3036,3.2797,3.2485,3.2082,3.1751,3.1586,3.1347,3.0834,3.0467,3.0228,2.9494,2.873,2.826,2.7728,2.7647,2.7475,2.7239,2.7063,2.6947,2.677,2.6491,2.5993,2.5443,2.5247,2.5035,4.0883,4.0996,4.1021,4.1082,4.1172,4.1191,4.1191,4.1191,4.1191,4.1191,4.1191,4.1191,4.1191,4.1191,4.1191,4.1191,4.1191,4.1191,4.1191,4.1191,4.1191,4.1035,4.0957,4.0859,4.0898,4.084,4.0332,4.0078,3.9902,3.9297,3.8887,3.875,3.873,3.8633,3.8301,3.8285,3.7972,3.74,3.7173,3.6849,3.6378,3.6234,3.6231,3.6278,3.6687,3.6939,3.7043,3.7365,3.7238,3.5846,3.575,3.5788,3.575,3.5769,3.5808,3.5853,3.5962,3.5962,3.5923,3.6558,3.6949,3.7238,3.7834,3.82,3.8507,3.9065,3.9419,3.9411,4.0092,4.0227,4.0265,4.0381,4.0035,3.9492,3.9108,3.8602,3.7937,3.7585,3.7072,3.6195,3.5817,3.5248,3.4674,3.4153,3.3972,3.4238,3.4064,3.3807,3.3807,3.3623,3.3532,3.3532,3.3183,3.2784,3.2485,3.2228,3.1935,3.1568,3.1219,3.0834,3.0099,2.9482,2.9227,2.888,2.8366,2.8064,2.7931,2.7797,2.7643,2.7267,2.6806,2.6177,2.5608,2.5672,2.5557,4.0983,4.1019,4.1106,4.1171,4.1191,4.1191,4.1191,4.1191,4.1191,4.1191,4.1191,4.1191,4.1191,4.1191,4.1191,4.1191,4.1191,4.1191,4.1191,4.1191,4.1191,4.1191,4.1191,4.1191,4.1191,4.1133,4.1035,4.0898,4.0781,4.0566,4.0254,3.9668,3.957,3.9297,3.875,3.869,3.8356,3.8127,3.7965,3.7758,3.75,3.7369,3.7379,3.7449,3.7654,3.773,3.7752,3.7911,3.7815,3.7546,3.745,3.743,3.7296,3.7308,3.7296,3.7276,3.7353,3.7392,3.7488,3.7584,3.8007,3.8546,3.8815,3.9304,3.9919,4.0015,4.0208,4.0246,4.0419,4.0496,4.0496,4.0496,4.0365,4.013,4.0008,3.9746,3.9109,3.7986,3.7263,3.6874,3.6589,3.6341,3.6087,3.5172,3.4862,3.4706,3.4325,3.3917,3.3844,3.388,3.3807,3.3807,3.3642,3.3243,3.3164,3.2908,3.2669,3.2394,3.2082,3.1843,3.1091,3.0295,3.0038,2.9501,2.883,2.8604,2.8386,2.8198,2.7975,2.7531,2.7187,2.6933,2.6658,2.6462,2.6396,4.1101,4.1084,4.1171,4.1191,4.1191,4.1191,4.1191,4.1191,4.1191,4.1191,4.1191,4.1191,4.1191,4.1191,4.1191,4.1191,4.1191,4.1191,4.1191,4.1191,4.1191,4.1191,4.1191,4.1191,4.1191,4.1191,4.1191,4.1191,4.1191,4.1172,4.0879,4.0547,4.0469,4.0332,3.9844,3.9552,3.9352,3.8988,3.8752,3.8511,3.8106,3.8007,3.8296,3.8527,3.8604,3.8604,3.8604,3.9008,3.8938,3.8803,3.8911,3.8738,3.8123,3.8007,3.8007,3.8007,3.8007,3.8007,3.8007,3.8392,3.8796,3.9277,3.9604,4.0035,4.0381,4.0496,4.0496,4.0496,4.0496,4.0496,4.0496,4.0496,4.0465,4.0294,4.0176,3.9874,3.9359,3.8672,3.7943,3.7511,3.7126,3.6823,3.6413,3.597,3.5758,3.5569,3.4894,3.4486,3.4266,3.4247,3.388,3.3807,3.3807,3.3733,3.3733,3.3605,3.3458,3.3238,3.3018,3.2908,3.2596,3.1725,3.0902,3.0211,2.9493,2.8873,2.8624,2.8461,2.8289,2.7868,2.7673,2.7777,2.7845,2.7725,2.7759,4.1191,4.1191,4.1191,4.1191,4.1191,4.1191,4.1191,4.1191,4.1191,4.1191,4.1191,4.1191,4.1191,4.1191,4.1191,4.1191,4.1191,4.1191,4.1191,4.1191,4.1191,4.1191,4.1191,4.1191,4.1191,4.1191,4.1191,4.1191,4.1191,4.1191,4.1133,4.1133,4.1113,4.0937,4.0996,4.0855,4.033,3.9779,3.9579,3.9249,3.8703,3.8573,3.8931,3.9342,3.9477,3.945,3.9573,3.99,4.0112,3.9592,4.015,3.9669,3.8834,3.8373,3.8373,3.845,3.8584,3.8661,3.8777,3.9111,3.9496,3.9534,4.0054,4.0419,4.0496,4.0496,4.0496,4.0496,4.0489,4.0473,4.0457,4.0397,4.0267,4.0072,3.9746,3.9462,3.9257,3.9352,3.8738,3.8038,3.7757,3.7577,3.7143,3.6703,3.6574,3.634,3.5661,3.5096,3.4876,3.4692,3.4431,3.4064,3.4082,3.3917,3.388,3.4266,3.4119,3.3785,3.3656,3.357,3.3428,3.2364,3.1326,3.0868,3.0211,2.9476,2.8964,2.8849,2.8579,2.8233,2.8231,2.8386,2.8639,2.8942,2.8925,4.1191,4.1191,4.1191,4.1191,4.1191,4.1191,4.1191,4.1191,4.1191,4.1191,4.1191,4.1191,4.1191,4.1191,4.1191,4.1191,4.1191,4.1191,4.1191,4.1191,4.1191,4.1191,4.1191,4.1191,4.1191,4.1191,4.1191,4.1191,4.1191,4.1191,4.1172,4.1172,4.1081,4.1028,4.0979,4.0824,4.0662,4.04,4.0235,4.0004,3.9873,3.9835,3.99,4.0169,4.015,4.0189,4.0227,4.0381,4.0439,4.0342,4.0439,4.0304,3.9996,3.99,3.99,3.9854,3.9815,3.9765,3.9861,4.0073,4.0285,4.0342,4.0496,4.0593,4.0612,4.0612,4.0823,4.0719,4.0665,4.0513,4.0205,4.0416,4.005,3.9813,3.9769,3.9508,3.9229,3.9154,3.9063,3.8449,3.8392,3.834,3.7881,3.7514,3.7382,3.7092,3.6523,3.5899,3.5495,3.5385,3.5275,3.4853,3.4435,3.4192,3.3954,3.4509,3.4715,3.4206,3.3953,3.3738,3.3355,3.245,3.1705,3.1449,3.0669,2.9712,2.935,2.9277,2.9136,2.8925,2.8958,2.9061,2.9348,2.9602,2.9382,4.1191,4.1191,4.1191,4.1191,4.1191,4.1191,4.1191,4.1191,4.1191,4.1191,4.1191,4.1191,4.1191,4.1191,4.1191,4.1191,4.1191,4.1191,4.1191,4.1191,4.1191,4.1191,4.1191,4.1191,4.1191,4.1172,4.1133,4.1149,4.1191,4.1113,4.1103,4.1055,4.0959,4.0905,4.086,4.0777,4.0709,4.0661,4.0581,4.0496,4.0496,4.0496,4.0496,4.0496,4.0516,4.0496,4.0496,4.0496,4.0496,4.0477,4.0496,4.0496,4.0535,4.0554,4.0535,4.0554,4.0554,4.0516,4.0516,4.0516,4.0669,4.1123,4.1181,4.145,4.17,4.192,4.1758,4.1753,4.1576,4.1494,4.1445,4.1127,4.0733,4.0228,4.0289,4.0,3.9379,3.9367,3.9202,3.8958,3.8759,3.867,3.8579,3.8303,3.8172,3.7823,3.7331,3.678,3.6193,3.6156,3.6156,3.5771,3.5367,3.5165,3.4926,3.5238,3.5445,3.4916,3.4364,3.4119,3.3752,3.3038,3.2615,3.2354,3.1338,3.0338,3.0008,2.9999,2.9824,2.9719,2.9939,3.0127,3.0161,3.0161,2.9974,4.1191,4.1191,4.1191,4.1191,4.1191,4.1191,4.1191,4.1191,4.1191,4.1191,4.1191,4.1191,4.1191,4.1191,4.1191,4.1191,4.1191,4.1191,4.1191,4.1191,4.1191,4.1191,4.1191,4.1171,4.1152,4.1113,4.1021,4.1026,4.1102,4.1023,4.0962,4.092,4.0839,4.0784,4.0771,4.0676,4.0674,4.063,4.0566,4.0496,4.0496,4.0496,4.0496,4.0573,4.0631,4.0719,4.0535,4.0766,4.0843,4.0854,4.0854,4.0893,4.1016,4.1035,4.1016,4.0997,4.0862,4.0823,4.1054,4.115,4.1546,4.2008,4.2066,4.245,4.2739,4.2788,4.2906,4.2942,4.2652,4.2256,4.1996,4.1995,4.1419,4.0896,4.0915,4.1026,4.009,3.9779,3.9939,3.9625,3.9239,3.9001,3.8909,3.867,3.8432,3.8395,3.7936,3.7547,3.7055,3.711,3.7037,3.6721,3.6413,3.6285,3.6174,3.6193,3.6193,3.5779,3.5126,3.4658,3.4321,3.3879,3.3467,3.294,3.2505,3.1627,3.1193,3.0683,3.0514,3.0565,3.0937,3.0987,3.0768,3.0734,3.0683,4.1191,4.1211,4.1211,4.1191,4.1191,4.1191,4.1191,4.1191,4.1191,4.1191,4.1191,4.1191,4.1191,4.1191,4.1191,4.1191,4.125,4.1191,4.1269,4.1348,4.123,4.1172,4.1191,4.1074,4.1182,4.1248,4.1075,4.0914,4.1108,4.1065,4.0839,4.0797,4.0747,4.0746,4.0864,4.0809,4.0534,4.0573,4.0608,4.0612,4.065,4.0669,4.0689,4.0843,4.1181,4.1373,4.0997,4.1316,4.1643,4.1643,4.1635,4.2027,4.2624,4.2797,4.2797,4.2566,4.2239,4.197,4.247,4.2489,4.2604,4.2854,4.2931,4.3008,4.3255,4.3269,4.3139,4.2582,4.2576,4.2488,4.2218,4.1824,4.1434,4.1308,4.1348,4.1314,4.0744,4.0616,4.0726,4.0524,4.0178,3.9572,3.9239,3.8946,3.8689,3.8652,3.856,3.8175,3.7881,3.7881,3.7845,3.7496,3.7345,3.7202,3.704,3.7128,3.6903,3.6549,3.5894,3.5244,3.492,3.4507,3.3811,3.3335,3.3,3.2577,3.1867,3.1427,3.1241,3.121,3.1275,3.1241,3.114,3.119,3.1224,4.1875,4.1875,4.1875,4.1601,4.1211,4.1191,4.1191,4.1191,4.1191,4.1191,4.1191,4.1191,4.1191,4.1191,4.1191,4.1465,4.168,4.1465,4.1504,4.166,4.144,4.1159,4.1211,4.1442,4.1637,4.171,4.1969,4.232,4.2005,4.1242,4.0752,4.0789,4.0713,4.0923,4.1265,4.1266,4.1601,4.1862,4.2008,4.1978,4.197,4.195,4.1931,4.1958,4.2335,4.2239,4.2124,4.2258,4.2547,4.2527,4.2527,4.2662,4.2989,4.3124,4.322,4.3739,4.347,4.3201,4.3104,4.3143,4.3393,4.3682,4.3799,4.3929,4.4078,4.3994,4.3858,4.3737,4.346,4.316,4.2895,4.2783,4.2316,4.2079,4.2047,4.1662,4.157,4.1717,4.1662,4.1389,4.1132,4.0636,4.0267,4.0212,3.9882,3.9423,3.9331,3.9038,3.8652,3.8395,3.8358,3.8248,3.8138,3.8083,3.7906,3.7828,3.7548,3.7147,3.6469,3.5892,3.5573,3.5087,3.4359,3.3829,3.3525,3.3034,3.2459,3.2121,3.1921,3.1701,3.1498,3.1512,3.1529,3.1309,3.1309,4.3242,4.2988,4.2363,4.1758,4.123,4.1191,4.1191,4.1191,4.1191,4.1191,4.1191,4.1191,4.1191,4.1289,4.1445,4.1855,4.2344,4.1952,4.2185,4.2255,4.2038,4.1754,4.1919,4.2229,4.2359,4.2379,4.2704,4.2957,4.2692,4.2125,4.1467,4.1287,4.148,4.1609,4.1958,4.2143,4.2393,4.2797,4.2893,4.2912,4.2951,4.297,4.2989,4.3085,4.3239,4.3316,4.3143,4.3355,4.3393,4.3393,4.3393,4.3528,4.3855,4.4008,4.4162,4.4528,4.4509,4.4355,4.4085,4.3989,4.4085,4.4357,4.4507,4.4556,4.4703,4.4707,4.4476,4.4248,4.4041,4.3897,4.3831,4.3555,4.316,4.2926,4.2983,4.247,4.2103,4.2323,4.2506,4.2396,4.2194,4.2029,4.1754,4.1735,4.1277,4.0451,4.0065,3.9845,3.9533,3.9166,3.9019,3.8982,3.8652,3.8517,3.8204,3.8094,3.7929,3.7614,3.6935,3.6411,3.5994,3.5543,3.4931,3.4489,3.415,3.4134,3.3947,3.3237,3.2581,3.2459,3.2324,3.2053,3.1901,3.1698,3.1579,4.5547,4.4629,4.2305,4.1328,4.125,4.1191,4.123,4.1191,4.1191,4.123,4.1328,4.125,4.1308,4.1426,4.1992,4.2363,4.2461,4.3105,4.3324,4.3378,4.3305,4.2984,4.2976,4.2984,4.3124,4.3124,4.3453,4.3427,4.3222,4.3312,4.2941,4.292,4.2582,4.2805,4.3047,4.3162,4.3239,4.3489,4.347,4.3412,4.3374,4.3335,4.3335,4.3431,4.3797,4.3912,4.3239,4.3874,4.4239,4.422,4.4239,4.4479,4.4863,4.4998,4.5133,4.521,4.5287,4.5171,4.5037,4.5028,4.5316,4.5369,4.511,4.4715,4.4619,4.4606,4.4419,4.4106,4.394,4.3836,4.3662,4.3478,4.3369,4.3332,4.3314,4.3167,4.2892,4.302,4.3185,4.3277,4.313,4.2818,4.2763,4.2616,4.2084,4.124,4.0708,4.0453,4.0414,4.012,3.9918,3.968,3.9166,3.8768,3.8244,3.8129,3.8223,3.7747,3.7053,3.661,3.6222,3.5775,3.5284,3.5245,3.4974,3.5211,3.5228,3.4353,3.366,3.3423,3.3152,3.2763,3.2662,3.2628,3.2442,4.4512,4.4101,4.3125,4.2441,4.1933,4.1933,4.166,4.125,4.1211,4.1523,4.1933,4.1933,4.1933,4.2168,4.2723,4.3147,4.3141,4.3301,4.3799,4.3872,4.3705,4.3347,4.3355,4.3717,4.3871,4.3979,4.4292,4.4633,4.4699,4.4451,4.4613,4.444,4.3682,4.3547,4.3701,4.4259,4.4489,4.4547,4.4575,4.4613,4.4624,4.4643,4.4643,4.4682,4.4806,4.4979,4.4748,4.494,4.5075,4.5094,4.5075,4.5278,4.5481,4.5558,4.5586,4.5577,4.5577,4.5586,4.5577,4.5568,4.5532,4.5182,4.4787,4.4387,4.4233,4.4061,4.3899,4.3726,4.371,4.3629,4.3546,4.3496,4.3461,4.3479,4.3479,4.3479,4.3479,4.3479,4.3479,4.3406,4.3424,4.3314,4.3332,4.3369,4.2708,4.2029,4.1517,4.1132,4.1167,4.102,4.0763,4.0543,4.0065,3.9737,3.9275,3.8942,3.8608,3.7873,3.7168,3.6853,3.6495,3.5893,3.5515,3.56,3.565,3.5583,3.5397,3.5076,3.4675,3.4235,3.3761,3.3288,3.3322,3.3491,3.3322,4.3848,4.4082,4.4082,4.3574,4.2832,4.2793,4.2305,4.1699,4.1894,4.2207,4.2773,4.2773,4.2772,4.2981,4.3569,4.3943,4.3991,4.4167,4.4545,4.4614,4.4415,4.3961,4.409,4.4357,4.4716,4.4844,4.5152,4.5498,4.5421,4.5556,4.546,4.5075,4.4547,4.4432,4.4662,4.522,4.5594,4.5594,4.5594,4.5594,4.5537,4.5518,4.5518,4.546,4.5498,4.5479,4.5402,4.5441,4.5479,4.5498,4.5509,4.5512,4.5513,4.5513,4.5531,4.5513,4.555,4.5568,4.5485,4.5419,4.5243,4.4738,4.4382,4.4028,4.3802,4.3629,4.358,4.3548,4.3513,4.3479,4.3479,4.3479,4.3479,4.3479,4.3479,4.3479,4.3479,4.3479,4.3479,4.3461,4.3479,4.3479,4.3479,4.3479,4.3222,4.2745,4.258,4.2249,4.2158,4.1937,4.1534,4.1313,4.1038,4.0766,4.0525,3.9748,3.8938,3.8101,3.7489,3.7189,3.6763,3.6259,3.6005,3.6146,3.6113,3.5853,3.56,3.5346,3.5148,3.4912,3.4506,3.415,3.3998,3.4134,3.4066,4.4141,4.4941,4.4902,4.4433,4.3691,4.3672,4.3183,4.2519,4.3105,4.3535,4.3652,4.3652,4.3625,4.3757,4.4395,4.4595,4.4656,4.5159,4.5551,4.5427,4.5248,4.5349,4.5351,4.5372,4.5306,4.5518,4.5594,4.5594,4.5594,4.5594,4.5594,4.5594,4.5287,4.5248,4.5518,4.5556,4.5594,4.5594,4.5594,4.5594,4.5594,4.5594,4.5594,4.5594,4.5594,4.5594,4.5594,4.5594,4.5577,4.5504,4.5504,4.541,4.5232,4.5429,4.5419,4.5253,4.5485,4.5429,4.5169,4.5118,4.4738,4.429,4.4016,4.3852,4.3595,4.3479,4.3479,4.3479,4.3479,4.3479,4.3479,4.3479,4.3479,4.3479,4.3479,4.3479,4.3479,4.3479,4.3479,4.3479,4.3479,4.3479,4.3479,4.3479,4.3479,4.3369,4.3442,4.3314,4.3039,4.2626,4.2117,4.1865,4.163,4.1216,4.079,4.0068,3.9266,3.8419,3.7882,3.7658,3.7533,3.729,3.7077,3.688,3.6721,3.6654,3.6157,3.5667,3.5707,3.574,3.5487,3.516,3.4962,3.4759,3.4692,4.3008,4.3379,4.4512,4.4824,4.459,4.4551,4.4062,4.3398,4.3594,4.4023,4.4473,4.4484,4.4428,4.4626,4.4973,4.5137,4.4806,4.5312,4.5665,4.5657,4.562,4.5593,4.5594,4.5594,4.5594,4.5594,4.5594,4.5594,4.5594,4.5594,4.5594,4.5594,4.5594,4.5594,4.5594,4.5594,4.5594,4.5594,4.5594,4.5594,4.5594,4.5594,4.5594,4.5594,4.5586,4.5568,4.5559,4.5531,4.5448,4.5332,4.5322,4.5251,4.5137,4.5302,4.5332,4.5342,4.5559,4.5303,4.4865,4.4561,4.4285,4.4001,4.3804,4.3662,4.3496,4.3479,4.3479,4.3479,4.3479,4.3479,4.3479,4.3479,4.3479,4.3479,4.3479,4.3479,4.3479,4.3479,4.3479,4.3479,4.3479,4.3479,4.3479,4.3479,4.3479,4.3479,4.3479,4.3444,4.3208,4.2887,4.2466,4.2279,4.2019,4.158,4.1079,4.0433,3.9909,3.9233,3.868,3.8352,3.8244,3.8227,3.7905,3.7567,3.7516,3.7432,3.7009,3.6648,3.6671,3.662,3.6299,3.5802,3.5346,3.5245,3.5312,4.2324,4.2969,4.4062,4.4941,4.5391,4.5449,4.5098,4.459,4.4336,4.4628,4.5246,4.5281,4.5214,4.5297,4.5504,4.558,4.495,4.5324,4.5594,4.5594,4.5594,4.5594,4.5594,4.5594,4.5594,4.5594,4.5594,4.5594,4.5594,4.5594,4.5594,4.5594,4.5594,4.5594,4.5594,4.5594,4.5594,4.5594,4.5594,4.5594,4.5594,4.5594,4.5594,4.5568,4.5504,4.5429,4.54,4.5322,4.5232,4.5126,4.5105,4.5105,4.5115,4.5222,4.5223,4.5293,4.5066,4.4811,4.4409,4.4046,4.3865,4.377,4.3579,4.3513,4.3479,4.3479,4.3479,4.3479,4.3479,4.3479,4.3479,4.3479,4.3479,4.3479,4.3479,4.3479,4.3479,4.3479,4.3479,4.3479,4.3479,4.3479,4.3479,4.3479,4.3479,4.3479,4.3479,4.3356,4.3196,4.2808,4.244,4.2226,4.2026,4.1559,4.1209,4.0926,4.0423,4.0008,3.9522,3.9029,3.9089,3.9073,3.8684,3.8345,3.8278,3.8176,3.7922,3.7719,3.7533,3.728,3.6992,3.6451,3.5785,3.5802,3.6011,4.2168,4.3555,4.3691,4.4687,4.6055,4.6133,4.6191,4.6172,4.5371,4.5422,4.6032,4.5984,4.5819,4.5762,4.579,4.5672,4.5519,4.5565,4.5575,4.5594,4.5594,4.5594,4.5594,4.5594,4.5594,4.5594,4.5594,4.5594,4.5594,4.5594,4.5594,4.5594,4.5594,4.5594,4.5594,4.5594,4.5594,4.5594,4.5594,4.5594,4.5594,4.5594,4.5594,4.5531,4.5419,4.5282,4.518,4.5022,4.4996,4.4985,4.5052,4.5082,4.5169,4.5362,4.5055,4.4726,4.4332,4.4161,4.4043,4.3756,4.3595,4.3579,4.3512,4.3479,4.3479,4.3479,4.3479,4.3479,4.3479,4.3479,4.3479,4.3479,4.3479,4.3479,4.3479,4.3479,4.3479,4.3479,4.3479,4.3479,4.3479,4.3479,4.3479,4.3479,4.3392,4.3178,4.3032,4.2658,4.2503,4.2306,4.1958,4.1746,4.1556,4.1358,4.1105,4.0821,4.058,4.0017,4.0039,3.9723,3.9842,3.9766,3.9411,3.9106,3.9039,3.8903,3.8734,3.8464,3.8159,3.7939,3.7838,3.7347,3.6789,3.6688,3.6721,4.1816,4.2812,4.3437,4.4336,4.5371,4.5946,4.6202,4.623,4.5908,4.5945,4.6084,4.5957,4.5856,4.5796,4.57,4.5643,4.562,4.5594,4.5594,4.5594,4.5594,4.5594,4.5594,4.5594,4.5594,4.5594,4.5594,4.5594,4.5594,4.5594,4.5594,4.5594,4.5594,4.5594,4.5594,4.5594,4.5594,4.5594,4.5594,4.5594,4.5594,4.5594,4.5594,4.5531,4.5448,4.5273,4.5063,4.5129,4.5044,4.4757,4.4745,4.4751,4.4776,4.4612,4.4332,4.4574,4.4276,4.4016,4.3958,4.3695,4.3479,4.3479,4.3479,4.3479,4.3479,4.3479,4.3479,4.3479,4.3479,4.3479,4.3479,4.3479,4.3479,4.3479,4.3479,4.3479,4.3479,4.3479,4.3479,4.3479,4.3479,4.3479,4.3479,4.3392,4.325,4.294,4.258,4.2165,4.1793,4.1621,4.1464,4.1218,4.103,4.0814,4.0618,4.036,4.0262,4.0137,4.0121,4.0113,4.0028,3.996,3.9943,3.9825,3.9605,3.9605,3.9639,3.9292,3.8937,3.8988,3.8886,3.8328,3.7855,3.7702,3.7483,4.1875,4.293,4.3476,4.4354,4.5399,4.5845,4.6077,4.6117,4.6067,4.6014,4.5963,4.5856,4.5763,4.5715,4.5643,4.5603,4.5594,4.5594,4.5594,4.5594,4.5594,4.5594,4.5594,4.5594,4.5594,4.5594,4.5594,4.5594,4.5594,4.5594,4.5594,4.5594,4.5594,4.5594,4.5594,4.5594,4.5594,4.5594,4.5594,4.5594,4.5594,4.5586,4.5594,4.554,4.5504,4.5222,4.4943,4.5077,4.4738,4.4414,4.4359,4.4474,4.4474,4.428,4.4073,4.4247,4.4004,4.3804,4.3726,4.3612,4.3513,4.3479,4.3479,4.3479,4.3479,4.3479,4.3479,4.3479,4.3479,4.3479,4.3479,4.3479,4.3479,4.3479,4.3479,4.3479,4.3479,4.3479,4.3479,4.3479,4.3479,4.3479,4.3427,4.3322,4.3087,4.277,4.2304,4.1771,4.1335,4.0967,4.0821,4.0642,4.0441,4.0254,4.0113,4.0113,4.0096,4.0121,4.0096,4.0113,4.0113,4.0079,4.0028,4.0045,4.0045,4.0011,3.9926,3.9977,3.9791,3.9774,3.9673,3.93,3.8802,3.8548,3.8294,4.2168,4.3691,4.3847,4.4771,4.5952,4.5948,4.59,4.5872,4.5862,4.5869,4.5809,4.579,4.5715,4.5635,4.5594,4.5594,4.5594,4.5594,4.5594,4.5594,4.5594,4.5594,4.5594,4.5594,4.5594,4.5594,4.5594,4.5594,4.5594,4.5594,4.5594,4.5594,4.5594,4.5594,4.5594,4.5594,4.5594,4.5594,4.5594,4.5594,4.5577,4.5577,4.5559,4.5466,4.5232,4.4908,4.4561,4.4304,4.4046,4.4013,4.4058,4.4219,4.418,4.4154,4.3986,4.3896,4.3728,4.3612,4.358,4.3513,4.3513,4.3479,4.3479,4.3479,4.3479,4.3479,4.3479,4.3479,4.3479,4.3479,4.3479,4.3479,4.3479,4.3479,4.3479,4.3479,4.3479,4.3479,4.3479,4.3479,4.3479,4.3479,4.3391,4.3268,4.2771,4.2519,4.2,4.1402,4.0967,4.0497,4.0368,4.0229,4.0171,4.0113,4.0113,4.0113,4.0113,4.0096,4.0113,4.0113,4.0113,4.0113,4.0113,4.0113,4.0113,4.0113,4.0079,4.0079,4.0079,4.0028,3.9977,4.0045,3.9791,3.9326,3.9123,4.2168,4.3808,4.5026,4.5693,4.5869,4.5838,4.5764,4.5673,4.5654,4.572,4.5763,4.5692,4.5635,4.5603,4.5594,4.5594,4.5594,4.5594,4.5594,4.5594,4.5594,4.5594,4.5594,4.5594,4.5594,4.5594,4.5594,4.5594,4.5594,4.5594,4.5594,4.5594,4.5594,4.5594,4.5594,4.5594,4.5594,4.5594,4.5531,4.5531,4.5531,4.5332,4.5211,4.5118,4.4896,4.4561,4.4346,4.4378,4.4175,4.4073,4.4013,4.3943,4.3777,4.3679,4.3647,4.3614,4.3565,4.3513,4.3479,4.3479,4.3479,4.3479,4.3479,4.3479,4.3479,4.3479,4.3479,4.3479,4.3479,4.3479,4.3479,4.3479,4.3479,4.3479,4.3479,4.3479,4.3479,4.3479,4.3479,4.3479,4.3479,4.3391,4.3321,4.2959,4.2521,4.2021,4.1468,4.0943,4.0594,4.0229,4.0237,4.0146,4.0146,4.0113,4.0113,4.0113,4.0113,4.0113,4.0113,4.0113,4.0113,4.0113,4.0113,4.0113,4.0113,4.0113,4.0113,4.0096,4.0096,4.0113,4.0113,4.0113,4.0113,3.9774,3.9757,4.2452,4.3813,4.5313,4.5901,4.579,4.5733,4.5665,4.5612,4.5594,4.5643,4.5692,4.5635,4.5594,4.5594,4.5594,4.5594,4.5594,4.5594,4.5594,4.5594,4.5594,4.5594,4.5594,4.5594,4.5594,4.5594,4.5594,4.5594,4.5594,4.5594,4.5594,4.5594,4.5594,4.5594,4.5594,4.5594,4.5586,4.5586,4.5457,4.5371,4.5362,4.5191,4.4977,4.4872,4.4657,4.4332,4.419,4.4223,4.4046,4.3881,4.3756,4.371,4.358,4.3548,4.3513,4.3513,4.3496,4.3479,4.3479,4.3479,4.3497,4.3534,4.3516,4.3534,4.3479,4.3479,4.3479,4.3479,4.3479,4.3479,4.3479,4.3479,4.3479,4.3479,4.3479,4.3479,4.3479,4.3479,4.3479,4.3479,4.3339,4.3032,4.2771,4.2088,4.1707,4.1446,4.0897,4.0745,4.0381,4.0367,4.0299,4.0197,4.0248,4.0163,4.0113,4.0113,4.0113,4.0113,4.0113,4.0113,4.0113,4.0113,4.0113,4.0113,4.0113,4.0113,4.0113,4.0113,4.0113,4.0113,4.0113,4.0113,4.0113,4.0113,4.0028,4.2827,4.3851,4.5212,4.5802,4.5761,4.566,4.5594,4.5594,4.5594,4.5594,4.5612,4.5603,4.5594,4.5594,4.5594,4.5594,4.5594,4.5594,4.5594,4.5594,4.5594,4.5594,4.5594,4.5594,4.5594,4.5594,4.5594,4.5594,4.5594,4.5594,4.5594,4.5594,4.5594,4.5594,4.5586,4.555,4.5495,4.54,4.5232,4.5011,4.4977,4.4966,4.4745,4.4593,4.446,4.428,4.4046,4.3896,4.3742,4.3662,4.3546,4.3548,4.3513,4.3479,4.3479,4.3479,4.3479,4.3479,4.3479,4.3479,4.3606,4.368,4.3644,4.3699,4.3736,4.3828,4.3846,4.3846,4.3846,4.3791,4.3809,4.3864,4.3864,4.3864,4.3864,4.3864,4.3846,4.3846,4.3846,4.3828,4.3488,4.3136,4.2624,4.1881,4.1342,4.1041,4.0793,4.0559,4.0502,4.0807,4.0942,4.0696,4.0561,4.0409,4.018,4.0113,4.0113,4.0113,4.0113,4.0113,4.0113,4.0113,4.0113,4.0113,4.0113,4.0113,4.0113,4.0113,4.0113,4.0113,4.0113,4.0113,4.0113,4.0113,4.0113,4.3004,4.4416,4.5409,4.574,4.5651,4.5612,4.5594,4.5594,4.5594,4.5594,4.5594,4.5594,4.5594,4.5594,4.5594,4.5594,4.5594,4.5594,4.5594,4.5594,4.5594,4.5594,4.5594,4.5594,4.5594,4.5594,4.5594,4.5594,4.5594,4.5594,4.5594,4.5594,4.5577,4.5568,4.5522,4.5419,4.5191,4.5096,4.4865,4.4587,4.4313,4.4243,4.4204,4.4031,4.3852,4.3728,4.3614,4.3597,4.3565,4.3513,4.3479,4.3479,4.3479,4.3479,4.3479,4.3479,4.3479,4.3589,4.3608,4.3663,4.3845,4.4452,4.4544,4.4727,4.4874,4.5168,4.5168,4.5204,4.5149,4.4966,4.4984,4.5131,4.5186,4.5186,4.5186,4.5168,4.5168,4.5168,4.5168,4.4894,4.451,4.4299,4.4078,4.3244,4.2358,4.2089,4.1844,4.1646,4.1484,4.1525,4.1559,4.1288,4.1018,4.0544,4.0248,4.013,4.0113,4.0113,4.0113,4.0113,4.0113,4.0113,4.0113,4.0113,4.0113,4.0113,4.0113,4.0113,4.0113,4.0113,4.0113,4.0113,4.0113,4.0113,4.0113]}]]